[[{"header":{"parameterUnit":"m.s-1","parameterCategory":1,"la1":30.6,"la2":28.766,"lo1":-90.7593,"lo2":-88.6598,"dy":0.0162,"dx":0.0183,"nx":116,"ny":114,"refTime":"2024-03-17T06:00:00:Z","depth":0,"parameterNumber":2,"parameterNumberName":"U-component_of_WINDS"},"data":[0.0,0.0,0.0,0.0,0.0,0.0,0.0,0.0,0.0,0.0,0.0,0.0,0.0,0.0,0.0,0.0,0.0,0.0,0.0,0.0,0.0,0.0,0.0,0.0,0.0,0.0,0.0,0.0,0.0,0.0,0.0,0.0,0.0,0.0,0.0,0.0,0.0,0.0,0.0,0.0,0.0,0.0,0.0,0.0,0.0,0.0,0.0,0.0,0.0,0.0,0.0,0.0,0.0,0.0,0.0,0.0,0.0,0.0,0.0,0.0,0.0,0.0,0.0,0.0,0.0,0.0,0.0,0.0,0.0,0.0,0.0,0.0,0.0,0.0,0.0,0.0,0.0,0.0,0.0,0.0,0.0,0.0,0.0,0.0,0.0,0.0,0.0,0.0,0.0,0.0,0.0,0.0,0.0,0.0,0.0,0.0,0.0,0.0,0.0,0.0,0.0,0.0,0.0,0.0,0.0,0.0,0.0,0.0,0.0,0.0,0.0,0.0,0.0,0.0,0.0,0.0,0.0,0.0,0.0,0.0,0.0,0.0,0.0,0.0,0.0,0.0,0.0,0.0,0.0,0.0,0.0,0.0,0.0,0.0,0.0,0.0,0.0,0.0,0.0,0.0,0.0,0.0,0.0,0.0,0.0,0.0,0.0,0.0,0.0,0.0,0.0,0.0,0.0,0.0,0.0,0.0,0.0,0.0,0.0,0.0,0.0,0.0,0.0,0.0,0.0,0.0,0.0,0.0,0.0,0.0,0.0,0.0,0.0,0.0,0.0,0.0,0.0,0.0,0.0,0.0,0.0,0.0,0.0,0.0,0.0,0.0,0.0,0.0,0.0,0.0,0.0,0.0,0.0,0.0,0.0,0.0,0.0,0.0,0.0,0.0,0.0,0.0,0.0,0.0,0.0,0.0,0.0,0.0,0.0,0.0,0.0,0.0,0.0,0.0,0.0,0.0,0.0,0.0,0.0,0.0,0.0,0.0,0.0,0.0,0.0,0.0,0.0,0.0,0.0,0.0,0.0,0.0,0.0,0.0,0.0,0.0,0.0,0.0,0.0,0.0,0.0,0.0,0.0,0.0,0.0,0.0,0.0,0.0,0.0,0.0,0.0,0.0,0.0,0.0,0.0,0.0,0.0,0.0,0.0,0.0,0.0,0.0,0.0,0.0,0.0,0.0,0.0,0.0,0.0,0.0,0.0,0.0,0.0,0.0,0.0,0.0,0.0,0.0,0.0,0.0,0.0,0.0,0.0,0.0,0.0,0.0,0.0,0.0,0.0,0.0,0.0,0.0,0.0,0.0,0.0,0.0,0.0,0.0,0.0,0.0,0.0,0.0,0.0,0.0,0.0,0.0,0.0,0.0,0.0,0.0,0.0,0.0,0.0,0.0,0.0,0.0,0.0,0.0,0.0,0.0,0.0,0.0,0.0,0.0,0.0,0.0,0.0,0.0,0.0,0.0,0.0,0.0,0.0,0.0,0.0,0.0,0.0,0.0,0.0,0.0,0.0,0.0,0.0,0.0,0.0,0.0,0.0,0.0,0.0,0.0,0.0,0.0,0.0,0.0,0.0,0.0,0.0,0.0,0.0,0.0,0.0,0.0,0.0,0.0,0.0,0.0,0.0,0.0,0.0,0.0,0.0,0.0,0.0,0.0,0.0,0.0,0.0,0.0,0.0,0.0,0.0,0.0,0.0,0.0,0.0,0.0,0.0,0.0,0.0,0.0,0.0,0.0,0.0,0.0,0.0,0.0,0.0,0.0,0.0,0.0,0.0,0.0,0.0,0.0,0.0,0.0,0.0,0.0,0.0,0.0,0.0,0.0,0.0,0.0,0.0,0.0,0.0,0.0,0.0,0.0,0.0,0.0,0.0,0.0,0.0,0.0,0.0,0.0,0.0,0.0,0.0,0.0,0.0,0.0,0.0,0.0,0.0,0.0,0.0,0.0,0.0,0.0,0.0,0.0,0.0,0.0,0.0,0.0,0.0,0.0,0.0,0.0,0.0,0.0,0.0,0.0,0.0,0.0,0.0,0.0,0.0,0.0,0.0,0.0,0.0,0.0,0.0,0.0,0.0,0.0,0.0,0.0,0.0,0.0,0.0,0.0,0.0,0.0,0.0,0.0,0.0,0.0,0.0,0.0,0.0,0.0,0.0,0.0,0.0,0.0,0.0,0.0,0.0,0.0,0.0,0.0,0.0,0.0,0.0,0.0,0.0,0.0,0.0,0.0,0.0,0.0,0.0,0.0,0.0,0.0,0.0,0.0,0.0,0.0,0.0,0.0,0.0,0.0,0.0,0.0,0.0,0.0,0.0,0.0,0.0,0.0,0.0,0.0,0.0,0.0,0.0,0.0,0.0,0.0,0.0,0.0,0.0,0.0,0.0,0.0,0.0,0.0,0.0,0.0,0.0,0.0,0.0,0.0,0.0,0.0,0.0,0.0,0.0,0.0,0.0,0.0,0.0,0.0,0.0,0.0,0.0,0.0,0.0,0.0,0.0,0.0,0.0,0.0,0.0,0.0,0.0,0.0,0.0,0.0,0.0,0.0,0.0,0.0,0.0,0.0,0.0,0.0,0.0,0.0,0.0,0.0,0.0,0.0,0.0,0.0,0.0,0.0,0.0,0.0,0.0,0.0,0.0,0.0,0.0,0.0,0.0,0.0,0.0,0.0,0.0,0.0,0.0,0.0,0.0,0.0,0.0,0.0,0.0,0.0,0.0,0.0,0.0,0.0,0.0,0.0,0.0,0.0,0.0,0.0,0.0,0.0,0.0,0.0,0.0,0.0,0.0,0.0,0.0,0.0,0.0,0.0,0.0,0.0,0.0,0.0,0.0,0.0,0.0,0.0,0.0,0.0,0.0,0.0,0.0,0.0,0.0,0.0,0.0,0.0,0.0,0.0,0.0,0.0,0.0,0.0,0.0,0.0,0.0,0.0,0.0,0.0,0.0,0.0,0.0,0.0,0.0,0.0,0.0,0.0,0.0,0.0,0.0,0.0,0.0,0.0,0.0,0.0,0.0,0.0,0.0,0.0,0.0,0.0,0.0,0.0,0.0,0.0,0.0,0.0,0.0,0.0,0.0,0.0,0.0,0.0,0.0,0.0,0.0,0.0,0.0,0.0,0.0,0.0,0.0,0.0,0.0,0.0,0.0,0.0,0.0,0.0,0.0,0.0,0.0,0.0,0.0,0.0,0.0,0.0,0.0,0.0,0.0,0.0,0.0,0.0,0.0,0.0,0.0,0.0,0.0,0.0,0.0,0.0,0.0,0.0,0.0,0.0,0.0,0.0,0.0,0.0,0.0,0.0,0.0,0.0,0.0,0.0,0.0,0.0,0.0,0.0,0.0,0.0,0.0,0.0,0.0,0.0,0.0,0.0,0.0,0.0,0.0,0.0,0.0,0.0,0.0,0.0,0.0,0.0,0.0,0.0,0.0,0.0,0.0,0.0,0.0,0.0,0.0,0.0,0.0,0.0,0.0,0.0,0.0,0.0,0.0,0.0,0.0,0.0,0.0,0.0,0.0,0.0,0.0,0.0,0.0,0.0,0.0,0.0,0.0,0.0,0.0,0.0,0.0,0.0,0.0,0.0,0.0,0.0,0.0,0.0,0.0,0.0,0.0,0.0,0.0,0.0,0.0,0.0,0.0,0.0,0.0,0.0,0.0,0.0,0.0,0.0,0.0,0.0,0.0,0.0,0.0,0.0,0.0,0.0,0.0,0.0,0.0,0.0,0.0,0.0,0.0,0.0,0.0,0.0,0.0,0.0,0.0,0.0,0.0,0.0,0.0,0.0,0.0,0.0,0.0,0.0,0.0,0.0,0.0,0.0,0.0,0.0,0.0,0.0,0.0,0.0,0.0,0.0,0.0,0.0,0.0,0.0,0.0,0.0,0.0,0.0,0.0,0.0,0.0,0.0,0.0,0.0,0.0,0.0,0.0,0.0,0.0,0.0,0.0,0.0,0.0,0.0,0.0,0.0,0.0,0.0,0.0,0.0,0.0,0.0,0.0,0.0,0.0,0.0,0.0,0.0,0.0,0.0,0.0,0.0,0.0,0.0,0.0,0.0,0.0,0.0,0.0,0.0,0.0,0.0,0.0,0.0,0.0,0.0,0.0,0.0,0.0,0.0,0.0,0.0,0.0,0.0,0.0,0.0,0.0,0.0,0.0,0.0,0.0,0.0,0.0,0.0,0.0,0.0,0.0,0.0,0.0,0.0,0.0,0.0,0.0,0.0,0.0,0.0,0.0,0.0,0.0,0.0,0.0,0.0,0.0,0.0,0.0,0.0,0.0,0.0,0.0,0.0,0.0,0.0,0.0,0.0,0.0,0.0,0.0,0.0,0.0,0.0,0.0,0.0,0.0,0.0,0.0,0.0,0.0,0.0,0.0,0.0,0.0,0.0,0.0,0.0,0.0,0.0,0.0,0.0,0.0,0.0,0.0,0.0,0.0,0.0,0.0,0.0,0.0,0.0,0.0,0.0,0.0,0.0,0.0,0.0,0.0,0.0,0.0,0.0,0.0,0.0,0.0,0.0,0.0,0.0,0.0,0.0,0.0,0.0,0.0,0.0,0.0,0.0,0.0,0.0,0.0,0.0,0.0,0.0,0.0,0.0,0.0,0.0,0.0,0.0,0.0,0.0,0.0,0.0,0.0,0.0,0.0,0.0,0.0,0.0,0.0,0.0,0.0,0.0,0.0,0.0,0.0,0.0,0.0,0.0,0.0,0.0,0.0,0.0,0.0,0.0,0.0,0.0,0.0,0.0,0.0,0.0,0.0,0.0,0.0,0.0,0.0,0.0,0.0,0.0,0.0,0.0,0.0,0.0,0.0,0.0,0.0,0.0,0.0,0.0,0.0,0.0,0.0,0.0,0.0,0.0,0.0,0.0,0.0,0.0,0.0,0.0,0.0,0.0,0.0,0.0,0.0,0.0,0.0,0.0,0.0,0.0,0.0,0.0,0.0,0.0,0.0,0.0,0.0,0.0,0.0,0.0,0.0,0.0,0.0,0.0,0.0,0.0,0.0,0.0,0.0,0.0,0.0,0.0,0.0,0.0,0.0,0.0,0.0,0.0,0.0,0.0,0.0,0.0,0.0,0.0,0.0,0.0,0.0,0.0,0.0,0.0,0.0,0.0,0.0,0.0,0.0,0.0,0.0,0.0,0.0,0.0,0.0,0.0,0.0,0.0,0.0,0.0,0.0,0.0,0.0,0.0,0.0,0.0,0.0,0.0,0.0,0.0,0.0,0.0,0.0,0.0,0.0,0.0,0.0,0.0,0.0,0.0,0.0,0.0,0.0,0.0,0.0,0.0,0.0,0.0,0.0,0.0,0.0,0.0,0.0,0.0,0.0,0.0,0.0,0.0,0.0,0.0,0.0,0.0,0.0,0.0,0.0,0.0,0.0,0.0,0.0,0.0,0.0,0.0,0.0,0.0,0.0,0.0,0.0,0.0,0.0,0.0,0.0,0.0,0.0,0.0,0.0,0.0,0.0,0.0,0.0,0.0,0.0,0.0,0.0,0.0,0.0,0.0,0.0,0.0,0.0,0.0,0.0,0.0,0.0,0.0,0.0,0.0,0.0,0.0,0.0,0.0,0.0,0.0,0.0,0.0,0.0,0.0,0.0,0.0,0.0,0.0,0.0,0.0,0.0,0.0,0.0,0.0,0.0,0.0,0.0,0.0,0.0,0.0,0.0,0.0,0.0,0.0,0.0,0.0,0.0,0.0,0.0,0.0,0.0,0.0,0.0,0.0,0.0,0.0,0.0,0.0,0.0,0.0,0.0,0.0,0.0,0.0,0.0,0.0,0.0,0.0,0.0,0.0,0.0,0.0,0.0,0.0,0.0,0.0,0.0,0.0,0.0,0.0,0.0,0.0,0.0,0.0,0.0,0.0,0.0,0.0,0.0,0.0,0.0,0.0,0.0,0.0,0.0,0.0,0.0,0.0,0.0,0.0,0.0,0.0,0.0,0.0,0.0,0.0,0.0,0.0,0.0,0.0,0.0,0.0,0.0,0.0,0.0,0.0,0.0,0.0,0.0,0.0,0.0,0.0,0.0,0.0,0.0,0.0,0.0,0.0,0.0,0.0,0.0,0.0,-3.4221,-3.4049,0.0,0.0,0.0,0.0,0.0,0.0,0.0,0.0,0.0,0.0,0.0,0.0,0.0,0.0,0.0,0.0,0.0,0.0,0.0,0.0,0.0,0.0,0.0,0.0,0.0,0.0,-2.3359,-2.3283,-2.3353,-2.3872,-2.4208,-2.4275,-2.5274,-2.6042,-2.6494,-2.7369,-2.804,-2.8478,-2.8993,-2.9262,-2.9294,-2.939,-2.957,-2.9777,0.0,0.0,0.0,0.0,0.0,0.0,0.0,0.0,0.0,0.0,0.0,0.0,0.0,0.0,0.0,0.0,0.0,0.0,0.0,0.0,0.0,0.0,0.0,0.0,0.0,0.0,0.0,0.0,0.0,0.0,0.0,0.0,0.0,0.0,0.0,0.0,0.0,0.0,0.0,0.0,0.0,0.0,0.0,0.0,0.0,0.0,0.0,0.0,0.0,0.0,0.0,0.0,0.0,0.0,0.0,0.0,0.0,0.0,0.0,0.0,0.0,0.0,0.0,0.0,0.0,0.0,0.0,0.0,0.0,0.0,-3.4011,-3.3934,0.0,0.0,0.0,0.0,0.0,0.0,0.0,0.0,0.0,0.0,0.0,0.0,0.0,0.0,0.0,0.0,0.0,0.0,0.0,0.0,0.0,0.0,0.0,-2.3573,-2.3518,-2.3518,-2.3265,-2.3156,-2.3265,-2.3313,-2.3377,-2.3504,-2.4338,-2.4857,-2.5012,-2.6476,-2.7387,-2.7691,-2.8747,-2.9283,-2.9355,-2.9386,-2.9429,0.0,0.0,0.0,0.0,0.0,0.0,0.0,0.0,0.0,0.0,0.0,0.0,0.0,0.0,0.0,0.0,0.0,0.0,0.0,0.0,0.0,0.0,0.0,0.0,0.0,0.0,0.0,0.0,0.0,0.0,0.0,0.0,0.0,0.0,0.0,0.0,0.0,0.0,0.0,0.0,0.0,0.0,0.0,0.0,0.0,0.0,0.0,0.0,0.0,0.0,0.0,0.0,0.0,0.0,0.0,0.0,0.0,0.0,0.0,0.0,0.0,0.0,0.0,0.0,0.0,-3.4705,-3.4486,-3.4431,-3.4005,-3.3807,-3.3807,-3.3807,-3.3807,-3.3807,-3.3807,0.0,0.0,0.0,0.0,0.0,0.0,0.0,0.0,0.0,0.0,0.0,0.0,0.0,0.0,0.0,0.0,0.0,0.0,0.0,0.0,0.0,-2.3175,-2.3163,-2.3163,-2.3126,-2.3119,-2.3132,-2.3342,-2.3481,-2.3504,-2.3797,-2.4298,-2.507,-2.5321,-2.6155,-2.7616,-2.8628,-2.9141,-2.9134,-2.9315,-2.9407,-2.9409,-2.9589,0.0,0.0,0.0,0.0,0.0,0.0,0.0,0.0,0.0,0.0,0.0,0.0,0.0,0.0,0.0,0.0,0.0,0.0,0.0,0.0,0.0,0.0,0.0,0.0,0.0,0.0,0.0,0.0,0.0,0.0,0.0,0.0,0.0,0.0,0.0,0.0,0.0,0.0,0.0,0.0,0.0,0.0,0.0,-3.3278,-3.3373,0.0,0.0,0.0,0.0,0.0,0.0,0.0,0.0,0.0,0.0,0.0,0.0,0.0,-3.5209,-3.5209,-3.5209,-3.5107,-3.4945,-3.4643,-3.4416,-3.4227,-3.3934,-3.3807,-3.3807,-3.3807,0.0,-3.3807,-3.3807,0.0,0.0,0.0,0.0,0.0,0.0,0.0,0.0,0.0,0.0,0.0,0.0,0.0,0.0,0.0,0.0,0.0,0.0,0.0,0.0,0.0,-2.3265,-2.3217,-2.3217,-2.3126,-2.3132,-2.3205,-2.3307,-2.3412,-2.3499,-2.3582,-2.3811,-2.4197,-2.474,-2.5877,-2.7604,-2.8496,-2.8934,-2.8934,-2.9014,-2.9123,-2.924,-2.9289,-2.9474,-2.9732,-2.9915,0.0,0.0,0.0,0.0,0.0,0.0,0.0,0.0,0.0,0.0,0.0,0.0,0.0,0.0,0.0,0.0,0.0,0.0,0.0,0.0,0.0,0.0,0.0,0.0,0.0,0.0,0.0,0.0,0.0,0.0,0.0,0.0,0.0,0.0,0.0,0.0,0.0,0.0,0.0,-3.3886,-3.4315,-3.4802,-3.486,-3.4792,0.0,0.0,0.0,0.0,0.0,0.0,0.0,0.0,0.0,-3.596,-3.5954,-3.6137,-3.6604,-3.6471,-3.635,-3.6234,-3.5852,-3.5622,-3.5546,-3.5307,-3.5202,-3.5202,-3.5202,-3.5202,-3.5128,-3.4192,-3.3807,-3.3807,0.0,0.0,0.0,0.0,-3.3666,-3.3437,0.0,0.0,0.0,0.0,0.0,0.0,0.0,0.0,0.0,0.0,0.0,0.0,-2.3505,-2.3407,-2.3348,-2.3348,-2.3265,-2.3241,-2.3336,-2.3348,-2.3413,-2.3494,-2.3505,-2.3505,-2.3505,-2.4626,-2.6037,-2.7749,-2.8615,-2.9131,-2.93,-2.935,-2.9502,-2.9715,-2.9715,-2.9646,-2.9561,-2.9751,-2.9883,0.0,0.0,0.0,0.0,0.0,0.0,0.0,0.0,0.0,0.0,0.0,0.0,0.0,0.0,0.0,0.0,0.0,0.0,0.0,0.0,0.0,0.0,0.0,0.0,0.0,0.0,0.0,0.0,0.0,0.0,0.0,0.0,0.0,0.0,0.0,0.0,0.0,0.0,-3.5037,-3.5271,-3.5914,-3.5985,-3.589,0.0,0.0,0.0,0.0,0.0,0.0,-3.5618,-3.5777,-3.6269,-3.7111,-3.692,-3.7196,-3.8018,-3.7537,-3.7294,-3.7284,-3.682,-3.6604,-3.6591,-3.6394,-3.6303,-3.6303,-3.6303,-3.6303,-3.6193,-3.4706,-3.4119,-3.41,-3.388,-3.3807,-3.3807,-3.3807,-3.3652,-3.3422,0.0,0.0,0.0,0.0,0.0,0.0,0.0,0.0,0.0,0.0,0.0,-2.3505,-2.3505,-2.3494,-2.3494,-2.3494,-2.3494,-2.3494,-2.3494,-2.3494,-2.3494,-2.3505,-2.3505,-2.3505,-2.3505,-2.498,-2.6545,-2.8169,-2.917,-3.0022,-3.0694,-3.0884,-3.113,-3.1378,-3.1378,-3.0648,-2.9409,-2.9561,-2.9626,-2.9635,0.0,0.0,0.0,0.0,0.0,0.0,0.0,0.0,0.0,0.0,0.0,0.0,0.0,0.0,0.0,0.0,0.0,0.0,0.0,0.0,0.0,0.0,0.0,0.0,0.0,0.0,0.0,0.0,0.0,0.0,0.0,0.0,0.0,0.0,0.0,0.0,0.0,0.0,0.0,-3.5992,-3.5942,0.0,0.0,0.0,0.0,-3.542,-3.6105,-3.6508,-3.6449,-3.7226,-3.8042,-3.8858,-3.8075,-3.8056,-3.8935,-3.7841,-3.7294,-3.7284,-3.682,-3.6604,-3.6591,-3.6394,-3.6303,-3.6303,-3.6303,-3.6303,-3.6229,-3.5316,-3.4949,-3.4857,-3.41,-3.3807,-3.3807,-3.3807,-3.3793,-3.3721,0.0,0.0,0.0,0.0,0.0,0.0,0.0,0.0,-2.3571,-2.3571,-2.3522,-2.3505,-2.3505,-2.3505,-2.3505,-2.3505,-2.3505,-2.3436,-2.3253,-2.3395,-2.3418,-2.3253,-2.3904,-2.4748,-2.5729,-2.6787,-2.7874,-2.8962,-2.9815,-3.036,-3.061,-3.0683,-3.0838,-3.1056,-3.1056,-3.0941,-3.0722,-3.0395,-2.9989,-2.9608,-2.9681,-2.9809,0.0,0.0,0.0,0.0,0.0,0.0,0.0,0.0,0.0,0.0,0.0,0.0,0.0,0.0,0.0,0.0,0.0,0.0,0.0,0.0,0.0,0.0,0.0,0.0,0.0,0.0,0.0,0.0,0.0,0.0,0.0,0.0,0.0,0.0,0.0,0.0,0.0,-3.5992,-3.594,0.0,-3.6438,-3.6424,-3.6562,-3.6976,-3.779,-3.7996,-3.7368,-3.8642,-3.9534,-3.9833,-4.0043,-4.0559,-4.1437,-4.0864,-4.0574,-4.0574,-4.0018,-3.9751,-3.9751,-3.9503,-3.9405,-3.9405,-3.9405,-3.9111,-3.8542,-3.7734,-3.6765,-3.5807,-3.5514,-3.5404,-3.533,-3.4784,-3.4434,-3.4157,0.0,0.0,0.0,0.0,0.0,0.0,0.0,0.0,-2.3505,-2.3505,-2.3407,-2.336,-2.336,-2.3489,-2.3569,-2.3569,-2.3786,-2.3857,-2.3676,-2.3831,-2.3857,-2.3676,-2.4598,-2.5707,-2.7007,-2.7918,-2.8915,-2.9976,-3.0594,-3.1046,-3.1314,-3.1314,-3.1416,-3.1618,-3.1618,-3.1669,-3.1757,-3.1431,-3.0775,-2.9934,-2.9934,-2.987,-2.9803,0.0,0.0,0.0,0.0,0.0,0.0,0.0,0.0,0.0,0.0,0.0,0.0,0.0,0.0,0.0,0.0,0.0,0.0,0.0,0.0,0.0,0.0,0.0,0.0,0.0,0.0,0.0,0.0,0.0,0.0,0.0,0.0,0.0,0.0,-3.6246,-3.6441,-3.6441,-3.684,-3.7171,-3.735,-3.7572,-3.7859,-3.83,-3.9098,-3.9438,-3.911,-4.0385,-4.1275,-4.1542,-4.18,-4.2354,-4.3195,-4.268,-4.2351,-4.2238,-4.173,-4.1449,-4.1366,-4.1172,-4.1095,-4.1095,-4.1095,-4.0799,-4.0249,-3.9441,-3.8487,-3.7422,-3.6615,-3.6303,-3.6229,-3.5646,-3.5294,-3.5011,0.0,0.0,0.0,0.0,0.0,0.0,0.0,-2.3594,-2.3505,-2.3505,-2.3265,-2.3107,-2.3107,-2.3449,-2.3705,-2.3705,-2.4365,-2.4815,-2.4783,-2.4815,-2.4815,-2.4866,-2.5575,-2.6347,-2.7185,-2.8279,-2.9604,-3.1144,-3.1554,-3.2155,-3.2955,-3.2955,-3.3046,-3.3226,-3.3226,-3.2893,-3.2356,-3.2619,-3.1918,-3.0649,-3.0623,-3.0209,-2.9636,0.0,0.0,0.0,0.0,0.0,0.0,0.0,0.0,0.0,0.0,0.0,0.0,0.0,0.0,0.0,0.0,0.0,0.0,0.0,0.0,0.0,0.0,0.0,0.0,0.0,0.0,0.0,0.0,0.0,0.0,0.0,0.0,0.0,-3.6031,-3.6774,-3.7321,-3.7379,-3.8634,-3.9213,-3.8499,-3.8942,-3.9288,-3.9319,-4.0004,-4.0775,-4.1608,-4.2432,-4.3214,-4.3987,-4.3271,-4.3252,-4.4025,-4.3003,-4.2325,-4.1993,-4.1707,-4.1455,-4.1185,-4.1185,-4.1168,-4.1168,-4.1168,-4.115,-4.1077,-4.0304,-3.9937,-3.9662,-3.7294,-3.6376,-3.6376,-3.634,-3.6303,-3.6183,0.0,0.0,0.0,0.0,0.0,0.0,0.0,-2.3594,-2.3505,-2.3505,-2.3265,-2.3107,-2.3107,-2.3449,-2.3705,-2.3705,-2.4365,-2.4726,-2.4516,-2.4697,-2.5296,-2.6428,-2.717,-2.82,-2.9541,-2.9868,-3.0785,-3.2326,-3.2436,-3.3071,-3.4129,-3.4129,-3.4039,-3.3856,-3.3856,-3.3517,-3.2951,-3.3042,-3.2616,-3.1836,-3.0957,-3.0488,-3.0261,0.0,0.0,0.0,0.0,0.0,0.0,0.0,0.0,0.0,0.0,0.0,0.0,0.0,0.0,0.0,0.0,0.0,0.0,0.0,0.0,0.0,0.0,0.0,0.0,0.0,0.0,0.0,0.0,0.0,0.0,0.0,-3.6931,-3.6931,-3.6931,-3.7145,-3.775,-3.8961,-3.9335,-3.9883,-4.0893,-4.1047,-4.133,-4.192,-4.2727,-4.3009,-4.2573,-4.3896,-4.446,-4.4006,-4.4399,-4.4723,-4.4934,-4.4652,-4.4327,-4.4008,-4.3735,-4.3457,-4.3196,-4.2954,-4.2837,-4.2837,-4.2837,-4.2506,-4.1956,-4.1735,-4.0946,-3.9772,-3.8524,-3.8046,-3.7973,-3.7401,-3.6614,-3.581,0.0,0.0,0.0,0.0,0.0,0.0,0.0,-2.3594,-2.3505,-2.3505,-2.3265,-2.3052,-2.2935,-2.3288,-2.3616,-2.381,-2.4506,-2.4987,-2.5129,-2.5579,0.0,0.0,0.0,-2.9281,-3.047,-3.098,-3.179,-3.3006,-3.3184,-3.3619,-3.4318,-3.4505,-3.4497,-3.4287,-3.4156,-3.3895,-3.3555,-3.3304,-3.3027,-3.266,-3.1733,-3.1198,-3.0902,-3.0182,-2.9898,-2.9863,-2.9613,-2.9522,-2.9522,-2.9645,0.0,0.0,0.0,0.0,0.0,0.0,0.0,0.0,0.0,0.0,0.0,0.0,0.0,0.0,0.0,0.0,0.0,0.0,0.0,0.0,0.0,0.0,0.0,0.0,-3.7614,-3.8082,-3.8785,-3.8882,-3.9253,-4.0229,-4.1156,-4.1954,-4.2533,-4.2795,-4.31,-4.3502,-4.4021,-4.4207,-4.4008,-4.4882,-4.5141,-4.4603,-4.5082,-4.5339,-4.5338,-4.5338,-4.5173,-4.4788,-4.4519,-4.4265,-4.3989,-4.3649,-4.3515,-4.3515,-4.3515,-4.3222,-4.2782,-4.2433,-4.1754,-4.0781,0.0,0.0,0.0,0.0,-3.7447,-3.666,0.0,0.0,0.0,0.0,0.0,0.0,0.0,-2.3605,-2.3505,-2.3505,-2.3265,-2.3003,-2.2769,-2.3084,-2.3495,-2.3999,-2.4696,-2.5458,-2.627,-2.7017,0.0,-2.8475,-2.9251,-2.9943,-3.0605,-3.1696,-3.2626,-3.3351,-3.371,-3.3965,-3.4112,-3.4521,-3.4715,-3.4703,-3.4411,-3.4208,-3.4062,-3.3535,-3.325,-3.3136,-3.2668,-3.2148,-3.1568,-3.0932,-3.0657,-3.0511,-2.9787,-2.9471,-2.9396,-2.9396,0.0,0.0,0.0,0.0,0.0,0.0,0.0,0.0,0.0,0.0,0.0,0.0,0.0,0.0,0.0,0.0,0.0,0.0,0.0,0.0,0.0,0.0,0.0,0.0,-3.8318,-3.943,-4.1012,-4.1422,-4.1539,-4.1539,-4.3465,-4.4507,-4.3748,-4.4278,-4.4583,-4.4468,-4.4455,-4.4755,-4.5465,-4.5438,0.0,0.0,0.0,-4.54,-4.5408,-4.5408,-4.5205,-4.4788,-4.4519,-4.4265,-4.3989,-4.3649,-4.3515,-4.3515,-4.3515,-4.3515,-4.3441,-4.2727,-4.2378,-4.2139,-4.0524,-3.9405,-3.8707,-3.8707,-3.8451,-3.8051,0.0,0.0,0.0,0.0,0.0,0.0,0.0,-2.3682,-2.3505,-2.3505,-2.3265,-2.3077,-2.3028,-2.3196,-2.3585,-2.4267,-2.4796,-2.5673,-2.7,0.0,-2.8492,-2.9185,-3.0472,-3.1234,-3.1383,-3.2187,-3.2962,-3.3694,-3.3784,-3.4314,-3.5263,-3.5351,-3.5449,-3.5475,-3.541,-3.4907,-3.4097,-3.3986,-3.3554,-3.2959,-3.3013,-3.2816,-3.2385,-3.163,-3.1027,-3.0586,-3.0418,-2.9954,-2.9396,-2.9396,-2.9482,-2.9608,-2.9653,0.0,0.0,0.0,0.0,0.0,0.0,0.0,0.0,0.0,0.0,0.0,0.0,0.0,0.0,0.0,0.0,0.0,0.0,0.0,0.0,-3.9099,-4.0054,-4.0973,-4.2006,-4.3352,-4.425,-4.425,-4.4577,-4.4955,-4.5385,-4.5499,-4.5491,-4.5353,-4.5355,-4.5386,-4.5485,-4.5495,-4.5467,-4.541,-4.54,-4.54,-4.5408,-4.5408,-4.5205,-4.4788,-4.4519,0.0,-4.3989,-4.3649,-4.3515,-4.3515,-4.3515,-4.3515,-4.3496,-4.3331,-4.2892,-4.2139,-4.0524,-3.9405,-3.8707,-3.8707,-3.8451,-3.8051,0.0,0.0,0.0,0.0,0.0,0.0,0.0,-2.3761,-2.3582,-2.3517,-2.3383,-2.3205,-2.294,-2.2965,-2.3172,-2.3621,-2.4531,-2.5872,0.0,-2.8194,-2.8873,-2.991,-3.1002,-3.1763,-3.215,-3.2862,-3.3607,-3.4336,-3.4336,-3.4659,-3.5247,-3.5498,-3.5633,-3.5645,-3.5686,-3.5395,-3.4854,-3.411,-3.3681,-3.3455,-3.2944,-3.2832,-3.2894,-3.2203,-3.1513,-3.0869,-3.0519,-2.9906,-2.9262,-2.9376,-2.9431,-2.9512,-2.957,-2.9741,-2.9931,0.0,0.0,0.0,0.0,0.0,0.0,0.0,0.0,0.0,0.0,0.0,0.0,0.0,0.0,-3.6077,-3.6988,0.0,-3.85,-4.0172,-4.1186,-4.2201,-4.3528,-4.4444,-4.499,-4.499,-4.5323,-4.5673,-4.597,-4.5903,-4.5815,-4.5715,-4.5646,-4.5586,-4.5559,-4.5559,-4.5522,-4.5504,-4.5504,-4.5476,-4.5448,-4.5419,-4.53,-4.5109,-4.477,-4.4519,-4.4388,-4.3952,-4.3749,-4.3749,-4.3565,-4.3515,-4.3515,-4.3515,-4.302,-4.2176,-4.0965,-4.001,-3.9239,-3.8854,-3.8451,-3.8051,0.0,0.0,0.0,0.0,0.0,0.0,0.0,-2.3827,-2.3646,-2.3528,-2.3505,-2.3336,-2.291,-2.2769,-2.2754,-2.2886,-2.4249,0.0,0.0,-2.8243,-2.8953,-3.0224,-3.1267,-3.21,-3.2702,-3.3557,-3.4286,-3.4899,-3.4899,-3.4899,-3.4923,-3.5287,-3.5504,-3.5599,-3.5655,-3.5562,-3.5292,-3.4104,-3.3618,-3.356,-3.2667,-3.2587,-3.2978,-3.2455,-3.1829,-3.1138,-3.0583,-2.9834,-2.9112,-2.9283,-2.9376,-2.9409,-2.9541,-2.9662,-2.9811,-2.9992,-3.0176,0.0,0.0,0.0,0.0,0.0,0.0,0.0,0.0,-3.5568,-3.5704,-3.5704,-3.5897,-3.6316,-3.7188,-3.8162,-3.9383,-4.1077,-4.2087,-4.3196,-4.4776,-4.5148,-4.5246,-4.5246,-4.587,-4.6245,-4.6109,-4.5983,-4.5875,-4.5814,-4.5676,-4.5594,-4.5594,-4.5594,-4.5594,-4.5594,-4.5594,-4.5568,-4.5504,-4.5438,-4.541,-4.5398,-4.5023,-4.48,-4.4776,-4.4236,-4.4005,-4.3989,-4.3649,-4.3515,-4.3515,-4.3515,-4.3112,-4.2451,-4.1662,-4.0836,-4.001,-3.9056,-3.8499,-3.8152,0.0,0.0,0.0,0.0,0.0,0.0,0.0,0.0,-2.3646,-2.3528,-2.3505,-2.3482,-2.3407,-2.2985,-2.2754,-2.2886,0.0,0.0,-2.6402,-2.7661,-2.874,-2.9479,-3.1487,-3.2619,-3.2702,-3.4054,-3.4816,-3.4899,-3.4899,-3.4899,-3.4899,-3.4954,-3.5195,-3.5594,-3.562,-3.5095,-3.4187,-3.4014,-3.317,-3.1998,-3.2214,-3.2335,-3.2349,-3.1945,-3.1546,-3.1198,-3.112,-3.0222,-2.9089,-2.913,-2.9251,-2.9407,-2.9427,-2.9559,-2.9719,-2.9811,0.0,-3.0166,-3.0279,-3.1,-3.1761,-3.2028,-3.3247,-3.4432,0.0,-3.5148,-3.5704,-3.5704,-3.6362,-3.7218,-3.8082,-3.9028,-4.0232,-4.197,-4.2994,-4.3899,-4.4855,-4.5675,-4.6144,-4.6144,-4.6241,-4.6245,-4.6109,-4.5983,-4.5875,-4.5814,-4.5676,-4.5594,-4.5594,-4.5594,-4.5594,-4.5594,-4.5594,-4.5568,-4.5504,-4.5495,-4.5467,-4.5398,-4.5049,-4.4868,-4.4776,-4.4236,-4.4005,-4.3989,-4.3649,-4.3515,-4.3515,-4.3515,-4.346,-4.3277,-4.2488,-4.168,-4.0783,-3.9258,-3.8658,-3.858,0.0,0.0,0.0,0.0,0.0,0.0,0.0,0.0,0.0,-2.3528,-2.3505,-2.3383,-2.306,-2.2514,-2.2358,-2.2855,0.0,0.0,-2.6086,-2.6783,-2.781,-2.933,-3.0709,-3.162,-3.205,-3.3077,-3.3607,-3.3607,-3.3607,-3.3607,-3.3607,-3.3607,-3.3727,-3.3913,-3.4199,-3.4075,-3.3612,-3.3188,-3.2779,-3.2334,-3.1829,-3.16,-3.1581,-3.1395,-3.0858,-3.0165,-3.0301,-2.965,0.0,0.0,-2.9163,-2.9251,-2.9401,-2.9569,-2.971,-2.978,-2.9937,0.0,-3.0317,-3.0639,-3.1075,-3.1656,-3.272,-3.3789,-3.4278,-3.5071,-3.582,-3.6303,-3.6739,-3.7478,-3.8906,-3.9472,-4.0485,-4.2772,-4.3452,-4.4188,-4.556,-4.6066,-4.63,-4.63,-4.63,-4.6275,-4.6216,-4.6098,-4.5969,-4.5877,-4.5773,-4.5684,-4.5594,-4.5594,-4.5594,-4.5594,-4.5594,-4.5586,-4.5559,-4.5513,-4.5495,-4.5458,-4.5272,-4.5074,-4.4856,-4.4452,-4.4072,-4.3699,-4.3548,-4.3515,-4.3515,-4.3515,-4.3515,-4.3423,-4.2598,-4.1809,-4.0948,-3.9827,-3.9093,-3.8643,0.0,0.0,0.0,0.0,0.0,0.0,0.0,0.0,0.0,0.0,-2.3505,-2.3313,-2.2769,-2.2309,-2.2204,0.0,0.0,0.0,0.0,-2.5854,-2.6881,-2.8453,-2.9777,-3.0754,-3.1283,-3.2216,-3.2702,-3.2702,-3.2702,-3.2702,-3.2702,-3.2702,-3.2702,-3.2702,-3.3074,-3.3085,-3.2866,-3.2332,-3.2221,-3.232,-3.1321,-3.1005,-3.1072,-3.0765,-3.0107,-2.9419,-2.9551,-2.9143,0.0,0.0,-2.901,-2.9134,-2.9351,-2.955,-2.9701,-2.9782,-2.9916,-3.009,-3.0304,-3.0531,-3.0887,-3.1612,-3.2643,-3.3615,-3.4258,-3.5071,-3.5936,-3.6729,-3.7148,-3.7836,-3.9393,-3.9878,-4.0855,-4.3281,-4.3691,-4.4311,-4.6049,-4.63,-4.63,-4.63,-4.63,-4.63,-4.63,-4.6178,-4.6057,-4.5949,-4.5866,-4.5757,-4.5651,-4.562,-4.5594,-4.5594,-4.5594,-4.5594,-4.5594,-4.5559,-4.5513,-4.5504,-4.5448,-4.5302,-4.503,-4.4657,-4.4169,-4.3632,-4.3531,-4.3515,-4.3515,-4.3515,-4.3515,-4.3441,-4.2855,-4.2139,-4.1315,-4.0524,-3.9588,-3.8676,0.0,0.0,0.0,0.0,0.0,0.0,0.0,0.0,0.0,0.0,0.0,0.0,0.0,0.0,0.0,0.0,0.0,0.0,0.0,-2.5011,-2.6219,-2.6285,-2.8999,-3.0506,-3.0522,-3.1951,-3.2702,-3.2702,-3.2702,-3.2702,-3.2702,-3.2702,-3.2702,-3.2702,-3.2702,-3.2321,-3.1653,-3.1636,-3.1441,-3.1128,-3.0687,-3.0751,-3.0965,-2.9864,-2.9426,-2.9405,-2.9405,0.0,0.0,0.0,-2.8785,-2.9112,-2.9195,-2.9443,0.0,-2.9782,-2.9849,-2.9961,-3.024,-3.0874,-3.152,-3.1732,-3.3093,-3.4374,-3.4394,-3.5071,-3.5936,-3.6729,-3.763,-3.8544,-3.9441,-4.0357,-4.1542,-4.3318,-4.3651,-4.4311,-4.6049,-4.63,-4.63,-4.63,-4.63,-4.63,-4.63,-4.6178,-4.6098,-4.6098,-4.5914,-4.58,-4.58,-4.5668,-4.5594,-4.5594,-4.5594,-4.5594,-4.5594,-4.5594,-4.5568,-4.5504,-4.5495,-4.5467,-4.5362,-4.4757,-4.4303,-4.3974,-4.3632,-4.3515,-4.3515,-4.3515,-4.3515,-4.3515,-4.3478,-4.2965,-4.2176,-4.1352,-4.0049,-3.8707,0.0,0.0,0.0,0.0,0.0,0.0,0.0,0.0,0.0,0.0,0.0,0.0,0.0,0.0,0.0,0.0,0.0,0.0,0.0,-2.3603,-2.4679,-2.6136,-2.7129,-2.8125,-2.9085,-2.9602,-2.9851,-2.9851,-2.9851,-2.9851,-2.9851,-2.9851,-2.9851,-2.9851,-2.9851,-2.9718,-2.9483,-2.9483,-2.9417,-2.9287,-2.9154,-2.8849,-2.8463,-2.8608,-2.83,-2.787,0.0,0.0,0.0,-2.8458,-2.8582,-2.8743,-2.9,-2.928,-2.9541,-2.9779,-2.9872,-3.007,-3.0822,-3.1228,-3.1611,-3.2351,-3.34,-3.4291,-3.4378,-3.5071,-3.5936,-3.6729,-3.7616,-3.8515,-3.943,-4.0329,-4.1524,-4.3317,-4.3658,-4.4316,-4.6049,-4.6291,-4.63,-4.63,-4.63,-4.63,-4.63,-4.6269,-4.6206,-4.6105,-4.5949,-4.5847,-4.5787,-4.5668,-4.5594,-4.5594,-4.5594,-4.5594,-4.5594,-4.5594,-4.5586,-4.5568,-4.5342,-4.5222,-4.5191,-4.4745,-4.435,-4.3989,-4.3865,-4.371,-4.3515,-4.3515,-4.3515,-4.3515,-4.3515,-4.3002,-4.2194,-4.1389,-4.0432,-3.9423,0.0,0.0,0.0,0.0,0.0,0.0,0.0,0.0,0.0,0.0,0.0,0.0,0.0,0.0,0.0,0.0,0.0,0.0,0.0,0.0,-2.3537,-2.4961,-2.5541,-2.6369,-2.7578,-2.7879,-2.8127,-2.8392,-2.8392,-2.8392,-2.8392,-2.8392,-2.8392,-2.8392,-2.8392,-2.8392,-2.8392,-2.8392,-2.8472,-2.8538,-2.8002,-2.7554,-2.7162,-2.7126,-2.6819,0.0,0.0,0.0,0.0,-2.8156,-2.8445,-2.8556,-2.8802,-2.9169,-2.9532,-2.9822,-2.9897,-3.0111,-3.1138,-3.1607,-3.2061,-3.3044,-3.3948,-3.4635,-3.4766,-3.5234,-3.5863,-3.6723,-3.7348,-3.8114,-3.934,-4.0033,-4.1018,-4.2789,-4.3407,-4.4169,-4.5605,-4.6087,-4.6291,-4.6302,-4.63,-4.63,-4.63,-4.63,-4.6251,-4.6178,-4.6049,-4.5934,-4.5848,-4.5723,-4.5643,-4.5594,-4.5594,-4.5594,-4.5594,-4.5594,-4.5594,-4.5594,-4.5371,-4.5282,-4.5232,-4.4919,-4.4618,-4.4318,-4.4087,-4.3884,-4.3666,-4.3548,-4.3515,-4.3515,-4.3515,-4.3167,-4.2598,-4.1515,-4.0781,-4.0212,0.0,0.0,0.0,0.0,0.0,0.0,0.0,0.0,0.0,0.0,0.0,0.0,0.0,0.0,0.0,0.0,0.0,0.0,0.0,0.0,0.0,-2.2891,-2.4249,-2.5325,-2.607,-2.6768,-2.7464,-2.8177,-2.8177,-2.8177,-2.8177,-2.8177,-2.8177,-2.8177,-2.8177,-2.8177,-2.8177,-2.8177,-2.8373,-2.8554,-2.7131,-2.677,-2.6963,-2.5527,0.0,0.0,0.0,0.0,0.0,-2.7607,-2.8304,-2.8525,-2.8682,-2.9132,-2.9644,-2.9847,-2.9934,-3.0186,-3.1188,-3.2046,-3.2878,-3.3826,-3.468,-3.5338,-3.5463,-3.5509,-3.5746,-3.6654,-3.6864,-3.7406,-3.9056,-3.9495,-4.0126,-4.1779,-4.2909,-4.3897,-4.4782,-4.5703,-4.6303,-4.6305,-4.6302,-4.63,-4.63,-4.63,-4.63,-4.63,-4.6178,-4.6049,-4.5915,-4.5848,-4.5734,-4.5612,-4.5594,-4.5594,-4.5594,-4.5594,-4.5594,-4.5594,-4.5594,-4.5568,-4.5495,-4.5243,-4.5041,-4.4872,-4.4304,-4.4053,-4.3986,-4.3666,-4.3532,-4.3513,-4.3515,-4.3515,-4.3296,-4.1754,-4.1132,-4.0985,0.0,0.0,0.0,0.0,0.0,0.0,0.0,0.0,0.0,0.0,0.0,0.0,0.0,0.0,0.0,0.0,0.0,0.0,0.0,0.0,0.0,0.0,0.0,0.0,0.0,0.0,0.0,0.0,0.0,-2.511,-2.511,-2.511,-2.511,-2.511,-2.511,-2.511,-2.511,-2.511,-2.5297,-2.5493,0.0,-2.4664,-2.4629,0.0,0.0,0.0,0.0,0.0,0.0,0.0,-2.7905,-2.8694,-2.8975,-2.9326,-2.9644,-2.9847,-3.0351,-3.1061,-3.191,-3.2781,-3.3633,-3.4579,-3.4994,-3.5211,-3.5443,-3.5509,-3.5592,-3.5938,-3.6477,-3.7038,-3.7483,-3.8681,-3.9931,-4.0965,-4.2513,-4.3897,-4.4777,-4.5719,-4.6306,-4.6304,-4.6293,-4.63,-4.63,-4.63,-4.63,-4.63,-4.6178,-4.6091,-4.6053,-4.5896,-4.5786,-4.5749,-4.5643,-4.5594,-4.5594,-4.5594,-4.5594,-4.5594,-4.5594,-4.5586,-4.5577,-4.5504,-4.5302,-4.4973,-4.4806,-4.4567,-4.4294,-4.4002,-4.3878,-4.3846,-4.3599,-4.3515,-4.3386,-4.2378,-4.1625,-4.1058,0.0,0.0,0.0,0.0,0.0,0.0,0.0,0.0,0.0,0.0,0.0,0.0,0.0,0.0,0.0,0.0,0.0,0.0,0.0,0.0,0.0,0.0,0.0,0.0,0.0,0.0,0.0,0.0,0.0,0.0,0.0,-2.4,-2.4,-2.4,-2.4,-2.4,-2.4,0.0,0.0,0.0,0.0,0.0,0.0,0.0,0.0,0.0,0.0,0.0,0.0,0.0,0.0,-2.8795,-2.9093,-2.9377,-2.9719,-3.0301,-3.0825,-3.145,-3.2653,-3.3335,-3.3903,-3.4782,-3.5009,-3.507,-3.5281,-3.5381,-3.5443,-3.559,-3.6024,-3.6477,-3.6826,-3.8034,-3.9262,-4.0081,-4.2078,-4.3674,-4.4171,-4.5386,-4.6224,-4.625,-4.6284,-4.6293,-4.6302,-4.63,-4.63,-4.63,-4.6238,-4.615,-4.6102,-4.5988,-4.5891,-4.5807,-4.5739,-4.5651,-4.5594,-4.5594,-4.5594,-4.5594,-4.5594,-4.5594,-4.5594,-4.5594,-4.5448,-4.5211,-4.5096,-4.4884,-4.4599,-4.4332,-4.4192,-4.4151,-4.3844,-4.3716,-4.3588,-4.2649,-4.1791,-4.104,0.0,0.0,0.0,0.0,0.0,0.0,0.0,0.0,0.0,0.0,0.0,0.0,0.0,0.0,0.0,0.0,0.0,0.0,0.0,0.0,0.0,0.0,0.0,0.0,0.0,0.0,0.0,0.0,0.0,0.0,0.0,0.0,0.0,0.0,0.0,0.0,0.0,0.0,0.0,0.0,0.0,0.0,0.0,0.0,0.0,0.0,0.0,0.0,0.0,0.0,-2.7349,-2.8895,-2.9144,-2.9415,-2.985,-3.0896,-3.128,-3.1705,-3.3278,-3.3771,-3.4036,-3.4737,-3.4908,-3.4945,-3.507,-3.5203,-3.5345,-3.5463,-3.5608,-3.5916,-3.6613,-3.7444,-3.8315,-3.9191,0.0,-4.3147,-4.3374,-4.4872,-4.6002,-4.6166,-4.625,-4.6303,-4.6303,-4.63,-4.63,-4.63,-4.63,-4.6245,-4.6138,-4.6105,-4.6007,-4.5822,-4.5794,-4.5742,-4.5629,-4.5603,-4.5594,-4.5594,-4.5594,-4.5594,-4.5594,-4.5594,-4.5568,-4.5495,-4.5253,-4.5085,-4.4931,-4.4637,-4.4479,-4.4369,-4.406,-4.3942,-4.3802,-4.2826,-4.1882,-4.1003,0.0,0.0,0.0,0.0,0.0,0.0,0.0,0.0,0.0,0.0,-2.2982,-2.299,0.0,0.0,0.0,0.0,0.0,0.0,0.0,0.0,0.0,0.0,0.0,0.0,0.0,0.0,0.0,0.0,0.0,0.0,0.0,0.0,0.0,0.0,0.0,0.0,0.0,0.0,0.0,0.0,0.0,0.0,0.0,0.0,0.0,0.0,0.0,0.0,0.0,0.0,-2.7592,-2.9155,-2.9251,-2.9551,-3.0026,-3.093,-3.1659,-3.2406,-3.343,-3.4188,-3.4737,-3.487,-3.4908,-3.4945,-3.507,-3.5203,0.0,-3.5463,-3.5608,-3.5742,-3.5878,-3.6574,-3.7406,-3.8276,-4.0018,-4.1754,-4.32,-4.4398,-4.535,0.0,-4.6229,-4.6303,-4.6303,-4.63,-4.63,-4.63,-4.63,-4.6298,-4.6271,-4.615,-4.6037,-4.5897,-4.5829,-4.5793,-4.5764,-4.5671,-4.5594,-4.5594,-4.5594,-4.5594,-4.5594,-4.5594,-4.5568,-4.5495,-4.5448,-4.539,-4.5282,-4.4776,-4.4533,-4.4425,-4.3889,-4.3632,-4.3546,-4.3367,-4.2359,-4.1077,0.0,0.0,0.0,0.0,0.0,0.0,0.0,-2.3312,-2.3128,-2.2842,-2.2803,-2.2863,-2.3082,-2.2932,0.0,0.0,0.0,0.0,0.0,0.0,0.0,0.0,0.0,0.0,0.0,0.0,0.0,0.0,0.0,0.0,0.0,0.0,0.0,0.0,0.0,0.0,0.0,0.0,0.0,0.0,0.0,0.0,0.0,0.0,0.0,0.0,0.0,0.0,0.0,0.0,-2.7488,-2.9137,-2.9377,-2.9662,-3.0143,-3.145,-3.2094,-3.2682,-3.3979,-3.4605,-3.4908,-3.4908,-3.4908,-3.4927,-3.4982,0.0,0.0,-3.4798,-3.5201,-3.5479,-3.5099,-3.6052,-3.7193,-3.8057,-3.966,-4.1232,-4.2485,-4.3903,-4.4951,-4.5372,-4.5881,-4.6211,-4.6291,-4.6303,-4.63,-4.63,-4.63,-4.63,-4.63,-4.6176,-4.6064,-4.6,-4.5917,-4.5841,-4.5807,-4.5734,-4.5668,-4.5594,-4.5594,-4.5594,-4.5594,-4.5594,-4.5577,-4.5559,-4.5559,-4.5513,-4.5429,-4.5161,-4.503,-4.4919,-4.4337,-4.4099,-4.3967,-4.3217,-4.2169,-4.1087,0.0,0.0,0.0,0.0,0.0,0.0,0.0,-2.3265,-2.3047,-2.2751,-2.2699,-2.2777,-2.2995,-2.2855,-2.279,0.0,0.0,0.0,0.0,0.0,0.0,0.0,0.0,0.0,0.0,0.0,0.0,-2.2001,0.0,0.0,0.0,0.0,0.0,0.0,0.0,0.0,0.0,0.0,0.0,0.0,0.0,0.0,0.0,0.0,0.0,0.0,0.0,0.0,0.0,0.0,-2.7252,-2.885,-2.9399,-2.9717,-3.0213,-3.1879,-3.2389,-3.2766,-3.4434,-3.4908,-3.4908,-3.4908,-3.4908,-3.4908,-3.4908,-3.4867,-3.4672,-3.4098,-3.4511,-3.484,-3.4433,-3.5461,-3.6709,0.0,-3.9224,-4.0597,-4.1603,-4.3291,-4.4505,-4.4754,-4.5572,0.0,-4.6265,-4.6294,-4.6305,-4.6303,-4.6302,-4.63,-4.63,-4.6206,-4.6141,-4.6141,-4.6009,-4.5914,-4.586,-4.5815,-4.5742,-4.5635,-4.5612,-4.5594,-4.5594,-4.5594,-4.5594,-4.5594,-4.5594,-4.5568,-4.5513,-4.5448,-4.54,-4.5292,-4.48,-4.4578,-4.4344,-4.3005,-4.1963,-4.1109,0.0,0.0,0.0,0.0,0.0,0.0,0.0,-2.338,-2.32,-2.2747,-2.2699,-2.2712,-2.2738,-2.2829,-2.2893,0.0,0.0,0.0,0.0,0.0,0.0,0.0,0.0,0.0,0.0,0.0,0.0,-2.2624,-2.2624,0.0,0.0,0.0,0.0,0.0,0.0,-2.2703,0.0,0.0,0.0,0.0,0.0,0.0,0.0,0.0,0.0,0.0,0.0,0.0,0.0,0.0,0.0,-2.8077,-2.9109,-2.9608,-3.0137,-3.1807,0.0,0.0,-3.4434,-3.4908,-3.4908,-3.4908,-3.4908,-3.4908,-3.4908,0.0,-3.3988,-3.392,-3.3541,-3.3427,-3.4107,-3.4442,-3.5143,-3.6767,0.0,-3.903,-4.0681,-4.2419,-4.3818,-4.4612,0.0,0.0,-4.6205,-4.6268,-4.6299,-4.6293,-4.6305,-4.63,-4.63,-4.6296,-4.6275,-4.6275,-4.6147,-4.6087,-4.608,-4.5891,-4.58,-4.5786,-4.5651,-4.5594,-4.5594,-4.5594,-4.5594,-4.5594,-4.5594,-4.5614,-4.5577,-4.5332,-4.5191,-4.5096,-4.4819,-4.4493,-4.4109,-4.3191,-4.2199,-4.1166,0.0,0.0,0.0,0.0,0.0,0.0,-2.3426,-2.3153,-2.2973,-2.294,-2.2944,-2.299,-2.311,-2.317,-2.3152,-2.3028,0.0,0.0,0.0,0.0,0.0,0.0,0.0,0.0,0.0,0.0,0.0,-2.2703,-2.2703,0.0,0.0,0.0,0.0,0.0,0.0,-2.3187,-2.3187,0.0,0.0,0.0,0.0,0.0,0.0,0.0,0.0,0.0,0.0,0.0,-2.5516,0.0,0.0,0.0,-2.9056,-2.9402,0.0,0.0,-3.192,-3.2599,-3.3828,-3.4529,-3.4908,-3.4908,-3.4908,-3.4775,-3.4282,0.0,-3.3517,-3.2591,-3.2647,-3.2994,-3.3389,-3.3972,-3.4955,-3.6632,0.0,0.0,-3.9849,-4.1473,-4.2889,-4.3816,-4.472,-4.552,-4.6136,-4.6228,-4.6269,-4.63,-4.6296,-4.6293,-4.6308,-4.6303,-4.63,-4.63,-4.6245,-4.6178,-4.6102,-4.6016,-4.5944,-4.5871,-4.5766,-4.5712,-4.5731,-4.5646,-4.5594,-4.5594,-4.5594,-4.5594,-4.5586,-4.5485,-4.5429,-4.5323,-4.4524,-4.4136,-4.3824,-4.2136,-4.1218,-4.0736,0.0,0.0,0.0,0.0,0.0,-2.3599,-2.3533,-2.3242,-2.3054,-2.3182,-2.3194,-2.3248,-2.338,-2.3403,-2.3329,-2.3163,-2.3102,0.0,0.0,0.0,0.0,0.0,0.0,0.0,0.0,0.0,0.0,-2.2935,-2.2935,-2.2935,0.0,0.0,-2.3217,-2.3229,0.0,0.0,0.0,0.0,0.0,0.0,0.0,0.0,0.0,0.0,0.0,0.0,0.0,0.0,0.0,0.0,0.0,0.0,0.0,0.0,0.0,0.0,-3.1393,-3.2081,-3.3025,-3.3696,-3.4141,-3.4159,-3.4169,-3.4008,-3.3412,0.0,-3.2578,-3.1515,-3.1642,-3.2098,-3.2487,-3.3334,-3.4464,0.0,0.0,-3.8121,-3.8998,-4.0578,-4.1969,-4.2876,-4.3996,-4.4973,-4.5679,-4.6032,-4.6228,-4.6286,-4.6303,-4.6301,-4.6299,-4.629,-4.6303,-4.63,-4.63,-4.6247,-4.615,-4.6112,-4.6053,-4.5969,-4.5871,-4.5828,-4.58,-4.5708,-4.5646,-4.5594,-4.5594,-4.5594,-4.5575,-4.5325,-4.5229,-4.5135,-4.4336,-4.3961,-4.3717,-4.2172,-4.1538,-4.1346,0.0,0.0,0.0,0.0,0.0,0.0,-2.3827,-2.3795,-2.3692,-2.3426,-2.3392,-2.3392,-2.3403,-2.3403,-2.3382,-2.3295,-2.3412,0.0,0.0,0.0,0.0,0.0,0.0,0.0,0.0,0.0,0.0,-2.3494,-2.3494,-2.3494,-2.3494,-2.3494,-2.3494,-2.3494,0.0,0.0,0.0,0.0,0.0,0.0,0.0,0.0,0.0,0.0,0.0,0.0,0.0,0.0,0.0,0.0,0.0,0.0,0.0,0.0,0.0,0.0,-3.0863,-3.1111,-3.2062,-3.2317,-3.2336,-3.2418,-3.2416,-3.2418,-3.2336,-3.1647,-3.1015,-3.1005,-3.0486,-3.0323,-3.132,-3.2333,-3.3315,-3.4267,-3.582,0.0,-3.8096,-3.9707,-4.1106,-4.1912,-4.3602,-4.4695,-4.472,-4.5613,-4.6222,-4.6289,-4.6306,-4.6303,-4.6307,-4.63,-4.6309,-4.63,-4.63,-4.63,-4.63,-4.6173,-4.6098,-4.6098,-4.5949,-4.5858,-4.5807,-4.58,-4.5739,-4.5594,-4.5594,-4.5594,-4.5537,-4.4662,-4.4316,-4.4316,-4.4297,-4.4134,-4.3911,-4.395,-4.3795,-4.3436,0.0,0.0,0.0,0.0,0.0,0.0,0.0,-2.3631,-2.35,-2.3403,-2.3403,-2.3403,-2.3403,-2.3403,-2.3347,-2.3193,-2.3289,0.0,0.0,0.0,0.0,0.0,0.0,0.0,0.0,0.0,0.0,-2.3505,-2.3505,-2.3505,-2.3505,-2.3505,-2.3505,-2.3505,-2.3505,-2.3505,0.0,0.0,0.0,0.0,0.0,0.0,0.0,0.0,0.0,0.0,0.0,0.0,0.0,0.0,0.0,0.0,0.0,0.0,0.0,-2.9764,-3.0304,-3.0901,-3.1242,-3.1741,-3.2165,-3.2194,-3.2185,-3.2043,-3.1468,-3.1139,-3.0772,-3.0227,-2.9976,-3.0157,-3.1127,-3.2151,-3.3166,-3.4106,-3.5747,0.0,0.0,0.0,0.0,-4.2647,-4.4494,-4.5589,-4.5589,-4.5952,-4.621,-4.6237,-4.6269,-4.6307,-4.6307,-4.6305,-4.6301,-4.6309,-4.6303,-4.63,-4.63,-4.6269,-4.624,-4.624,-4.6102,-4.6028,-4.5993,-4.5854,-4.5778,-4.5708,-4.501,-4.4701,-4.4682,-4.4412,-4.4297,-4.4297,-4.4297,-4.4243,-4.4095,-4.3379,-4.304,-4.2911,0.0,0.0,0.0,0.0,0.0,0.0,0.0,-2.3714,-2.3555,-2.3555,-2.3459,-2.3403,-2.3403,-2.3403,-2.3318,-2.3114,-2.3229,0.0,0.0,0.0,0.0,0.0,0.0,0.0,0.0,0.0,-2.3538,-2.3505,-2.3623,-2.3638,-2.3582,-2.3649,-2.37,-2.37,-2.37,0.0,0.0,0.0,0.0,0.0,0.0,0.0,-2.4091,0.0,0.0,0.0,0.0,0.0,0.0,0.0,0.0,0.0,0.0,0.0,0.0,0.0,-2.9812,-3.0285,-3.0347,-3.0733,-3.1136,-3.1176,-3.1185,-3.1044,-3.0489,0.0,-3.0236,-2.973,-2.9664,-2.9893,-3.0557,-3.1787,-3.2898,-3.3506,-3.5162,-3.6676,0.0,-3.8452,-3.9939,-4.2512,-4.4388,-4.5481,-4.5511,-4.5878,-4.6145,-4.62,-4.624,-4.6268,-4.6308,-4.6307,-4.6305,-4.63,-4.6294,-4.6308,-4.6305,-4.6305,-4.6303,-4.63,-4.6214,-4.6144,-4.6079,-4.5629,-4.54,-4.5306,-4.4657,-4.4388,0.0,-4.4322,-4.4297,-4.4297,-4.4297,-4.4297,-4.4269,-4.3923,-4.3771,-4.3732,0.0,0.0,0.0,0.0,0.0,0.0,0.0,-2.3927,-2.3774,-2.3753,-2.3533,-2.3369,-2.3346,-2.3346,-2.3259,-2.3077,0.0,0.0,0.0,0.0,0.0,0.0,0.0,0.0,0.0,-2.3642,-2.3671,-2.3611,-2.3933,-2.4016,-2.3887,-2.4026,-2.4097,-2.4079,-2.4042,0.0,0.0,0.0,0.0,0.0,-2.3858,-2.4335,0.0,0.0,0.0,0.0,0.0,0.0,0.0,0.0,0.0,0.0,0.0,0.0,0.0,0.0,0.0,0.0,0.0,-2.9482,-2.9531,-2.9645,-2.9683,-2.9645,-2.9531,0.0,0.0,-2.9482,-2.9482,-2.9541,-2.9741,-3.125,-3.2499,-3.2581,-3.4201,-3.5804,-3.6754,-3.781,-3.9359,-4.1719,-4.3479,-4.455,-4.4674,-4.5428,-4.5981,-4.6169,-4.62,-4.6235,-4.6289,-4.6308,-4.6307,-4.6307,-4.6305,-4.6301,-4.6294,-4.6294,-4.6309,-4.6302,-4.6302,-4.6221,-4.6089,-4.526,-4.4826,-4.469,-4.4563,-4.4516,-4.4496,-4.438,-4.4314,-4.4316,-4.4374,-4.4393,-4.4489,-4.5306,-4.5594,-4.5559,0.0,0.0,0.0,0.0,0.0,0.0,0.0,0.0,0.0,0.0,-2.3206,-2.3096,-2.2884,-2.2859,-2.285,0.0,0.0,0.0,0.0,0.0,0.0,0.0,0.0,0.0,0.0,-2.3671,-2.4053,-2.4813,-2.4887,-2.521,-2.5743,-2.5192,-2.4928,-2.4892,-2.428,0.0,0.0,0.0,0.0,0.0,-2.5503,-2.5856,0.0,0.0,0.0,0.0,-2.8496,-2.8975,0.0,0.0,0.0,0.0,0.0,0.0,0.0,0.0,-2.9396,-2.9407,-2.9409,0.0,-2.9429,-2.945,-2.9478,-2.9468,0.0,0.0,0.0,0.0,0.0,0.0,0.0,0.0,-3.2278,-3.2358,-3.3969,-3.576,-3.7401,-3.9637,-4.1332,-4.1932,-4.2957,-4.3879,-4.457,-4.4855,-4.5303,-4.5992,-4.6142,-4.6206,-4.6213,-4.6268,-4.6308,-4.6308,-4.6308,-4.6307,-4.63,-4.63,-4.6297,-4.629,-4.629,-4.6284,-4.6245,-4.593,-4.5776,-4.5714,-4.4963,-4.4587,-4.4504,-4.4469,-4.438,-4.4374,-4.5037,-4.5287,-4.5325,-4.5518,-4.5594,-4.5559,0.0,0.0,0.0,0.0,0.0,0.0,0.0,0.0,0.0,0.0,0.0,0.0,0.0,0.0,0.0,0.0,0.0,0.0,0.0,0.0,0.0,0.0,0.0,0.0,0.0,-2.4426,-2.4889,-2.5742,-2.5888,-2.6168,-2.6536,-2.615,-2.5978,-2.5959,-2.5456,0.0,0.0,0.0,0.0,-2.5783,-2.6264,0.0,0.0,0.0,0.0,0.0,-2.8935,-2.9197,0.0,-2.9294,-2.9304,-2.9304,0.0,0.0,0.0,0.0,-2.9376,-2.9396,-2.9396,-2.9396,-2.9396,-2.9396,-2.9396,-2.9396,-2.9396,0.0,0.0,0.0,0.0,0.0,0.0,0.0,0.0,-3.2155,-3.3743,-3.5781,-3.8113,-4.0102,-4.1473,-4.1944,-4.2763,-4.3324,-4.3401,-4.3795,-4.4273,-4.4773,-4.4877,-4.5094,-4.5528,-4.5627,-4.5835,-4.6244,-4.6288,-4.6308,-4.6305,-4.6305,-4.6302,-4.6297,-4.6294,-4.6291,-4.6285,-4.5809,-4.5596,-4.5554,-4.4997,-4.4671,-4.4569,-4.4944,-4.5017,-4.4932,-4.5421,-4.5594,-4.5594,-4.5594,-4.5594,-4.5568,0.0,0.0,0.0,0.0,0.0,0.0,0.0,0.0,0.0,0.0,0.0,0.0,0.0,0.0,0.0,0.0,0.0,0.0,0.0,0.0,0.0,0.0,0.0,-2.4598,-2.5295,-2.5481,-2.5925,-2.6637,-2.6937,-2.7089,-2.7087,-2.709,-2.7018,-2.6887,-2.6779,0.0,0.0,0.0,-2.6788,-2.6724,-2.6863,0.0,0.0,0.0,0.0,0.0,0.0,0.0,0.0,-2.9189,-2.92,-2.92,-2.92,0.0,0.0,0.0,0.0,0.0,-2.9396,-2.9396,-2.9396,-2.9396,-2.9396,-2.9396,-2.9396,0.0,0.0,0.0,0.0,0.0,0.0,-3.0895,0.0,0.0,-3.3838,-3.6065,-3.8706,-3.9892,-4.0868,-4.188,-4.2531,-4.2686,-4.2067,-4.2667,-4.3182,-4.3368,-4.3525,-4.3946,-4.474,-4.4963,-4.5439,-4.6183,-4.6264,-4.6289,-4.6307,-4.6307,-4.6306,-4.6302,-4.6299,-4.6295,-4.6274,-4.5545,-4.521,-4.5187,-4.5086,-4.4959,-4.488,-4.5544,-4.5749,-4.5629,-4.5603,-4.5594,-4.5594,-4.5594,-4.5594,-4.5568,0.0,0.0,0.0,0.0,0.0,0.0,0.0,0.0,0.0,0.0,0.0,0.0,0.0,0.0,0.0,0.0,0.0,0.0,0.0,0.0,0.0,0.0,0.0,-2.6045,-2.6286,-2.6318,-2.6796,-2.7748,-2.7816,-2.8209,-2.8892,-2.8223,-2.7528,-2.6801,-2.6782,-2.675,-2.6727,-2.7474,-2.7748,-2.7761,-2.8489,0.0,0.0,0.0,0.0,0.0,0.0,0.0,0.0,-2.9178,-2.92,-2.92,-2.92,0.0,0.0,0.0,0.0,0.0,-2.9396,-2.9396,-2.9396,-2.9396,-2.9396,-2.9396,0.0,0.0,0.0,0.0,0.0,0.0,0.0,-3.1202,-3.2039,0.0,-3.5034,-3.7263,-3.8722,-3.9789,-4.0808,-4.1873,-4.1525,-4.139,-4.1951,-4.2125,-4.2499,-4.326,-4.4059,-4.4569,-4.4701,-4.5472,-4.6006,-4.6183,-4.6207,-4.6241,-4.6308,-4.6308,-4.6308,-4.6306,-4.6306,-4.6304,-4.6301,-4.6163,-4.6101,-4.6096,-4.6071,-4.598,-4.5862,-4.5881,-4.5841,-4.5757,-4.5635,-4.5594,-4.5594,-4.5594,-4.5594,-4.5586,0.0,0.0,0.0,0.0,0.0,0.0,0.0,0.0,0.0,0.0,0.0,0.0,0.0,0.0,0.0,0.0,0.0,0.0,0.0,0.0,0.0,0.0,-2.775,-2.7595,-2.7255,-2.7287,-2.7966,-2.9296,-2.93,-2.9528,-2.9931,-2.913,-2.8526,-2.8153,-2.8104,-2.8052,-2.8025,-2.8422,-2.8555,-2.8537,0.0,0.0,0.0,0.0,0.0,0.0,0.0,0.0,0.0,0.0,-2.9078,-2.9078,-2.9078,0.0,0.0,0.0,0.0,0.0,-2.9344,-2.9344,-2.9355,-2.9396,-2.9396,-2.9396,0.0,0.0,0.0,0.0,0.0,0.0,0.0,0.0,-3.2704,-3.3522,-3.5537,-3.7536,-3.906,-3.9824,-4.0781,-4.2263,-4.1431,-4.09,-4.1268,-4.1725,-4.2164,-4.257,-4.3421,-4.4155,-4.4614,-4.5079,-4.5566,-4.6091,-4.6128,-4.6189,-4.6242,-4.6242,-4.6267,-4.6308,-4.6307,-4.6306,-4.6305,-4.6302,-4.6301,-4.6299,-4.6299,-4.6216,-4.6092,-4.6037,-4.5924,-4.58,-4.5727,-4.566,-4.5594,-4.5594,-4.5594,-4.5594,0.0,0.0,0.0,0.0,0.0,0.0,0.0,0.0,0.0,0.0,0.0,0.0,0.0,0.0,0.0,0.0,0.0,0.0,0.0,0.0,-2.9005,-2.9005,-2.9005,-2.8734,-2.8173,-2.8216,-2.8938,-3.0339,-3.0362,-3.0408,-3.0465,-2.965,-2.928,-2.924,-2.9207,-2.9134,-2.9085,-2.9085,-2.9051,-2.9005,0.0,0.0,0.0,0.0,0.0,0.0,0.0,0.0,0.0,0.0,0.0,0.0,0.0,0.0,0.0,-2.9089,-2.9163,-2.92,-2.9262,-2.9291,-2.9302,-2.9336,0.0,0.0,0.0,0.0,0.0,0.0,0.0,0.0,0.0,-3.2314,-3.3473,-3.4104,-3.5857,-3.7717,-3.9366,-3.9984,-4.0891,-4.2603,-4.1497,-4.071,-4.0983,-4.1616,-4.208,-4.2299,-4.3111,-4.3904,-4.4555,-4.4833,-4.5271,-4.5982,-4.6059,-4.6109,-4.6189,-4.6189,-4.6209,-4.6288,-4.6289,-4.6289,-4.6289,-4.6287,-4.6304,-4.6303,-4.6303,-4.6231,-4.6131,-4.6117,-4.6013,-4.5866,-4.5822,-4.5719,-4.5594,-4.5594,-4.5594,-4.5594,0.0,0.0,0.0,0.0,0.0,0.0,0.0,0.0,0.0,0.0,0.0,0.0,0.0,0.0,0.0,0.0,0.0,0.0,0.0,0.0,-2.9005,-2.9005,-2.9005,-2.8987,-2.8913,-2.8925,-2.9347,-3.0203,-3.0281,-3.0351,-3.0397,-2.9577,-2.9167,-2.91,-2.91,-2.9074,-2.9005,-2.9005,-2.9005,-2.9005,-2.9005,0.0,0.0,0.0,0.0,0.0,0.0,0.0,0.0,0.0,0.0,0.0,0.0,0.0,-2.9089,-2.9089,-2.9163,-2.92,-2.9218,-2.9218,-2.92,-2.9211,0.0,0.0,0.0,0.0,0.0,-3.0363,0.0,0.0,0.0,-3.3528,-3.4123,-3.4179,-3.6235,-3.8238,-3.943,-4.0256,-4.1256,-4.2632,-4.1344,-4.0734,-4.18,-4.1956,-4.2337,-4.3143,-4.4014,-4.4536,-4.4594,-4.5311,-4.5803,-4.5997,-4.6007,-4.6041,-4.6109,-4.6109,-4.6139,-4.6207,-4.6267,-4.6267,-4.6209,-4.6268,-4.6308,-4.6307,-4.6307,-4.6285,-4.6278,-4.6147,-4.6095,-4.6056,-4.5875,-4.5723,-4.5594,-4.5594,-4.5594,-4.5594,0.0,0.0,0.0,0.0,0.0,0.0,0.0,0.0,0.0,0.0,0.0,0.0,0.0,0.0,0.0,0.0,0.0,0.0,0.0,0.0,-2.9005,-2.9005,-2.9005,-2.9005,-2.9005,-2.9005,-2.939,-3.021,-3.0281,-3.0574,-3.1065,-2.975,-2.9112,-2.9108,-2.9062,-2.9028,-2.9005,-2.9005,-2.9005,-2.9005,-2.9005,-2.9005,0.0,0.0,0.0,0.0,0.0,0.0,0.0,0.0,-2.9005,-2.9005,-2.9005,-2.9017,-2.904,-2.904,-2.9062,-2.9078,-2.9141,-2.9152,-2.9163,-2.9189,0.0,0.0,0.0,0.0,0.0,-3.1169,-3.1738,0.0,0.0,0.0,-3.4197,-3.4197,-3.6278,-3.8226,-3.9154,-4.0551,-4.1669,-4.2172,-4.1978,-4.1778,-4.1701,-4.2772,-4.3639,-4.3962,-4.4822,-4.5339,-4.5339,-4.5638,-4.5808,-4.5867,-4.5886,-4.5927,-4.6041,-4.5496,-4.5242,-4.5274,-4.5869,-4.6173,-4.6204,-4.6235,-4.6266,-4.6269,-4.5722,-4.5487,-4.5445,-4.4853,-4.4557,-4.4465,-4.4305,-4.4202,-4.4165,-4.4079,-4.405,-4.405,0.0,0.0,0.0,0.0,0.0,0.0,0.0,0.0,0.0,0.0,0.0,0.0,0.0,0.0,0.0,0.0,0.0,0.0,0.0,-2.8994,-2.9005,-2.9005,-2.9005,-2.9005,-2.9005,-2.9005,-2.939,-3.021,-3.0257,-3.0557,-3.106,-2.9699,-2.9074,-2.9074,-2.9028,-2.9005,-2.9005,-2.9005,-2.9005,-2.9005,-2.9005,-2.9005,0.0,0.0,0.0,0.0,0.0,0.0,0.0,0.0,-2.9005,-2.9005,-2.9005,-2.9005,-2.9005,-2.9005,-2.9005,-2.9017,-2.9062,-2.9074,-2.9085,0.0,0.0,0.0,0.0,0.0,0.0,-3.2005,-3.2816,0.0,-3.4104,0.0,-3.4197,-3.4197,-3.6278,-3.8172,-3.899,-4.0663,-4.1935,-4.2259,-4.2392,-4.2406,-4.2307,-4.3497,-4.4424,-4.4785,-4.5171,-4.5387,-4.5394,-4.5133,-4.4981,-4.5007,-4.4736,-4.4634,-4.4744,-4.389,-4.3463,-4.3483,-4.4127,-4.4748,-4.532,-4.5338,-4.5387,-4.5408,-4.4822,-4.457,-4.453,-4.3944,-4.364,-4.3526,-4.3415,-4.3354,-4.3325,-4.3201,-4.3163,-4.3168,0.0,0.0,0.0,0.0,0.0,0.0,0.0,0.0,0.0,0.0,0.0,0.0,0.0,0.0,0.0,0.0,0.0,0.0,0.0,-2.8952,-2.9005,-2.9005,-2.9005,-2.9005,-2.9005,-2.9005,-2.939,-3.021,-3.021,-3.021,-3.0191,-2.9372,-2.9005,-2.9005,-2.9005,-2.9005,-2.9005,-2.9005,-2.9005,-2.9005,-2.9005,-2.9005,-2.9005,0.0,0.0,0.0,0.0,0.0,0.0,0.0,-2.9005,-2.9005,-2.9005,0.0,-2.9005,-2.9005,-2.9005,-2.9005,-2.9005,-2.9005,-2.9005,0.0,0.0,0.0,0.0,0.0,0.0,-3.2829,-3.364,-3.4197,-3.4197,-3.4197,-3.4197,-3.4197,-3.6278,-3.8172,-3.8971,-4.0531,-4.1986,-4.3038,-4.2423,-4.2454,-4.3827,-4.3991,-4.4441,-4.5587,-4.4909,-4.4461,-4.4472,-4.3656,-4.3194,-4.3259,-4.2434,-4.199,-4.199,-4.1184,-4.0797,-4.0797,-4.0777,-4.1701,-4.3384,-4.3459,-4.3529,-4.359,-4.359,-4.3623,-4.3691,-4.3672,-4.3646,-4.3567,-4.3495,-4.3448,-4.3363,-4.3291,-4.3284,-4.3266,0.0,0.0,0.0,0.0,0.0,0.0,0.0,0.0,0.0,0.0,0.0,0.0,0.0,0.0,0.0,0.0,0.0,0.0,0.0,-2.8917,-2.894,-2.9005,-2.9005,-2.9005,-2.9005,-2.9005,-2.9666,-3.1035,-2.9916,-2.9953,-3.0999,-2.9629,-2.9005,-2.9005,-2.9005,-2.9005,-2.9005,-2.9005,-2.9005,-2.9005,-2.9005,-2.9005,-2.9005,0.0,0.0,0.0,0.0,0.0,0.0,0.0,0.0,0.0,-2.9005,0.0,-2.9005,-2.9005,-2.9005,-2.9005,-2.9005,-2.9005,0.0,-2.9005,0.0,0.0,0.0,0.0,0.0,0.0,-3.403,-3.4197,-3.4197,-3.4197,-3.4197,-3.4197,-3.6278,-3.7968,-3.8209,-4.0178,-4.1522,-4.1255,-4.1667,-4.1914,-4.1758,-4.2424,-4.3012,-4.3354,-4.2622,-4.2249,-4.2386,-4.1657,-4.1308,-4.1474,-4.1229,-4.11,-4.1164,-4.0313,-3.9887,-3.9887,-3.9262,-4.0209,-4.249,-4.2503,-4.2895,-4.3504,-4.288,-4.2653,-4.2685,-4.2167,-4.1933,-4.1908,-4.1831,-4.1794,-4.1771,-4.1653,-4.1573,-4.1535,0.0,0.0,0.0,0.0,0.0,0.0,0.0,0.0,0.0,0.0,-2.7855,-2.7982,0.0,0.0,0.0,-2.87,-2.8761,0.0,-2.8858,-2.8917,-2.8952,-2.9005,-2.9005,-2.9005,-2.9005,-2.9005,-2.9629,-3.0907,-2.9941,-2.9971,-3.0889,-2.9934,-2.9482,-2.9482,0.0,-2.9482,-2.95,-2.9824,-2.9757,-2.9482,-2.9482,-2.9299,-2.9005,0.0,0.0,0.0,0.0,0.0,0.0,0.0,0.0,0.0,-2.9005,0.0,0.0,-2.9005,-2.9005,-2.9005,-2.9005,-2.9005,0.0,-2.9005,-3.0233,-3.1636,-3.2379,0.0,0.0,0.0,-3.4185,-3.4197,-3.4197,-3.4197,-3.4197,-3.4197,-3.5999,-3.7522,-3.7856,-3.9751,-4.1051,-4.0903,-4.146,-4.1568,-4.0873,-4.1391,-4.1654,-4.1415,-4.0672,-4.026,-4.0387,-3.9631,-3.9312,-3.9543,-3.9203,-3.9109,-3.9244,-3.84,-3.7961,-3.7972,-3.7464,-3.8205,-4.0043,-4.0392,-4.0878,-4.1415,-4.0912,-4.0721,-4.0759,-4.0305,-4.0135,-4.0156,-4.0112,-4.0108,-4.0086,-3.9984,-3.9916,-3.9867,0.0,0.0,-2.8466,-2.8518,0.0,0.0,0.0,0.0,0.0,-2.8102,-2.8143,-2.8255,0.0,0.0,0.0,-2.86,-2.8712,-2.8773,-2.8785,-2.8893,-2.8982,-2.8994,-2.8994,-2.9005,-2.9005,-2.9005,-2.9354,-3.0099,-3.0099,-3.0136,0.0,0.0,-3.0136,-3.021,0.0,-3.0246,-3.0356,-3.1091,-3.098,-3.032,-3.032,-2.9831,-2.9115,-2.9115,0.0,0.0,0.0,0.0,0.0,0.0,0.0,0.0,-2.9005,-2.9005,-2.9005,-2.9005,-2.9005,-2.9005,-2.9005,-2.9005,0.0,-2.9005,-3.0257,0.0,-3.3603,-3.4086,-3.4173,-3.4111,0.0,-3.4197,-3.4197,-3.4197,-3.4197,-3.4197,-3.5535,-3.6848,-3.7578,-3.9045,-4.0327,-4.107,-4.1144,-4.0957,-4.0465,-4.0434,-4.0207,-3.9646,-3.885,-3.8426,-3.8421,-3.7613,-3.727,-3.7532,-3.6765,-3.6464,-3.6723,-3.5963,-3.5595,-3.5662,-3.5673,-3.6066,-3.6801,-3.7671,-3.8164,-3.8289,-3.8358,-3.8432,-3.8486,-3.8492,-3.8545,-3.8593,-3.8594,-3.8594,-3.8594,-3.8523,-3.8512,-3.8484,0.0,0.0,-2.811,-2.8124,0.0,0.0,0.0,0.0,-2.8134,-2.8448,-2.8492,-2.8518,-2.8587,-2.86,0.0,-2.86,-2.8625,-2.8662,-2.8724,-2.8761,-2.8803,-2.8917,-2.8964,-2.9005,-2.9005,-2.9005,-2.9078,-2.9262,-2.9262,0.0,0.0,0.0,0.0,-3.021,0.0,-3.0558,-3.1146,-3.1342,-3.1305,-3.114,-3.114,-3.065,-2.9953,-2.9953,-2.9537,0.0,0.0,0.0,0.0,0.0,0.0,0.0,-2.9005,-2.9005,-2.9005,-2.9005,-2.9005,-2.9005,-2.9005,-2.9005,0.0,0.0,-3.0257,-3.1906,-3.3474,-3.3947,-3.4049,-3.4099,-3.4111,-3.4136,-3.4185,-3.4197,-3.4197,-3.4197,-3.5083,-3.5826,-3.5993,-3.6866,-3.7573,-3.7726,-3.7758,-3.7711,-3.759,-3.7584,-3.7535,-3.7393,-3.6639,-3.6255,-3.6429,-3.5649,-3.5302,-3.552,-3.533,-3.5297,-3.542,-3.5373,-3.5381,-3.5388,-3.5547,-3.5705,-3.5902,-3.6775,-3.7553,-3.8225,-3.8285,-3.8335,-3.8341,-3.8452,-3.8517,-3.8523,-3.8573,-3.8594,-3.8594,-3.8574,-3.8547,-3.8509,0.0,0.0,0.0,0.0,0.0,0.0,0.0,0.0,-2.837,-2.8574,-2.86,-2.86,-2.86,-2.86,0.0,0.0,-2.8637,-2.8657,-2.8694,-2.8737,-2.8785,-2.8846,-2.89,-2.8917,-2.894,-2.894,-2.8964,-2.9005,0.0,0.0,0.0,0.0,0.0,-3.0797,0.0,-3.1586,-3.2008,-3.2394,-3.232,-3.1971,-3.1971,-3.1494,-3.0723,-3.0356,-2.9953,-2.9519,-2.9133,0.0,0.0,0.0,0.0,0.0,0.0,0.0,-2.9005,-2.9005,-2.8905,-2.8846,-2.897,0.0,0.0,-2.9284,0.0,-3.1365,-3.2744,-3.336,-3.373,-3.3959,-3.4036,-3.4074,-3.4136,-3.4161,-3.4161,-3.4197,-3.4828,-3.5358,-3.5479,-3.6107,-3.6594,-3.6686,-3.6699,-3.6551,-3.616,-3.6142,-3.5943,-3.5535,-3.5107,-3.4927,-3.5021,-3.464,-3.452,-3.4753,-3.4763,-3.4813,-3.4962,-3.5058,-3.5108,-3.5152,-3.536,-3.5502,-3.5622,-3.6093,-3.6574,-3.7005,-3.7031,-3.7065,-3.7055,-3.7134,-3.7179,-3.7203,-3.7273,-3.7319,-3.73,-3.7343,-3.7323,-3.7297,0.0,0.0,0.0,0.0,0.0,0.0,0.0,0.0,0.0,-2.8562,-2.8587,-2.8587,-2.8587,-2.8587,-2.86,0.0,0.0,0.0,-2.8682,-2.8749,-2.8785,-2.8785,-2.8798,-2.8846,-2.8905,-2.8917,-2.894,0.0,0.0,0.0,0.0,0.0,0.0,-3.1433,0.0,-3.2674,-3.2839,-3.3532,-3.3421,-3.2803,-3.2803,-3.2339,-3.1513,-3.0705,-3.032,-3.0099,-2.9299,-2.9005,-2.9005,-2.9005,0.0,0.0,0.0,0.0,-2.9005,-2.9005,-2.8803,-2.8657,-2.887,0.0,-2.8706,-2.952,-3.0,0.0,-3.1845,-3.2593,-3.3154,-3.3611,-3.381,-3.3915,-3.3979,-3.3954,-3.3935,-3.403,-3.4455,-3.4875,-3.5142,-3.5623,-3.6021,-3.6194,-3.6246,-3.6012,-3.5343,-3.5287,-3.499,-3.4253,-3.4197,-3.4197,-3.4197,-3.4197,-3.4305,-3.4517,-3.4528,-3.4599,-3.4784,-3.4823,-3.4879,-3.4925,-3.5136,-3.5311,-3.5483,-3.5584,-3.5656,-3.5679,-3.5679,-3.5693,-3.5696,-3.5689,-3.5741,-3.578,-3.5851,-3.589,-3.5917,-3.5954,-3.5996,-3.5996,0.0,0.0,0.0,0.0,0.0,0.0,0.0,0.0,0.0,0.0,-2.8523,-2.8574,-2.8505,-2.8574,-2.86,-2.86,-2.86,-2.8612,-2.8612,0.0,0.0,-2.8706,-2.8815,-2.8893,-2.8905,-2.897,-2.8994,0.0,0.0,0.0,0.0,0.0,0.0,-3.1433,0.0,0.0,-3.3642,-3.3752,-3.3733,-3.3642,-3.3642,-3.3164,-3.2344,-3.1549,-3.0797,-3.0099,-2.9299,-2.9005,-2.9005,-2.9005,-2.9005,0.0,0.0,0.0,-2.9005,-2.9005,-2.8803,-2.8601,0.0,0.0,-2.8367,0.0,-2.9412,-2.9862,0.0,0.0,-3.21,-3.2793,-3.3225,-3.3504,-3.3556,-3.3335,-3.3204,-3.339,-3.3499,-3.3615,-3.3821,-3.4077,-3.4239,-3.4265,-3.4432,-3.4494,-3.4383,-3.4364,-3.4327,-3.4197,-3.4197,-3.4197,-3.4197,-3.4197,-3.4221,-3.4257,-3.4257,-3.4269,-3.4298,-3.452,-3.4647,-3.4658,-3.486,-3.4961,-3.4996,-3.5239,-3.545,-3.5612,-3.5612,-3.5654,-3.5697,-3.5706,-3.5706,-3.5722,-3.58,-3.5847,-3.5895,-3.5918,-3.5951,-3.5996,0.0,0.0,0.0,0.0,0.0,0.0,0.0,0.0,0.0,0.0,0.0,-2.8587,-2.8562,-2.8574,-2.86,-2.86,-2.86,-2.86,-2.86,-2.8625,-2.865,-2.865,-2.87,-2.8749,-2.8779,-2.8822,0.0,0.0,0.0,0.0,0.0,-3.1115,-3.172,0.0,0.0,0.0,0.0,-3.3807,-3.3807,-3.3807,-3.3807,-3.333,0.0,0.0,0.0,0.0,-2.9299,-2.9005,-2.9005,-2.9005,-2.9005,-2.9005,-2.9005,0.0,0.0,0.0,-2.8443,-2.8097,-2.8097,-2.8,-2.7957,0.0,-2.8599,-2.9018,-2.9918,-3.0798,-3.1574,-3.2083,-3.2491,-3.2858,-3.3118,-3.3039,-3.2978,-3.3118,-3.3029,-3.3063,-3.3397,-3.3412,-3.3484,-3.3712,-3.3908,-3.4036,-3.4036,-3.4136,-3.4197,-3.4197,-3.4197,-3.4197,-3.4197,-3.4197,-3.4197,-3.4197,-3.4197,-3.4197,-3.4197,-3.4316,-3.445,-3.4612,-3.4691,-3.4793,-3.4908,-3.5008,-3.5211,-3.5443,-3.5546,-3.5612,-3.5648,-3.5674,-3.5699,-3.5708,-3.5722,-3.5752,-3.5805,-3.5861,-3.5922,-3.5951,0.0,0.0,0.0,0.0,0.0,0.0,0.0,0.0,0.0,0.0,0.0,-2.8549,-2.8549,0.0,0.0,0.0,-2.86,-2.86,-2.86,-2.86,-2.86,-2.86,-2.8612,-2.865,-2.8694,-2.8724,0.0,0.0,0.0,0.0,-3.0852,-3.2032,-3.2711,0.0,-3.3532,-3.3807,0.0,0.0,0.0,0.0,-3.3587,-3.3146,0.0,0.0,0.0,0.0,0.0,0.0,-2.8791,-2.887,-2.8839,-2.8761,-2.8761,-2.8639,0.0,0.0,0.0,0.0,0.0,0.0,-2.76,-2.76,-2.7869,-2.8242,0.0,0.0,-3.067,-3.1299,-3.1683,-3.2038,-3.2533,-3.2616,-3.2648,-3.2761,-3.2651,-3.2669,-3.3001,-3.2972,-3.3052,-3.3415,-3.3625,-3.3775,-3.3815,-3.3959,-3.4049,-3.4049,-3.4049,-3.4049,-3.4049,-3.4099,-3.4124,-3.4124,-3.4173,-3.4197,-3.4197,-3.4197,-3.4293,-3.4495,-3.4495,-3.4575,-3.4713,-3.4792,-3.4936,-3.5147,-3.5397,-3.5515,-3.5527,-3.562,-3.5668,-3.5665,-3.5665,-3.5672,-3.5714,-3.5819,-3.5851,-3.5884,0.0,0.0,0.0,0.0,0.0,0.0,0.0,0.0,0.0,0.0,0.0,-2.8406,-2.8406,-2.8471,-2.8536,-2.8587,-2.86,-2.86,-2.86,-2.86,-2.86,-2.86,-2.8662,0.0,-2.8694,0.0,0.0,0.0,0.0,0.0,-3.2472,-3.2564,-3.3005,-3.3733,-3.377,-3.3807,-3.3807,0.0,0.0,0.0,-3.2981,-3.2638,-3.2436,0.0,0.0,0.0,0.0,-2.862,-2.8197,-2.8507,-2.8417,-2.8156,-2.8156,-2.8143,-2.8129,0.0,0.0,0.0,0.0,-2.7313,0.0,-2.7313,-2.7332,-2.7539,0.0,0.0,-2.8971,-3.0456,-3.0767,-3.1009,-3.1718,-3.1856,-3.1911,-3.2126,-3.2144,-3.2179,-3.2335,-3.2554,-3.2782,-3.3006,-3.3202,-3.3412,-3.3605,-3.3633,-3.3633,-3.3633,-3.3633,-3.3633,-3.3633,-3.3802,-3.3908,-3.3908,-3.4099,-3.4197,-3.4197,-3.4197,-3.4209,-3.4221,-3.4221,-3.4221,-3.4245,-3.4506,-3.4615,-3.4658,-3.5041,-3.5255,-3.5338,-3.5528,-3.5622,-3.5606,-3.5612,-3.5635,-3.5698,-3.5706,-3.5748,-3.5805,0.0,0.0,0.0,0.0,0.0,0.0,0.0,0.0,0.0,0.0,0.0,0.0,0.0,-2.8523,-2.8574,-2.86,-2.86,-2.86,-2.86,-2.86,-2.86,-2.86,-2.8625,0.0,0.0,0.0,0.0,0.0,0.0,-3.1916,-3.2554,-3.312,-3.3532,-3.3807,-3.3807,-3.3807,-3.3807,-3.3807,0.0,-3.3733,-3.2913,-3.218,-3.145,0.0,0.0,-2.8672,-2.8495,-2.8277,-2.8129,-2.8237,-2.8197,-2.8102,-2.8102,-2.7978,0.0,0.0,0.0,0.0,0.0,0.0,0.0,-2.7299,-2.7299,-2.7368,-2.7627,-2.8058,-2.8558,-2.911,-2.9592,-3.0162,-3.0938,-3.1472,-3.1837,-3.191,-3.191,-3.1965,-3.2161,-3.2249,-3.2369,-3.2538,-3.2766,-3.2939,-3.3019,-3.3154,-3.3211,-3.3211,-3.2875,-3.2641,-3.2641,-3.2346,-3.2177,-3.2177,-3.2236,-3.2342,-3.2471,-3.2609,-3.2667,-3.2667,-3.2667,-3.2667,-3.2685,-3.3298,-3.3575,-3.3616,-3.4456,-3.4981,-3.5239,-3.536,-3.5483,-3.5596,-3.5596,-3.5606,-3.5643,-3.5631,-3.5653,-3.5686,0.0,0.0,0.0,0.0,0.0,0.0,0.0,0.0,0.0,0.0,0.0,0.0,0.0,0.0,-2.8945,-2.9378,-2.9409,-2.9409,-2.9409,-2.9409,-2.9409,-2.9409,-2.9409,0.0,0.0,0.0,0.0,0.0,0.0,0.0,0.0,-3.3483,-3.3766,-3.3766,-3.3793,-3.3807,0.0,0.0,0.0,-3.3316,-3.2431,-3.1516,-3.0636,0.0,-2.8925,-2.8281,-2.8281,-2.8129,-2.7968,-2.7968,-2.7911,-2.7826,-2.7826,-2.7716,0.0,0.0,0.0,0.0,-2.7299,0.0,0.0,0.0,-2.7299,-2.7299,-2.7299,-2.7678,-2.8092,-2.8351,-2.8799,-2.9368,-3.0144,-3.0696,-3.1196,-3.1714,-3.18,-3.1855,-3.1965,-3.2001,-3.2055,-3.2214,-3.2386,-3.2415,-3.2216,-3.2325,-3.2293,-3.2043,-3.1649,-3.1437,-3.1437,-3.116,-3.106,-3.1195,-3.1208,-3.1259,-3.1391,-3.1525,-3.1602,-3.1602,-3.1602,-3.1626,-3.1721,-3.2258,-3.2535,-3.263,-3.334,-3.4163,-3.5016,-3.513,-3.5274,-3.5469,-3.5469,-3.5528,-3.5571,-3.5278,-3.5145,-3.5097,0.0,0.0,0.0,0.0,0.0,0.0,0.0,0.0,0.0,0.0,0.0,0.0,0.0,0.0,0.0,-3.0885,-3.0998,-3.0998,-3.0998,-3.0998,-3.0998,-3.0998,-3.0998,0.0,0.0,0.0,0.0,0.0,0.0,0.0,0.0,0.0,-3.3698,-3.3698,-3.378,-3.3807,-3.3807,0.0,-3.3311,-3.2502,-3.1419,-3.0644,-3.0051,-2.8985,-2.8576,-2.8563,-2.8563,-2.8192,-2.7686,-2.7686,-2.7526,-2.7299,-2.7299,0.0,0.0,0.0,0.0,0.0,0.0,0.0,0.0,0.0,-2.7282,-2.7299,-2.7299,-2.7299,-2.7489,-2.8213,-2.8368,-2.8592,-2.9334,-2.9472,-2.9972,-3.1489,-3.1731,-3.1731,-3.1731,-3.1731,-3.1787,-3.1985,-3.2021,-3.1795,-3.1213,-3.1159,-3.0843,-3.014,-3.0069,-3.0068,-3.0068,-3.0347,-3.0702,-3.1097,-3.111,-3.1122,-3.1122,-3.1122,-3.1122,-3.1122,-3.1122,-3.1242,-3.1421,-3.144,-3.1565,-3.1764,-3.1794,-3.2821,-3.4518,-3.4716,-3.495,-3.5124,-3.5132,-3.5297,-3.5418,-3.4569,-3.4223,-3.4063,0.0,0.0,0.0,0.0,0.0,0.0,0.0,0.0,0.0,0.0,0.0,0.0,0.0,0.0,-3.0337,-3.0939,-3.0998,-3.0998,-3.0998,-3.0998,-3.0998,-3.0998,-3.0998,-3.0998,0.0,0.0,0.0,0.0,0.0,0.0,0.0,0.0,0.0,0.0,-3.378,-3.3807,-3.3752,-3.3183,0.0,-3.2472,-3.1016,-3.007,-2.9458,-2.8569,-2.8,-2.7662,-2.7662,-2.7542,-2.7405,-2.7405,-2.736,-2.7299,-2.7299,0.0,0.0,0.0,0.0,0.0,-2.7088,0.0,0.0,0.0,0.0,0.0,-2.7282,-2.7299,-2.7351,-2.7558,-2.7592,-2.7833,-2.8575,-2.8696,-2.9023,-2.9989,-3.0144,-3.0144,-3.0144,-3.0144,-3.0162,-3.0197,-3.0231,-3.0162,-2.9988,-2.9971,-2.9884,-2.9676,-2.9253,-2.902,-2.902,-2.8832,-2.8774,-2.8885,-2.9129,-2.9246,-2.9246,-2.938,-2.9454,-2.9454,-2.9454,-2.9491,-2.9576,-3.0294,-3.0653,-3.0748,-3.1477,-3.2087,-3.2586,-3.2782,-3.2987,-3.3189,-3.3341,-3.3436,-3.3482,-3.3346,-3.3282,-3.3224,0.0,0.0,0.0,0.0,0.0,0.0,0.0,0.0,0.0,0.0,0.0,0.0,0.0,0.0,0.0,-3.1484,-3.167,-3.1743,-3.1743,-3.191,-3.1999,-3.1999,-3.1999,-3.1999,-3.1999,0.0,0.0,0.0,0.0,0.0,0.0,0.0,0.0,0.0,-3.3712,-3.3583,-3.3203,0.0,-3.1997,-3.1964,-3.0449,-2.9502,-2.8941,-2.8215,-2.7815,-2.763,-2.7511,-2.7465,-2.7452,-2.7329,-2.7266,-2.7217,-2.7217,-2.7202,0.0,0.0,0.0,0.0,0.0,0.0,0.0,0.0,0.0,0.0,-2.7201,-2.7217,-2.7233,-2.7282,-2.7299,-2.742,-2.7851,-2.7937,-2.8075,-2.8506,-2.8575,-2.8799,-2.942,-2.9506,-2.9506,-2.9506,-2.9506,-2.9386,-2.9075,-2.9041,-2.892,-2.861,-2.8259,-2.8078,-2.8141,-2.7922,-2.7824,-2.7864,-2.8146,-2.8282,-2.8282,-2.8453,-2.8543,-2.8543,-2.8543,-2.8594,-2.8682,-2.9278,-2.9594,-2.9714,-3.0291,-3.054,-3.0563,-3.0775,-3.1418,-3.2297,-3.2395,-3.2559,-3.2672,-3.2375,-3.2327,-3.2352,0.0,0.0,-2.8392,-2.8392,-2.8392,0.0,0.0,0.0,0.0,0.0,0.0,0.0,0.0,0.0,0.0,0.0,-3.2568,-3.2747,-3.2747,-3.3068,-3.3271,-3.3271,-3.3271,-3.3271,-3.3271,0.0,0.0,0.0,0.0,0.0,0.0,0.0,0.0,0.0,-3.3468,-3.3072,-3.2329,-3.127,-3.0956,-3.1051,-2.9714,-2.891,-2.8469,-2.7915,-2.7844,-2.7978,-2.7728,-2.7657,-2.763,-2.7392,-2.7217,-2.7119,-2.7103,-2.7071,-2.7007,-2.6991,-2.6975,0.0,0.0,0.0,0.0,0.0,-2.6925,0.0,-2.7054,-2.7037,-2.7054,-2.7186,-2.7153,-2.7137,-2.7137,-2.7186,-2.7202,-2.7169,-2.7234,-2.7747,-2.9075,-2.9265,-2.9265,-2.9265,-2.9265,-2.9006,-2.8334,-2.8282,-2.799,-2.7302,-2.7234,-2.7296,-2.7419,-2.7481,-2.7554,-2.7672,-2.7882,-2.7968,-2.7968,-2.8067,-2.8154,-2.8168,-2.8168,-2.8291,-2.8471,-2.8479,-2.8594,-2.8755,-2.8761,-2.8761,-2.8761,-2.8957,-3.0112,-3.1774,-3.1814,-3.2041,-3.2268,-3.1508,-3.1345,-3.1386,-2.8392,-2.8392,-2.8392,-2.8392,0.0,0.0,0.0,0.0,0.0,0.0,0.0,0.0,0.0,0.0,0.0,0.0,0.0,-3.2402,-3.2402,-3.2469,-3.2503,-3.2503,-3.2503,-3.2503,-3.2503,-3.2361,0.0,0.0,0.0,0.0,0.0,0.0,0.0,0.0,-3.2307,-3.19,-3.176,-3.0249,-2.9653,-2.9623,-2.8711,-2.8286,-2.8156,-2.7829,-2.76,-2.7452,-2.739,-2.7392,-2.7376,-2.733,-2.7282,-2.7233,-2.7135,-2.7086,-2.7054,-2.6942,-2.6926,0.0,0.0,0.0,0.0,-2.6418,-2.6435,0.0,-2.6942,-2.6758,-2.6539,-2.6573,-2.6315,-2.6089,-2.6089,-2.6402,-2.659,-2.6367,-2.6875,-2.7385,-2.7678,-2.773,-2.773,-2.773,-2.773,-2.7661,-2.7523,-2.7506,-2.734,-2.6924,-2.6891,-2.6907,-2.694,-2.7293,-2.7511,-2.7539,-2.7689,-2.776,-2.776,-2.7774,-2.7879,-2.8042,-2.8042,-2.8126,-2.8264,-2.8432,-2.8453,-2.8401,-2.8515,-2.8509,-2.842,-2.8572,-2.9038,-2.9717,-2.999,-3.0152,-3.0195,-3.0205,-3.022,-3.0224,-2.945,-2.945,-2.945,-2.945,0.0,0.0,0.0,0.0,0.0,0.0,0.0,0.0,0.0,0.0,0.0,0.0,0.0,0.0,0.0,0.0,-3.23,-3.23,-3.23,-3.23,-3.23,-3.23,-3.2368,0.0,0.0,0.0,0.0,0.0,0.0,0.0,0.0,0.0,-3.0287,-2.9458,-2.8937,-2.8603,-2.8113,-2.7897,-2.7869,-2.7615,-2.7421,-2.7299,-2.7299,-2.7266,-2.7168,-2.6973,-2.699,-2.7041,-2.6674,-2.6573,-2.6607,-2.664,-2.6572,-2.6435,-2.6175,-2.6104,-2.6068,-2.5924,-2.5888,0.0,0.0,-2.6208,-2.6067,-2.6104,-2.5928,-2.5801,-2.5801,-2.5983,-2.6142,-2.6105,-2.6556,-2.6874,-2.6859,-2.6974,-2.7055,-2.7055,-2.7055,-2.7006,-2.6859,-2.6974,-2.6924,-2.6607,-2.6607,-2.6607,-2.6607,-2.6825,-2.6956,-2.6956,-2.7116,-2.7258,-2.74,-2.7474,-2.7609,-2.785,-2.785,-2.794,-2.8099,-2.8105,-2.8119,-2.815,-2.8106,-2.8061,-2.8006,-2.8166,-2.8368,-2.859,-2.9144,-2.9445,-2.9617,-2.9697,-2.982,-2.9902,-3.0468,-3.0506,-3.0506,-3.0506,0.0,0.0,0.0,0.0,0.0,0.0,0.0,0.0,0.0,0.0,0.0,0.0,0.0,0.0,0.0,0.0,-3.2092,-3.2092,-3.2092,-3.2092,-3.2092,-3.2092,-3.2127,-3.2179,0.0,0.0,0.0,0.0,0.0,0.0,0.0,0.0,0.0,0.0,-2.826,-2.7811,-2.7639,-2.7642,-2.7672,-2.7405,-2.7282,-2.725,-2.7153,-2.7023,-2.6807,-2.6556,-2.6573,-2.6607,-2.619,-2.6033,-2.6068,-2.6279,-2.6175,-2.598,-2.598,-2.5926,-2.5799,-2.5465,-2.5389,-2.5427,0.0,0.0,0.0,-2.5617,-2.558,-2.5524,-2.5524,-2.5598,-2.5658,-2.5619,-2.5925,-2.61,-2.5845,-2.5983,-2.6269,-2.6674,-2.6708,-2.659,-2.6251,-2.6236,-2.6152,-2.5931,-2.6031,-2.6114,-2.6114,-2.63,-2.6401,-2.6401,-2.6556,-2.6741,-2.6956,-2.7067,-2.7257,-2.7504,-2.7504,-2.7642,-2.785,-2.7701,-2.7716,-2.7882,-2.7733,-2.7642,-2.7644,-2.7829,-2.7929,-2.8024,-2.8719,-2.9177,-2.9456,-2.9494,-2.9635,-2.9794,-3.0405,-3.0506,-3.0506,-3.0506,0.0,0.0,0.0,0.0,0.0,0.0,0.0,0.0,0.0,0.0,0.0,0.0,0.0,0.0,-3.1269,-3.1291,0.0,-3.1329,-3.1329,-3.1329,-3.1329,-3.1329,-3.1485,-3.1769,0.0,0.0,0.0,0.0,0.0,0.0,-2.9128,0.0,0.0,0.0,-2.7204,-2.7197,-2.7181,-2.7384,-2.7672,-2.7405,-2.7233,-2.707,-2.6641,-2.6263,-2.5999,-2.6314,-2.6192,-2.5946,-2.619,-2.603,-2.5795,-2.605,-2.5872,-2.5577,-2.5577,-2.5313,-2.504,-2.4981,-2.4962,-2.5079,-2.5446,0.0,-2.4981,-2.5001,0.0,-2.4472,-2.4472,0.0,0.0,-2.4017,-2.4507,-2.4671,-2.3774,-2.3676,-2.4374,-2.6216,-2.6453,-2.6201,-2.5564,-2.473,-2.4216,-2.4183,-2.4745,-2.5074,-2.5074,-2.5912,-2.6401,-2.6401,-2.6418,-2.6453,-2.6487,-2.6487,-2.6607,-2.6808,-2.6808,-2.702,-2.738,-2.7365,-2.7413,-2.7557,-2.7542,-2.7467,-2.736,-2.7496,-2.7674,-2.7872,-2.8363,-2.87,-2.8918,-2.9086,-2.9286,-2.946,-3.0363,-3.0506,-3.0506,-3.0506,0.0,0.0,0.0,0.0,0.0,0.0,0.0,0.0,-3.0915,-3.1032,-3.1112,-3.119,-3.119,-3.119,-3.119,-3.119,0.0,-3.119,-3.119,-3.119,-3.119,-3.119,-3.1269,-3.1408,-3.1408,0.0,0.0,0.0,0.0,0.0,-2.806,0.0,-2.6924,-2.6724,-2.6674,-2.6691,-2.6691,-2.6807,-2.6986,-2.689,-2.6624,-2.6317,-2.6123,-2.5908,-2.5723,-2.5666,-2.5649,-2.5596,-2.5368,-2.5288,-2.5272,-2.5519,-2.5387,-2.5141,-2.5141,-2.504,-2.4843,-2.4599,-2.4553,-2.4594,-2.4779,-2.4679,-2.4553,-2.4553,0.0,0.0,0.0,0.0,0.0,0.0,-2.4261,-2.4174,-2.3704,-2.3447,-2.3625,-2.4488,-2.4605,-2.4542,-2.4364,-2.3949,-2.3667,-2.3667,-2.3929,-2.4092,-2.4092,-2.4868,-2.5315,-2.5315,-2.5724,-2.601,-2.6171,-2.6171,-2.6279,-2.6521,-2.6521,-2.6758,-2.7164,-2.6889,-2.6955,-2.7261,-2.6972,-2.6924,-2.7006,-2.7069,-2.7261,-2.7542,-2.7815,-2.8152,-2.8541,-2.8785,-2.8955,-2.9086,-2.9962,-3.0113,-3.0113,-3.0113,0.0,0.0,0.0,0.0,0.0,0.0,0.0,-3.0794,-3.0892,-3.0975,-3.1075,-3.119,-3.119,-3.119,-3.119,-3.119,-3.1151,-3.1015,-3.1131,-3.1151,-3.1015,-3.1114,-3.119,-3.119,0.0,0.0,0.0,0.0,0.0,0.0,0.0,-2.6797,-2.6122,-2.6262,-2.6279,-2.6208,-2.6208,-2.6273,-2.6405,-2.6511,-2.6261,-2.5905,-2.6062,-2.6025,-2.5862,-2.568,-2.5668,-2.5624,-2.5105,-2.4997,-2.5015,-2.5103,-2.4938,-2.4759,-2.4863,-2.4803,-2.4659,-2.4385,-2.4302,-2.4302,-2.4302,-2.4302,-2.4302,-2.4302,-2.4302,0.0,0.0,0.0,0.0,0.0,0.0,-2.3456,-2.3227,-2.2778,-2.2636,-2.3125,-2.3065,-2.3021,-2.3173,-2.301,-2.2912,-2.2912,-2.3091,-2.3204,-2.3204,-2.3852,-2.4322,-2.4482,-2.5017,-2.5482,-2.5899,-2.5899,-2.599,-2.6173,-2.6173,-2.6401,-2.6791,-2.6453,-2.6521,-2.6891,-2.6556,-2.6521,-2.6708,-2.6758,-2.694,-2.7185,-2.7374,-2.7686,-2.8061,-2.8389,-2.8578,-2.8706,-2.9051,-2.9143,0.0,0.0,-2.9143,0.0,0.0,-3.0215,-3.0506,-3.0506,-3.0733,-3.0892,-3.0892,-3.1072,-3.119,-3.119,-3.119,-3.119,-3.119,-3.119,-3.0995,-3.0539,-3.0975,-3.0995,-3.0539,-3.0975,-3.119,-3.119,-3.048,0.0,0.0,0.0,0.0,0.0,-2.7029,-2.6487,-2.6104,-2.6122,-2.5961,-2.5721,-2.5721,-2.5879,-2.617,-2.6552,-2.6434,-2.6168,-2.6741,-2.6707,-2.6452,-2.68,-2.6633,-2.6222,-2.5947,-2.5597,-2.5234,-2.4988,-2.4619,-2.439,-2.4784,-2.4634,-2.4317,-2.4302,-2.4302,-2.4302,-2.4302,-2.4302,-2.4302,-2.4302,-2.4302,-2.4302,-2.4302,0.0,0.0,0.0,0.0,0.0,0.0,-2.0815,-2.1019,-2.271,-2.2456,-2.2143,-2.2143,-2.1682,-2.1374,-2.1374,-2.2037,-2.2426,-2.2426,-2.3139,-2.382,-2.4484,-2.4515,-2.4871,-2.5616,-2.5616,-2.5616,-2.5635,-2.5635,-2.5768,-2.6028,-2.601,-2.6171,-2.6418,-2.6401,-2.6401,-2.6435,-2.6691,-2.6808,-2.6858,-2.7169,-2.733,-2.7392,-2.7844,-2.8143,-2.8324,-2.8067,-2.8116,0.0,-2.8982,-2.9097,-2.9143,-2.9303,-2.9461,-2.9611,-2.9677,-3.0164,-3.0551,-3.069,-3.1165,-3.1504,-3.1587,-3.1587,-3.1413,-3.0942,-3.1227,-3.099,-3.007,-3.0477,-3.0535,-3.0054,-3.0182,-3.0053,-2.9601,-2.937,0.0,0.0,0.0,0.0,0.0,0.0,-2.5427,-2.5313,-2.5313,-2.531,-2.5352,-2.5798,-2.6097,-2.6296,-2.6448,-2.6426,-2.6343,-2.6532,-2.6499,-2.6371,-2.6543,-2.6499,-2.6341,-2.6264,-2.6143,-2.6024,-2.5908,-2.5803,-2.5716,-2.5868,-2.5441,-2.4958,-2.4958,-2.4641,-2.4302,-2.4302,-2.4302,-2.4302,-2.4302,-2.4302,-2.4302,-2.4302,0.0,0.0,0.0,0.0,0.0,0.0,-2.0996,-2.0526,-2.1115,-2.1097,-2.1041,-2.1041,-2.1117,-2.1183,-2.1183,-2.1472,-2.1665,-2.1665,-2.2361,-2.3107,-2.382,-2.4274,-2.4855,-2.5581,-2.5597,-2.5597,-2.5597,-2.5597,-2.5749,-2.5992,-2.5824,-2.5881,-2.6136,-2.5954,-2.5956,-2.6154,-2.6226,-2.6487,-2.6791,-2.6742,-2.6808,-2.7038,-2.7595,-2.7855,-2.7996,-2.76,-2.76,-2.781,-2.8439,-2.8685,-2.8818,-2.8818,-2.8982,-2.9215,-2.9515,-2.9966,-3.0426,-3.0845,-3.1301,-3.1662,-3.1797,-3.1797,-3.1697,-3.145,-3.133,-3.0925,-3.0226,-3.0228,-3.0032,-2.955,-2.9705,-2.9605,-2.9156,-2.8653,-2.792,0.0,0.0,0.0,0.0,0.0,-2.504,-2.4902,-2.4902,-2.5001,-2.5251,-2.6188,-2.6629,-2.678,-2.7011,-2.6949,-2.678,-2.7026,-2.7088,-2.7049,-2.7103,-2.7103,-2.7072,-2.6826,-2.6772,-2.6703,-2.6457,-2.6402,-2.6402,-2.6402,-2.6041,-2.5687,-2.5687,-2.5179,-2.4671,-2.4671,-2.4466,-2.4302,-2.4302,-2.4302,-2.4302,-2.4302,-2.4302,0.0,0.0,0.0,0.0,0.0,-2.0996,-2.0304,-2.0304,-2.0409,-2.0527,-2.0595,-2.0745,-2.0942,-2.1151,-2.1103,0.0,-2.1293,-2.1746,-2.2345,-2.3091,-2.3787,-2.4482,-2.5211,-2.5468,-2.5597,-2.5597,-2.5597,-2.5694,-2.5844,-2.5675,-2.5694,-2.5844,-2.5691,-2.5694,-2.5862,-2.5972,-2.619,-2.6521,-2.6435,-2.6504,-2.6708,-2.7211,-2.7491,-2.7659,-2.76,-2.76,-2.76,-2.76,-2.7978,-2.8295,-2.8326,-2.8748,-2.9304,-2.9903,-3.0125,-3.0505,-3.1292,-3.1526,-3.167,-3.1814,-3.1822,-3.2019,-3.251,-3.1492,-3.0858,-3.0823,-3.0176,-2.9582,-2.909,-2.9506,-2.9711,-2.9679,-2.8354,0.0,0.0,0.0,0.0,0.0,-2.5446,0.0,-2.4863,-2.491,-2.5108,-2.5512,-2.6857,-2.7411,-2.7519,-2.8165,-2.7996,-2.7534,-2.8181,-2.8411,-2.8411,-2.8411,-2.8411,-2.8288,-2.7642,-2.7442,-2.7319,-2.6672,-2.651,-2.651,-2.651,-2.6457,-2.6464,-2.6464,-2.5903,-2.5327,-2.5312,-2.4804,-2.4348,-2.4317,-2.4302,-2.4302,-2.4302,-2.4302,0.0,0.0,0.0,0.0,0.0,-2.0701,-2.027,-2.0252,-2.0375,-2.0544,-2.0745,-2.0545,-2.0646,-2.1198,-2.0844,0.0,0.0,-2.1277,-2.1617,-2.2377,-2.3123,-2.382,-2.4482,-2.5243,-2.5597,-2.5597,-2.5597,-2.5597,-2.5597,-2.5597,-2.5597,-2.5597,-2.5597,-2.5597,-2.5616,-2.5881,-2.599,-2.601,-2.6261,-2.6366,-2.6418,-2.6708,-2.6989,-2.7297,-2.76,-2.76,-2.76,-2.76,-2.771,-2.7951,-2.8439,-2.8657,-2.8986,-2.9759,-3.033,-3.0761,-3.1052,-3.1582,-3.1956,-3.209,-3.2117,-3.1991,-3.172,-3.1744,-3.1182,-2.9833,-2.9935,-2.958,-2.8612,-2.8692,-2.8514,-2.8022,-2.764,0.0,-2.5909,0.0,0.0,0.0,0.0,-2.4553,-2.4498,-2.4994,-2.5836,-2.6888,-2.7257,-2.7703,-2.8165,-2.8334,-2.8288,-2.8165,-2.835,-2.8411,-2.8411,-2.8411,-2.8411,-2.8381,-2.8211,-2.815,-2.8119,-2.7934,-2.7888,-2.7888,-2.7888,-2.7519,-2.7134,-2.7134,-2.6626,-2.5964,-2.5419,-2.5158,-2.4896,-2.441,-2.4302,-2.4302,-2.4302,-2.4302,-2.4302,0.0,0.0,0.0,-2.1071,-2.0352,-1.9839,-1.9636,-1.9836,-1.9997,-2.0052,-2.0308,-2.0461,-2.041,-2.0444,-2.0663,-2.1135,-2.0909,-2.1277,-2.2377,-2.3123,-2.382,-2.4482,-2.5243,-2.5597,-2.5597,-2.5597,-2.5597,-2.5597,-2.5597,-2.5597,-2.5597,-2.5597,-2.5597,-2.5616,-2.5675,-2.5807,-2.599,-2.5862,-2.5936,-2.6171,-2.6641,-2.6858,-2.6973,-2.76,-2.7839,-2.8049,-2.8049,-2.8289,-2.8513,-2.8592,-2.8846,-2.9292,-3.0018,-3.0436,-3.0837,-3.1293,-3.17,-3.1968,-3.2094,-3.2122,-3.2078,-3.2033,-3.1776,-3.128,-3.0469,-2.9925,-2.9345,-2.8768,-2.8477,-2.8163,-2.7842,-2.7487,0.0,-2.5727,0.0,0.0,0.0,0.0,-2.4471,-2.4789,-2.581,-2.6688,-2.7426,-2.7719,-2.8057,0.0,-2.8411,-2.8411,-2.8411,-2.8411,-2.8411,-2.8411,-2.8411,-2.8411,-2.8411,-2.8411,-2.8411,-2.8411,-2.8411,-2.8411,-2.8411,-2.8411,-2.8119,-2.7842,-2.7842,-2.7163,-2.6436,-2.6001,-2.5356,-2.4715,-2.4338,-2.4164,-2.4094,-2.4094,-2.4198,-2.424,-2.4114,0.0,-2.2161,-2.1156,-2.0426,-1.9845,-1.9443,-1.9527,-1.9584,-1.9424,-1.9892,-2.0137,-2.0017,-2.0067,-2.0224,-2.0548,-2.0413,-2.0601,-2.1298,-2.2276,-2.297,-2.3367,-2.4354,-2.4855,-2.4855,-2.5013,-2.5091,-2.5091,-2.5336,-2.5467,-2.5467,-2.5559,-2.5597,-2.5597,-2.5597,-2.5694,-2.5807,-2.5672,-2.5694,-2.5881,-2.6296,-2.6505,-2.6657,-2.7752,-2.8125,-2.85,-2.858,-2.9158,-2.9423,-2.891,-2.934,-2.9924,-3.0552,-3.0642,-3.0923,-3.1695,-3.1756,-3.1813,-3.1968,-3.1968,-3.2163,-3.2668,-3.1723,-3.1316,-3.1685,-3.0144,-2.9225,-2.917,-2.8589,-2.8327,-2.8372,-2.7653,0.0,0.0,0.0,0.0,0.0,0.0,0.0,0.0,-2.6872,-2.7442,-2.758,-2.8165,-2.8411,-2.8411,-2.8411,-2.8411,-2.8411,-2.8411,-2.8411,-2.8411,-2.8411,-2.8411,-2.8387,-2.8323,-2.8323,-2.8299,-2.825,-2.821,-2.821,-2.821,-2.821,-2.821,-2.821,-2.7485,-2.6735,-2.6645,-2.5494,-2.4416,-2.424,-2.4,-2.3823,-2.3747,-2.3967,-2.4073,-2.3782,-2.3176,-2.2377,-2.1388,-2.0661,-2.001,-1.9357,-1.9321,0.0,-1.8893,-1.9387,-1.9752,-1.9758,-1.966,-1.9678,-1.9864,-1.9829,-1.9846,-1.9899,-2.1208,-2.1907,-2.1907,-2.3238,-2.39,-2.39,-2.4199,-2.4328,-2.4348,-2.4875,-2.5123,-2.5143,-2.5333,-2.5448,-2.5505,-2.5505,-2.5543,-2.5597,-2.5597,-2.5597,-2.5635,-2.5862,-2.61,-2.6296,-2.8525,-2.8082,-2.7954,-2.8491,-2.9099,-2.9664,-3.0095,-3.0268,-3.0582,-3.1241,-3.1316,-3.1376,-3.1524,-3.1539,-3.1626,-3.1813,-3.1856,-3.1912,-3.2122,-3.1931,-3.1627,-3.1174,-3.0821,-3.013,-2.9062,-2.891,-2.8652,-2.8235,-2.7981,0.0,0.0,0.0,0.0,0.0,0.0,0.0,-2.7042,-2.7288,-2.7719,-2.8242,-2.835,-2.8411,-2.8411,-2.8411,-2.8411,-2.8411,-2.8411,-2.8411,-2.8411,-2.8411,-2.8411,-2.8323,-2.8005,-2.7905,-2.784,-2.7444,-2.7327,-2.7327,-2.7327,-2.7327,-2.7327,-2.7327,-2.7176,-2.6889,-2.6332,-2.5987,-2.5467,-2.4431,-2.4168,-2.3977,-2.3489,-2.3451,-2.3473,-2.3407,-2.2837,-2.206,-2.1096,-2.0405,-1.9645,-1.8763,-1.8855,-1.8874,-1.86,-1.9116,-1.9362,-1.9091,-1.9049,-1.9254,-1.9711,-1.9464,-1.9503,-1.9899,-2.1208,-2.1907,-2.1907,-2.3238,-2.39,-2.39,-2.3964,-2.3985,-2.3991,-2.409,-2.4209,-2.4307,-2.4349,-2.4619,-2.5017,-2.5017,-2.5262,-2.5597,-2.5597,-2.5597,-2.5616,-2.5637,-2.5694,-2.5789,-2.814,-2.8339,-2.8683,-2.9001,-2.9885,-3.0658,-3.0974,-3.133,-3.1511,-3.1511,-3.1511,-3.1511,-3.1511,-3.1511,-3.1539,-3.1641,-3.1641,-3.1683,-3.1741,-3.1741,-3.159,-3.1274,-3.0912,-3.0319,-2.9422,-2.907,-2.8647,-2.8103,-2.765,-2.7141,0.0,0.0,0.0,0.0,0.0,-2.6692,0.0,-2.7765,-2.8104,-2.8411,-2.8411,-2.8411,-2.8411,-2.8411,-2.8275,-2.8128,-2.8339,-2.8113,-2.7785,-2.825,-2.825,-2.8039,-2.7865,-2.7625,-2.7393,-2.7174,-2.7097,-2.7097,-2.7097,-2.7097,-2.7097,-2.7097,-2.6941,-2.6686,-2.6211,-2.579,-2.5225,-2.412,-2.3904,-2.3812,-2.3371,-2.3297,-2.3231,-2.3016,-2.2606,-2.201,-2.1219,-2.0437,-1.9663,-1.8904,-1.8739,-1.86,-1.838,-1.8697,-1.887,-1.8697,-1.8817,-1.8936,-1.9064,-1.8917,-1.894,-1.9169,-2.0445,-2.1132,-2.1132,-2.2367,-2.3009,-2.3031,-2.3187,-2.3275,-2.3282,-2.3601,-2.3788,-2.3852,-2.3958,-2.4173,-2.4497,-2.4558,-2.4715,-2.4946,-2.5166,-2.5243,-2.5262,-2.5505,-2.5597,-2.5635,-2.7785,-2.8591,-2.9302,-2.9453,-3.045,-3.1292,-3.1456,-3.2049,-3.2303,-3.1765,-3.1839,-3.1929,-3.1929,-3.1929,-3.1869,-3.172,-3.1705,-3.1645,-3.1511,-3.1511,-3.1438,-3.1278,-3.0773,-3.0179,-2.9527,-2.8872,-2.8297,-2.7759,-2.7041,-2.6425,0.0,0.0,0.0,0.0,0.0,-2.6752,-2.7366,-2.7884,-2.8113,-2.8113,-2.8113,-2.8113,-2.8113,-2.8113,-2.794,-2.77,-2.8014,-2.7685,-2.7199,-2.79,-2.79,-2.7625,-2.7549,-2.7265,-2.6967,-2.6864,-2.6837,-2.6837,-2.6837,-2.6837,-2.6837,-2.6837,-2.6563,-2.6231,-2.6028,-2.5473,-2.4756,-2.3897,-2.3596,-2.3369,-2.3043,-2.3016,-2.2949,-2.2572,-2.2328,-2.1931,-2.1229,-2.0415,-1.9698,-1.9085,-1.8662,-1.8361,-1.8163,-1.8361,-1.8478,-1.8439,-1.8664,-1.8721,-1.8517,-1.8498,-1.8554,-1.8694,-1.981,-2.0456,-2.0583,-2.1673,-2.2208,-2.2208,-2.2457,-2.2595,-2.2618,-2.3091,-2.3312,-2.3355,-2.3515,-2.3709,-2.3958,-2.4162,-2.4261,-2.4323,-2.4639,-2.4759,-2.4764,-2.5146,-2.5278,-2.5278,-2.8415,-2.8464,-2.8698,-2.9285,-2.9968,-3.0614,-3.1218,-3.1926,-3.2401,-3.2422,-3.2946,-3.3305,-3.3305,-3.3305,-3.3066,-3.2452,-3.2392,-3.2138,-3.154,-3.1511,-3.1219,-3.0614,-3.0526,-2.991,-2.8641,-2.8078,-2.7542,-2.7015,-2.6241,-2.5689,-2.5277,0.0,0.0,0.0,-2.655,-2.6839,-2.7136,-2.721,-2.7225,-2.7225,-2.7225,-2.7225,-2.7225,-2.7225,-2.7199,-2.7174,-2.7199,-2.7174,-2.7122,-2.7199,-2.7199,-2.7097,-2.6747,-2.659,-2.6484,-2.6123,-2.6029,-2.6029,-2.6029,-2.6029,-2.6029,-2.6029,-2.5798,-2.5605,-2.5578,-2.5258,-2.4817,-2.4191,-2.3393,-2.2626,-2.206,-2.2147,-2.2194,-2.1935,-2.1864,-2.1562,-2.0679,-2.0044,-1.941,-1.8812,-1.8446,-1.8143,-1.7942,-1.8282,-1.842,-1.8242,-1.842,-1.8537,-1.8498,-1.8498,-1.875,-1.9291,-2.0014,-2.0653,-2.1195,-2.187,-2.2208,-2.2208,-2.2217,-2.224,-2.224,-2.2324,-2.2402,-2.2509,-2.2518,-2.2889,-2.3493,-2.3937,-2.4183,-2.4302,-2.4343,-2.4287,-2.4168,-2.4209,-2.4245,-2.4245,-2.8968,-2.9291,-2.9623,-2.9882,-3.0479,-3.1001,-3.1254,-3.1876,-3.2283,-3.2335,-3.3017,-3.3499,-3.3499,-3.3499,-3.338,-3.3125,-3.2736,-3.2378,-3.2108,-3.1338,-3.0777,-3.0524,-3.0103,-2.9468,-2.8514,-2.8292,-2.7705,-2.6793,-2.6117,-2.5562,-2.508,-2.4869,-2.5118,-2.5728,-2.5783,-2.6201,-2.6849,-2.6651,-2.6756,-2.7097,-2.6927,-2.6953,-2.7097,-2.7097,-2.6941,-2.6759,-2.7019,-2.6695,-2.6177,-2.6416,-2.6602,-2.6707,-2.6563,-2.6231,-2.588,-2.5702,-2.5522,-2.5397,-2.5619,-2.5647,-2.5647,-2.5647,-2.5578,-2.5397,-2.4977,-2.4948,-2.4772,-2.3984,-2.3094,-2.2401,-2.2142,-2.2018,-2.1864,-2.1616,-2.1568,-2.1424,-2.1097,-2.0105,-1.9262,-1.8808,-1.8118,-1.7503,-1.7094,-1.7639,-1.7996,-1.7915,-1.8268,-1.8498,-1.8498,-1.8498,-1.8779,-1.9376,-1.9737,-2.0213,-2.0804,-2.1111,-2.1396,-2.1722,-2.1722,-2.1902,-2.2208,-2.2208,-2.2231,-2.2278,-2.237,-2.254,-2.2822,-2.3105,-2.3275,-2.3422,-2.3674,-2.3724,-2.3709,-2.4,-2.4042,-2.4,-2.9274,-2.983,-3.0253,-3.0253,-3.0779,-3.122,-3.122,-3.1751,-3.2152,-3.2152,-3.2905,-3.3407,-3.3407,-3.3407,-3.3319,-3.3128,-3.2526,-3.2085,-3.1894,-3.0842,-3.0117,-2.9934,-2.9456,-2.8872,-2.8239,-2.8047,-2.7539,-2.6701,-2.6094,-2.5416,-2.4721,-2.4131,-2.4262,-2.4979,-2.4979,-2.5439,-2.6174,-2.5959,-2.6094,-2.6455,-2.6269,-2.6322,-2.6481,-2.6575,-2.6404,-2.6109,-2.6484,-2.6069,-2.5397,-2.5674,-2.5892,-2.6055,-2.6055,-2.5729,-2.5341,-2.5341,-2.5188,-2.5033,-2.5285,-2.5341,-2.5341,-2.5341,-2.5285,-2.5061,-2.4609,-2.4622,-2.4503,-2.3665,-2.2938,-2.2395,-2.2219,-2.1915,-2.1568,-2.1166,-2.1118,-2.1044,-2.0847,-1.981,-1.8944,-1.8544,-1.7768,-1.7046,-1.647,-1.7026,-1.7407,-1.7338,-1.7781,-1.8135,-1.8288,-1.8434,-1.8748,-1.925,-1.9503,-1.9913,-2.0512,-2.0586,-2.0784,-2.1166,-2.1166,-2.1434,-2.1973,-2.2137,-2.2208,-2.2208,-2.2301,-2.237,-2.2417,-2.2486,-2.2629,-2.2758,-2.3098,-2.3194,-2.3143,-2.353,-2.3558,-2.3471,-2.9252,-2.9732,-3.0087,-3.0087,-3.0581,-3.0998,-3.0998,-3.1626,-3.211,-3.211,-3.2741,-3.3199,-3.3199,-3.3199,-3.296,-3.2274,-3.1724,-3.112,-3.0484,-2.9855,-2.9205,-2.8532,-2.8514,-2.8189,-2.7523,-2.6994,-2.6693,-2.668,-2.6086,-2.5236,-2.4099,-2.3483,-2.3695,-2.4509,-2.4509,-2.4694,-2.5033,-2.5033,-2.5033,-2.5033,-2.5033,-2.5033,-2.5061,-2.5397,-2.5313,-2.5061,-2.5397,-2.5313,-2.5005,-2.5005,-2.5033,-2.5033,-2.5033,-2.5005,-2.5005,-2.5005,-2.5005,-2.5005,-2.5005,-2.5005,-2.5005,-2.5005,-2.4765,-2.4509,-2.4509,-2.429,-2.3942,-2.3341,-2.2999,-2.2605,-2.2018,-2.1619,-2.1191,-2.0523,-2.0422,-2.0169,-1.9525,-1.8903,-1.8326,-1.7872,-1.7444,-1.6943,-1.6271,-1.657,-1.6727,-1.6543,-1.6837,-1.7242,-1.7767,-1.8301,-1.8679,-1.8894,-1.9423,-1.9997,-2.0597,-2.061,-2.061,-2.061,-2.061,-2.0896,-2.1423,-2.1973,-2.2208,-2.2208,-2.2208,-2.2278,-2.2394,-2.2394,-2.2486,-2.2615,-2.2735,-2.2644,-2.2417,-2.2555,-2.2532,-2.2417,-3.0451,-3.0594,-3.0712,-3.0712,-3.0869,-3.0986,-3.0986,-3.1185,-3.1371,-3.1371,-3.1542,-3.169,-3.169,-3.2591,-3.3108,-3.2912,-3.2302,-3.1685,-3.1101,-3.0062,-2.9149,-2.8527,-2.8072,-2.7723,-2.749,-2.732,-2.7066,-2.6706,-2.6523,-2.602,-2.5245,-2.5049,-2.5123,-2.5371,-2.4994,-2.5001,-2.5239,-2.4649,-2.462,-2.4977,-2.4765,-2.4793,-2.5005,-2.5131,-2.5103,-2.5005,-2.5131,-2.4948,-2.4666,-2.4666,-2.4536,-2.439,-2.439,-2.452,-2.4666,-2.4666,-2.4536,-2.4419,-2.4622,-2.4666,-2.4666,-2.4666,-2.458,-2.4465,-2.4261,-2.4157,-2.4031,-2.3848,-2.3122,-2.2362,-2.1843,-2.1199,-2.0498,-1.9823,-1.9862,-1.9862,-1.9473,-1.8878,-1.8361,-1.7978,-1.7496,-1.7015,-1.6514,-1.6953,-1.7291,-1.7304,-1.7751,-1.7967,-1.7804,-1.8052,-1.8582,-1.9412,-1.926,-1.9445,-2.0055,-1.9695,-1.9695,-2.0055,-2.0055,-2.0334,-2.0858,-2.141,-2.1458,-2.1129,-2.1506,-2.1482,-2.1188,-2.1578,-2.1793,-2.1973,-2.2361,-2.2477,-2.2417,-2.244,-2.237,-2.2278,-3.0748,-3.0836,-3.0874,-3.0874,-3.0949,-3.0986,-3.0986,-3.0986,-3.0986,-3.0986,-3.0986,-3.0986,-3.0986,-3.1823,-3.2376,-3.2376,-3.1771,-3.117,-3.0637,-2.9632,-2.8739,-2.8151,-2.7723,-2.749,-2.749,-2.749,-2.7353,-2.7,-2.6811,-2.6523,-2.6138,-2.5897,-2.5793,-2.578,-2.5445,-2.5398,-2.5493,-2.497,-2.4962,-2.5274,-2.507,-2.5113,-2.5306,-2.5195,-2.5085,-2.4972,-2.4845,-2.4622,-2.4334,-2.4334,-2.4245,-2.4083,-2.4083,-2.4216,-2.4334,-2.4334,-2.4245,-2.4141,-2.4305,-2.4334,-2.4416,-2.4628,-2.4535,-2.4319,-2.4141,-2.4083,-2.4083,-2.4083,-2.3225,-2.2277,-2.1797,-2.0955,-2.0062,-1.93,-1.9303,-1.9291,-1.896,-1.8594,-1.8203,-1.7822,-1.7488,-1.7093,-1.6646,-1.6934,-1.7205,-1.729,-1.7641,-1.7819,-1.7729,-1.8116,-1.8574,-1.9129,-1.902,-1.9129,-1.95,-1.9172,-1.9172,-1.95,-1.9695,-1.9978,-2.0308,-2.0833,-2.0921,-2.061,-2.0932,-2.0921,-2.0635,-2.0957,-2.1142,-2.1275,-2.1864,-2.1959,-2.1756,-2.2006,-2.1888,-2.1612,-3.0406,-3.0571,-3.0736,-3.0736,-3.0874,-3.0986,-3.0986,-3.0986,-3.0986,-3.0986,-3.0986,-3.0986,-3.0986,-3.0986,-3.0986,-3.0986,-3.0503,-2.9918,-2.9379,-2.8778,-2.819,-2.7581,-2.7516,-2.749,-2.749,-2.749,-2.749,-2.749,-2.7,-2.6771,-2.6758,-2.619,-2.591,-2.591,-2.5871,-2.5845,-2.5845,-2.5806,-2.5793,-2.5793,-2.5793,-2.5793,-2.5759,-2.5527,-2.5255,-2.5009,-2.4697,-2.4437,-2.42,-2.42,-2.42,-2.42,-2.4171,-2.4145,-2.4106,-2.4067,-2.4083,-2.4083,-2.4024,-2.4054,-2.4213,-2.4749,-2.4471,-2.409,-2.406,-2.4047,-2.4047,-2.3995,-2.3167,-2.2264,-2.1721,-2.0797,-1.983,-1.8908,-1.8744,-1.861,-1.8166,-1.8084,-1.7939,-1.7484,-1.7453,-1.7243,-1.6747,-1.6701,-1.6701,-1.6727,-1.6838,-1.7134,-1.7636,-1.8444,-1.8671,-1.8253,-1.8734,-1.8987,-1.8987,-1.8987,-1.8987,-1.9013,-1.95,-1.9747,-1.9747,-2.0308,-2.051,-2.0485,-2.0535,-2.051,-2.0485,-2.0535,-2.0535,-2.061,-2.1275,-2.1142,-2.0684,-2.1313,-2.1142,-2.061,-3.0622,-3.0798,-3.0911,-3.0911,-3.0986,-3.0986,-3.0986,-3.0986,-3.0986,-3.0986,-3.0986,-3.0986,-3.0986,-3.0986,-3.0986,-3.0986,-3.0869,-3.0542,-2.9931,-2.9392,-2.8839,-2.8203,-2.7771,-2.749,-2.749,-2.749,-2.749,-2.749,-2.7359,-2.7327,-2.7327,-2.715,-2.7098,-2.7072,-2.6674,-2.6478,-2.6452,-2.6007,-2.5793,-2.5793,-2.5793,-2.5793,-2.578,-2.573,-2.5677,-2.5602,-2.552,-2.5437,-2.5388,-2.5388,-2.5388,-2.5327,-2.4922,-2.4522,-2.4106,-2.3697,-2.3819,-2.3923,-2.316,-2.3514,-2.4063,-2.3838,-2.3948,-2.3999,-2.3642,-2.358,-2.3455,-2.3037,-2.2437,-2.1699,-2.0843,-2.0141,-1.9353,-1.841,-1.8275,-1.822,-1.8111,-1.8084,-1.8077,-1.7951,-1.7928,-1.7882,-1.7768,-1.7756,-1.7809,-1.7954,-1.8007,-1.8107,-1.8357,-1.8569,-1.8675,-1.866,-1.878,-1.8893,-1.8987,-1.8987,-1.8987,-1.8987,-1.9119,-1.9198,-1.9225,-1.9747,-1.9773,-1.9396,-1.9798,-1.9759,-1.9422,-1.9824,-2.0003,-2.0055,-2.061,-2.0734,-2.061,-2.0784,-2.0734,-2.061,-3.0432,-3.0495,-3.0609,-3.071,-3.0798,-3.0836,-3.0836,-3.0949,-3.0986,-3.0986,-3.0986,-3.0986,-3.0986,-3.0986,-3.0986,-3.0986,-3.0986,-3.0738,-3.014,-2.9849,-2.9287,-2.8446,-2.8085,-2.7798,-2.7503,-2.749,-2.749,-2.749,-2.749,-2.749,-2.749,-2.749,-2.749,-2.7477,-2.721,-2.7066,-2.704,-2.6707,-2.6447,-2.6206,-2.6206,-2.6076,-2.5841,-2.5554,-2.542,-2.5427,-2.5441,-2.5262,-2.5058,-2.5339,-2.5262,-2.4963,-2.4673,-2.4396,-2.4053,-2.3559,-2.3392,-2.3292,-2.2756,-2.301,-2.3365,-2.3095,-2.3435,-2.3754,-2.3484,-2.3212,-2.3015,-2.2966,-2.2384,-2.162,-2.0854,-2.0099,-1.9337,-1.8591,-1.826,-1.8084,-1.8084,-1.8084,-1.8084,-1.8084,-1.8084,-1.8084,-1.8084,-1.8084,-1.815,-1.8259,-1.8259,-1.8275,-1.8383,-1.8371,-1.8491,-1.8706,-1.8706,-1.8759,-1.8919,-1.8972,-1.8987,-1.8987,-1.8987,-1.8987,-1.9013,-1.9291,-1.9277,-1.9025,-1.9317,-1.9265,-1.9013,-1.9317,-1.9422,-1.95,-2.0029,-2.008,-1.9901,-2.0131,-2.008,-1.9875,-3.0113,-3.0113,-3.019,-3.0368,-3.0533,-3.066,-3.0698,-3.0849,-3.0986,-3.0986,-3.0986,-3.0986,-3.0986,-3.0986,-3.0986,-3.0986,-3.0986,-3.0777,-3.0257,-3.014,-2.9657,-2.8686,-2.8477,-2.815,-2.7633,-2.7542,-2.749,-2.749,-2.749,-2.749,-2.749,-2.749,-2.749,-2.749,-2.7423,-2.7403,-2.7356,-2.7289,-2.6985,-2.6577,-2.6577,-2.6289,-2.5847,-2.5323,-2.5151,-2.5124,-2.5144,-2.4793,-2.4439,-2.4968,-2.4793,-2.4373,-2.4262,-2.418,-2.402,-2.3532,-2.3038,-2.2634,-2.2634,-2.2604,-2.2604,-2.2604,-2.299,-2.3357,-2.3198,-2.2821,-2.259,-2.2992,-2.2387,-2.163,-2.1079,-2.0326,-1.9608,-1.9,-1.8501,-1.8203,-1.8123,-1.8084,-1.8084,-1.8084,-1.8084,-1.8084,-1.8084,-1.8084,-1.8084,-1.8084,-1.8084,-1.8146,-1.8226,-1.8226,-1.8398,-1.874,-1.8724,-1.8806,-1.9024,-1.9048,-1.908,-1.9107,-1.9035,-1.8987,-1.8987,-1.8987,-1.8987,-1.8987,-1.8987,-1.8987,-1.8987,-1.8987,-1.8987,-1.904,-1.95,-1.9396,-1.9066,-1.9526,-1.9396,-1.8987,-3.0113,-3.0228,-3.0368,-3.0406,-3.0444,-3.0482,-3.066,-3.0736,-3.0811,-3.0986,-3.0986,-3.0986,-3.0986,-3.0986,-3.0986,-3.0986,-3.0986,-3.0947,-3.0869,-3.0361,-3.0022,-2.9839,-2.8908,-2.8381,-2.8242,-2.7771,-2.749,-2.749,-2.749,-2.749,-2.749,-2.749,-2.749,-2.7503,-2.7019,-2.6816,-2.6782,-2.6346,-2.6104,-2.6035,-2.6035,-2.5965,-2.5884,-2.581,-2.5773,-2.5761,-2.5743,-2.5706,-2.5637,-2.5719,-2.5706,-2.5534,-2.5012,-2.4585,-2.4136,-2.3561,-2.3074,-2.2667,-2.2667,-2.2683,-2.2675,-2.2675,-2.2767,-2.2698,-2.2243,-2.2055,-2.1925,-2.1609,-2.1438,-2.1123,-2.0615,-2.0373,-1.9998,-1.9046,-1.8827,-1.8632,-1.8169,-1.8084,-1.8084,-1.8084,-1.8084,-1.8084,-1.8084,-1.8084,-1.8084,-1.8084,-1.8084,-1.8306,-1.8747,-1.8782,-1.9017,-1.9523,-1.9199,-1.9362,-2.0053,-1.9642,-1.9511,-1.9676,-1.923,-1.8987,-1.8987,-1.8987,-1.8987,-1.8987,-1.8987,-1.8987,-1.8987,-1.8987,-1.8987,-1.9013,-1.9093,-1.9066,-1.9013,-1.9093,-1.9066,-1.8987,-3.0075,-3.0075,-3.0113,-3.0228,-3.0152,-3.0152,-3.0356,-3.0546,-3.0736,-3.0849,-3.0911,-3.0986,-3.0986,-3.0986,-3.0986,-3.0986,-3.0911,-3.0874,-3.0986,-3.0738,-3.0451,-3.0113,-2.9614,-2.9026,-2.8399,-2.7824,-2.749,-2.749,-2.749,-2.749,-2.749,-2.749,-2.7356,-2.7053,-2.6816,-2.6543,-2.6255,-2.6,-2.5721,-2.5441,-2.5441,-2.5229,-2.4993,-2.4993,-2.4993,-2.5028,-2.53,-2.5229,-2.5028,-2.5335,-2.5229,-2.4921,-2.4683,-2.4411,-2.4201,-2.3916,-2.3293,-2.2719,-2.2719,-2.2715,-2.2638,-2.2358,-2.2288,-2.219,-2.196,-2.1709,-2.1525,-2.1571,-2.1385,-2.1121,-2.0891,-2.0595,-2.0262,-1.9792,-1.9493,-1.9241,-1.9011,-1.8948,-1.8948,-1.8948,-1.8948,-1.8948,-1.8948,-1.8948,-1.8948,-1.8948,-1.8948,-1.908,-1.931,-1.9321,-1.9436,-1.9688,-1.9582,-1.9703,-2.0082,-1.9905,-1.9918,-2.0076,-1.9809,-1.9757,-1.9865,-1.9865,-1.9865,-1.9865,-1.9865,-1.9865,-1.9865,-1.9865,-1.9865,-1.9865,-1.9865,-1.9865,-1.9865,-1.9865,-1.9865,-1.9817,-3.0011,-2.9895,-2.9869,-3.0011,-2.9895,-2.9869,-3.0075,-3.0343,-3.0584,-3.0609,-3.0596,-3.0583,-3.071,-3.0419,-3.0381,-3.0659,-3.0482,-3.0482,-3.0836,-3.0672,-3.039,-3.0088,-2.9822,-2.9215,-2.8226,-2.7738,-2.7431,-2.7323,-2.7423,-2.7436,-2.7323,-2.7323,-2.7019,-2.6508,-2.6358,-2.6082,-2.5687,-2.5546,-2.5229,-2.4802,-2.4802,-2.4575,-2.42,-2.42,-2.42,-2.4261,-2.4671,-2.4527,-2.4261,-2.4671,-2.4539,-2.42,-2.42,-2.42,-2.42,-2.42,-2.3638,-2.3006,-2.2891,-2.2857,-2.2731,-2.2226,-2.1986,-2.1894,-2.1894,-2.1537,-2.1305,-2.1663,-2.1433,-2.119,-2.119,-2.0848,-2.0549,-2.0435,-2.0102,-1.9815,-1.9711,-1.9688,-1.9688,-1.9688,-1.9688,-1.9688,-1.9688,-1.9688,-1.9688,-1.9688,-1.9688,-1.9746,-1.9849,-1.9861,-1.9907,-2.0033,-2.0026,-2.0104,-2.0249,-2.024,-2.0288,-2.0452,-2.035,-2.0361,-2.0541,-2.0581,-2.0581,-2.0581,-2.0581,-2.0581,-2.0581,-2.0581,-2.0581,-2.0581,-2.0581,-2.0581,-2.0581,-2.0581,-2.0581,-2.0521,-2.983,-2.9792,-2.9792,-2.983,-2.9792,-2.9869,-3.0075,-3.0126,-3.019,-3.0406,-2.9716,-2.9394,-2.9742,-2.873,-2.8521,-2.9704,-2.9433,-2.9561,-3.0394,-2.9678,-2.9459,-2.9973,-2.8948,-2.8126,-2.7669,-2.7548,-2.7268,-2.6748,-2.7255,-2.7255,-2.6748,-2.6748,-2.6461,-2.5931,-2.5358,-2.5111,-2.5052,-2.4539,-2.4298,-2.4261,-2.4261,-2.4236,-2.42,-2.42,-2.42,-2.42,-2.4225,-2.4225,-2.42,-2.4261,-2.4225,-2.42,-2.42,-2.42,-2.42,-2.42,-2.4143,-2.3982,-2.3476,-2.335,-2.3224,-2.2754,-2.2271,-2.1894,-2.1894,-2.1537,-2.1213,-2.1236,-2.1224,-2.119,-2.119,-2.1167,-2.0983,-2.0481,-2.0377,-2.0205,-1.9757,-1.9688,-1.9688,-1.9688,-1.9688,-1.9688,-1.9688,-1.9688,-1.9688,-1.9688,-1.9688,-1.9884,-2.0331,-2.0354,-2.0572,-2.1063,-2.0626,-2.0665,-2.1272,-2.0819,-2.0666,-2.0847,-2.047,-2.0291,-2.0332,-2.0512,-2.0581,-2.0581,-2.0581,-2.0581,-2.0581,-2.0581,-2.0581,-2.0581,-2.0581,-2.0581,-2.0581,-2.0581,-2.0581,-2.0598,-2.9792,-2.9792,-2.9792,-2.9792,-2.9792,-2.983,-2.9895,-3.0011,-3.0113,-3.019,-2.9574,-2.916,-2.9316,-2.8414,-2.8004,-2.8481,-2.8267,-2.8307,-2.877,-2.7988,-2.7959,-2.8951,-2.8488,-2.8136,-2.7977,-2.7319,-2.6824,-2.6661,-2.6556,-2.638,-2.6208,-2.6208,-2.5896,-2.5323,-2.5111,-2.4802,-2.4503,-2.4298,-2.42,-2.42,-2.42,-2.42,-2.42,-2.42,-2.42,-2.42,-2.42,-2.42,-2.42,-2.42,-2.42,-2.42,-2.42,-2.42,-2.42,-2.42,-2.42,-2.4154,-2.3959,-2.3913,-2.3787,-2.3247,-2.2972,-2.2674,-2.2043,-2.1778,-2.1548,-2.1259,-2.119,-2.119,-2.119,-2.119,-2.1132,-2.0937,-2.0914,-2.0845,-2.0661,-2.0638,-2.0638,-2.0638,-2.0638,-2.0638,-2.0638,-2.0211,-2.0149,-2.0607,-2.0211,-2.0228,-2.0859,-2.0914,-2.0994,-2.119,-2.1006,-2.1026,-2.1273,-2.1057,-2.1047,-2.1191,-2.1054,-2.1082,-2.1288,-2.1361,-2.1463,-2.1596,-2.1596,-2.1596,-2.1596,-2.1596,-2.1596,-2.1596,-2.1596,-2.1596,-2.1596,-2.1596,-2.1596,-2.1476,-2.9378,-2.9378,-2.93,-2.9,-2.9209,-2.9287,-2.9,-2.9314,-2.9509,-2.9184,-2.8767,-2.8438,-2.8291,-2.7371,-2.6924,-2.7371,-2.7139,-2.7128,-2.7562,-2.6905,-2.6917,-2.7867,-2.7628,-2.7486,-2.7553,-2.6796,-2.6332,-2.6118,-2.6007,-2.5798,-2.5604,-2.5499,-2.5111,-2.4551,-2.4551,-2.4347,-2.4007,-2.4164,-2.4127,-2.4007,-2.4007,-2.4007,-2.4007,-2.4007,-2.408,-2.4189,-2.4055,-2.4007,-2.397,-2.3861,-2.3824,-2.3861,-2.397,-2.4091,-2.4164,-2.4043,-2.4007,-2.4007,-2.4007,-2.4007,-2.3963,-2.3693,-2.3522,-2.3224,-2.2525,-2.2123,-2.1791,-2.1479,-2.1305,-2.119,-2.119,-2.119,-2.119,-2.119,-2.119,-2.119,-2.119,-2.119,-2.119,-2.119,-2.119,-2.119,-2.119,-2.0528,-2.0302,-2.0828,-2.0399,-2.0431,-2.1158,-2.119,-2.119,-2.119,-2.119,-2.119,-2.119,-2.119,-2.1253,-2.1336,-2.1388,-2.1526,-2.1757,-2.18,-2.1937,-2.2092,-2.2092,-2.203,-2.1862,-2.1862,-2.1737,-2.1569,-2.1769,-2.1862,-2.1894,-2.2123,-2.2061,-2.1741,-2.8502,-2.8502,-2.8211,-2.7273,-2.7891,-2.8171,-2.7232,-2.7891,-2.8131,-2.7232,-2.7098,-2.6946,-2.6528,-2.5285,-2.5041,-2.6362,-2.6038,-2.6152,-2.7017,-2.6723,-2.6547,-2.6771,-2.6207,-2.5956,-2.608,-2.6046,-2.5704,-2.5087,-2.5704,-2.5648,-2.4981,-2.4564,-2.4107,-2.3593,-2.3593,-2.3593,-2.3641,-2.4007,-2.397,-2.3593,-2.3593,-2.3593,-2.3593,-2.3593,-2.3824,-2.4152,-2.3751,-2.3593,-2.3519,-2.315,-2.3001,-2.3075,-2.3482,-2.3861,-2.4127,-2.3714,-2.3593,-2.3593,-2.3593,-2.3593,-2.3677,-2.4091,-2.3786,-2.3419,-2.3407,-2.2628,-2.1906,-2.1894,-2.1525,-2.1201,-2.119,-2.119,-2.119,-2.119,-2.119,-2.119,-2.119,-2.119,-2.119,-2.119,-2.119,-2.119,-2.119,-2.0528,-2.0107,-2.0107,-2.0107,-2.0399,-2.1126,-2.119,-2.119,-2.119,-2.119,-2.119,-2.119,-2.119,-2.119,-2.119,-2.1336,-2.1388,-2.1388,-2.1592,-2.1749,-2.1894,-2.1894,-2.16,-2.1092,-2.1092,-2.0709,-2.0161,-2.0837,-2.1092,-2.1198,-2.1925,-2.1726,-2.1092,-2.8502,-2.7971,-2.7435,-2.7151,-2.7354,-2.7435,-2.7151,-2.7354,-2.7435,-2.7151,-2.6565,-2.6152,-2.6038,-2.5105,-2.4668,-2.5084,-2.4988,-2.4988,-2.5274,-2.5158,-2.5115,-2.5189,-2.5633,-2.5913,-2.5967,-2.5562,-2.5271,-2.5103,-2.4607,-2.4431,-2.4471,-2.3775,-2.3471,-2.3604,-2.3298,-2.3335,-2.3604,-2.342,-2.3446,-2.3567,-2.3298,-2.3187,-2.3187,-2.3187,-2.3261,-2.3335,-2.3224,-2.3187,-2.315,-2.3038,-2.3001,-2.3075,-2.3482,-2.3677,-2.3751,-2.3641,-2.3593,-2.3519,-2.3261,-2.3187,-2.3335,-2.4043,-2.4085,-2.3843,-2.3488,-2.3178,-2.2754,-2.2043,-2.1417,-2.1039,-2.1163,-2.0764,-2.0592,-2.1126,-2.119,-2.119,-2.119,-2.119,-2.119,-2.119,-2.0732,-2.0431,-2.0431,-1.9332,-1.88,-1.9299,-1.9342,-1.9408,-1.9639,-2.0139,-2.0431,-2.0431,-2.0924,-2.0967,-2.0431,-2.0431,-2.0431,-2.0431,-1.9922,-2.0053,-2.072,-2.0752,-2.0848,-2.0996,-2.0996,-2.059,-1.9966,-1.9966,-1.9868,-1.9705,-2.0063,-2.0193,-2.0225,-2.0581,-2.0592,-2.0323,-2.7424,-2.6976,-2.6494,-2.6133,-2.637,-2.6453,-2.6133,-2.637,-2.6453,-2.6133,-2.5913,-2.5663,-2.5306,-2.4818,-2.4497,-2.4497,-2.4497,-2.4497,-2.4497,-2.4497,-2.4497,-2.4497,-2.5052,-2.5348,-2.5348,-2.5007,-2.4844,-2.4816,-2.4255,-2.4124,-2.4327,-2.3634,-2.3368,-2.3398,-2.3134,-2.3063,-2.3113,-2.3038,-2.3038,-2.3113,-2.2852,-2.2777,-2.2777,-2.2777,-2.2852,-2.2964,-2.2815,-2.2777,-2.274,-2.259,-2.2628,-2.2815,-2.3038,-2.3224,-2.3335,-2.315,-2.3113,-2.3075,-2.2815,-2.2777,-2.2852,-2.3287,-2.3666,-2.3854,-2.3331,-2.3035,-2.2533,-2.1609,-2.075,-2.0192,-2.0314,-1.9855,-1.9726,-2.0516,-2.0645,-2.0677,-2.0764,-2.0764,-2.0667,-2.0366,-1.9933,-1.9671,-1.9671,-1.8667,-1.8172,-1.8576,-1.861,-1.871,-1.8977,-1.9408,-1.9671,-1.9671,-2.0366,-2.0399,-1.9671,-1.9671,-1.9671,-1.9671,-1.9199,-1.9309,-1.9868,-2.0161,-2.0226,-2.0107,-2.0409,-1.9977,-1.9112,-1.9112,-1.8957,-1.8767,-1.9112,-1.9278,-1.9344,-1.9716,-1.9759,-1.9529,-2.5777,-2.5746,-2.5421,-2.4658,-2.5147,-2.5421,-2.4615,-2.5179,-2.5379,-2.4615,-2.5179,-2.5379,-2.4583,-2.4497,-2.4497,-2.4497,-2.4497,-2.4497,-2.4497,-2.4497,-2.4497,-2.4497,-2.4497,-2.4497,-2.4497,-2.4497,-2.446,-2.4397,-2.4365,-2.4367,-2.44,-2.3959,-2.3554,-2.3179,-2.314,-2.2896,-2.2568,-2.287,-2.2832,-2.253,-2.2492,-2.2454,-2.2454,-2.2454,-2.2719,-2.2982,-2.2606,-2.2423,-2.2353,-2.1932,-2.1987,-2.2289,-2.2327,-2.2542,-2.2692,-2.2354,-2.2279,-2.2327,-2.2289,-2.2289,-2.2241,-2.2069,-2.2681,-2.325,-2.2916,-2.2299,-2.1627,-2.0841,-1.9777,-1.8999,-1.8994,-1.8678,-1.869,-1.953,-1.9694,-1.9738,-1.9966,-1.9966,-1.9737,-1.9077,-1.8944,-1.8911,-1.8911,-1.8307,-1.7901,-1.7901,-1.7901,-1.8172,-1.8777,-1.8877,-1.8911,-1.8911,-1.9639,-1.9639,-1.8911,-1.8911,-1.8911,-1.8911,-1.8844,-1.8844,-1.8944,-1.9606,-1.9639,-1.9233,-1.9901,-1.9497,-1.8375,-1.8375,-1.7988,-1.7495,-1.8148,-1.8365,-1.8465,-1.9079,-1.9056,-1.87,-2.5777,-2.5263,-2.4743,-2.454,-2.4658,-2.4743,-2.454,-2.4658,-2.47,-2.454,-2.4658,-2.47,-2.454,-2.4497,-2.4497,-2.4497,-2.4497,-2.4497,-2.4497,-2.4497,-2.4497,-2.4497,-2.4497,-2.4497,-2.4497,-2.4497,-2.4488,-2.447,-2.4169,-2.4136,-2.439,-2.3675,-2.3454,-2.3629,-2.3309,-2.3297,-2.3469,-2.3242,-2.3282,-2.348,-2.3163,-2.3043,-2.3043,-2.3043,-2.3083,-2.3163,-2.3043,-2.2775,-2.241,-2.197,-2.153,-2.129,-2.1586,-2.1403,-2.1009,-2.0932,-2.1298,-2.1624,-2.1328,-2.1252,-2.128,-2.1576,-2.1403,-2.1229,-2.1458,-2.1377,-2.1128,-2.0568,-1.9553,-1.8795,-1.8974,-1.8257,-1.7872,-1.866,-1.8793,-1.8836,-1.9067,-1.9067,-1.9067,-1.9011,-1.8543,-1.824,-1.824,-1.7569,-1.7141,-1.7141,-1.7141,-1.721,-1.7339,-1.7901,-1.824,-1.824,-1.8877,-1.8911,-1.824,-1.824,-1.824,-1.8196,-1.7638,-1.7672,-1.824,-1.8365,-1.8398,-1.8297,-1.8465,-1.8037,-1.7235,-1.7235,-1.7176,-1.7047,-1.7373,-1.7467,-1.7501,-1.7818,-1.7862,-1.7794,-2.5179,-2.4818,-2.4497,-2.4497,-2.4497,-2.4497,-2.4497,-2.4497,-2.4497,-2.4497,-2.4497,-2.4497,-2.4497,-2.4497,-2.4497,-2.4497,-2.4497,-2.4497,-2.4497,-2.4497,-2.4497,-2.4497,-2.4497,-2.4497,-2.4497,-2.4497,-2.4497,-2.4497,-2.4312,-2.4272,-2.442,-2.4023,-2.3846,-2.3843,-2.3638,-2.3513,-2.3507,-2.3305,-2.3305,-2.3507,-2.3265,-2.3184,-2.3184,-2.3184,-2.3184,-2.3184,-2.3184,-2.3029,-2.2791,-2.2542,-2.2016,-2.1531,-2.1719,-2.1204,-2.0514,-2.0514,-2.0605,-2.0682,-2.0498,-2.0421,-2.0382,-2.0343,-2.0031,-1.9894,-2.042,-2.0459,-2.0207,-1.9581,-1.8599,-1.7861,-1.7971,-1.723,-1.6906,-1.7702,-1.7838,-1.7906,-1.8085,-1.8118,-1.8017,-1.7765,-1.7389,-1.7226,-1.732,-1.6985,-1.6795,-1.6908,-1.6908,-1.6908,-1.6908,-1.727,-1.7561,-1.7761,-1.8454,-1.8562,-1.8064,-1.8418,-1.8418,-1.8038,-1.7257,-1.7107,-1.751,-1.7833,-1.7799,-1.7501,-1.7833,-1.7569,-1.6908,-1.6908,-1.6908,-1.6908,-1.7003,-1.7072,-1.7072,-1.7185,-1.7289,-1.7382,-2.4497,-2.4497,-2.4497,-2.4497,-2.4497,-2.4497,-2.4497,-2.4497,-2.4497,-2.4497,-2.4497,-2.4497,-2.4497,-2.4497,-2.4497,-2.4497,-2.4497,-2.4497,-2.4497,-2.4497,-2.4497,-2.4497,-2.4497,-2.4497,-2.4497,-2.4497,-2.4497,-2.4497,-2.4497,-2.4497,-2.4497,-2.4497,-2.4301,-2.3991,-2.3991,-2.3784,-2.3422,-2.3422,-2.3422,-2.3422,-2.3422,-2.3422,-2.3422,-2.3422,-2.3422,-2.3422,-2.3422,-2.3289,-2.3125,-2.3053,-2.2431,-2.1763,-2.1763,-2.1059,-2.0294,-2.0294,-2.0068,-1.985,-1.985,-1.9803,-1.9638,-1.9112,-1.8922,-1.8953,-1.9471,-1.9441,-1.9134,-1.8474,-1.7609,-1.7013,-1.7013,-1.6456,-1.6235,-1.6942,-1.7082,-1.7125,-1.725,-1.7276,-1.7014,-1.6386,-1.6307,-1.6377,-1.6533,-1.6533,-1.6647,-1.683,-1.6839,-1.6901,-1.7,-1.7009,-1.7193,-1.7587,-1.8216,-1.8387,-1.8081,-1.8728,-1.8728,-1.8072,-1.744,-1.711,-1.711,-1.7678,-1.7571,-1.7035,-1.7564,-1.7476,-1.6908,-1.6908,-1.6908,-1.6908,-1.6908,-1.6908,-1.6908,-1.6908,-1.7003,-1.7166,-2.4497,-2.4497,-2.4497,-2.4497,-2.4497,-2.4497,-2.4497,-2.4497,-2.4497,-2.4497,-2.4497,-2.4497,-2.4497,-2.4497,-2.4497,-2.4497,-2.4497,-2.4497,-2.4497,-2.4497,-2.4497,-2.4497,-2.4497,-2.4497,-2.4497,-2.4497,-2.4497,-2.4497,-2.4497,-2.4497,-2.4497,-2.4497,-2.4466,-2.4404,-2.4404,-2.4373,-2.4311,-2.4311,-2.4311,-2.4311,-2.4311,-2.4311,-2.4311,-2.4311,-2.4311,-2.4311,-2.4311,-2.3673,-2.2774,-2.2396,-2.1432,-2.0385,-2.0385,-1.9927,-1.9391,-1.9391,-1.9472,-1.9553,-1.9553,-1.9357,-1.9112,-1.9002,-1.8563,-1.8161,-1.8233,-1.8233,-1.8193,-1.808,-1.7737,-1.7437,-1.7437,-1.7047,-1.6802,-1.6914,-1.6951,-1.6867,-1.6711,-1.6703,-1.6616,-1.6316,-1.6307,-1.6307,-1.6342,-1.6342,-1.6403,-1.6647,-1.6647,-1.6862,-1.7394,-1.7413,-1.7605,-1.8027,-1.811,-1.8138,-1.8091,-1.8193,-1.8193,-1.8091,-1.7972,-1.7926,-1.7944,-1.7686,-1.752,-1.7394,-1.716,-1.7003,-1.6908,-1.6908,-1.6908,-1.6908,-1.6908,-1.6908,-1.6908,-1.6908,-1.6908,-1.6978,-2.4497,-2.4497,-2.4497,-2.4497,-2.4497,-2.4497,-2.4497,-2.4497,-2.4497,-2.4497,-2.4497,-2.4497,-2.4497,-2.4497,-2.4497,-2.4497,-2.4497,-2.4497,-2.4497,-2.4497,-2.4497,-2.4497,-2.4497,-2.4497,-2.4497,-2.4497,-2.4497,-2.4497,-2.4497,-2.4497,-2.4497,-2.4497,-2.4497,-2.4497,-2.4497,-2.4497,-2.4497,-2.4497,-2.4497,-2.4454,-2.411,-2.4153,-2.4454,-2.4067,-2.4153,-2.4497,-2.4497,-2.3935,-2.3176,-2.2945,-2.1969,-2.0833,-2.0833,-2.0219,-1.9495,-1.9495,-1.9428,-1.9326,-1.9326,-1.9046,-1.8789,-1.8789,-1.8397,-1.8,-1.8,-1.8,-1.8,-1.8,-1.7732,-1.7505,-1.7505,-1.7167,-1.688,-1.688,-1.688,-1.6858,-1.677,-1.6782,-1.6713,-1.6659,-1.6633,-1.667,-1.6771,-1.6807,-1.688,-1.7098,-1.7107,-1.7215,-1.7504,-1.7614,-1.7842,-1.8259,-1.8382,-1.8559,-1.8779,-1.8779,-1.8779,-1.8779,-1.8779,-1.8512,-1.8081,-1.7935,-1.7844,-1.7834,-1.766,-1.7449,-1.7238,-1.7238,-1.7101,-1.6908,-1.6908,-1.6908,-1.6908,-1.6908,-1.6908,-1.6908]},{"header":{"parameterUnit":"m.s-1","parameterCategory":1,"la1":30.6,"la2":28.766,"lo1":-90.7593,"lo2":-88.6598,"dy":0.0162,"dx":0.0183,"nx":116,"ny":114,"refTime":"2024-03-17T06:00:00:Z","depth":0,"parameterNumber":3,"parameterNumberName":"V-component_of_WINDS"},"data":[0.0,0.0,0.0,0.0,0.0,0.0,0.0,0.0,0.0,0.0,0.0,0.0,0.0,0.0,0.0,0.0,0.0,0.0,0.0,0.0,0.0,0.0,0.0,0.0,0.0,0.0,0.0,0.0,0.0,0.0,0.0,0.0,0.0,0.0,0.0,0.0,0.0,0.0,0.0,0.0,0.0,0.0,0.0,0.0,0.0,0.0,0.0,0.0,0.0,0.0,0.0,0.0,0.0,0.0,0.0,0.0,0.0,0.0,0.0,0.0,0.0,0.0,0.0,0.0,0.0,0.0,0.0,0.0,0.0,0.0,0.0,0.0,0.0,0.0,0.0,0.0,0.0,0.0,0.0,0.0,0.0,0.0,0.0,0.0,0.0,0.0,0.0,0.0,0.0,0.0,0.0,0.0,0.0,0.0,0.0,0.0,0.0,0.0,0.0,0.0,0.0,0.0,0.0,0.0,0.0,0.0,0.0,0.0,0.0,0.0,0.0,0.0,0.0,0.0,0.0,0.0,0.0,0.0,0.0,0.0,0.0,0.0,0.0,0.0,0.0,0.0,0.0,0.0,0.0,0.0,0.0,0.0,0.0,0.0,0.0,0.0,0.0,0.0,0.0,0.0,0.0,0.0,0.0,0.0,0.0,0.0,0.0,0.0,0.0,0.0,0.0,0.0,0.0,0.0,0.0,0.0,0.0,0.0,0.0,0.0,0.0,0.0,0.0,0.0,0.0,0.0,0.0,0.0,0.0,0.0,0.0,0.0,0.0,0.0,0.0,0.0,0.0,0.0,0.0,0.0,0.0,0.0,0.0,0.0,0.0,0.0,0.0,0.0,0.0,0.0,0.0,0.0,0.0,0.0,0.0,0.0,0.0,0.0,0.0,0.0,0.0,0.0,0.0,0.0,0.0,0.0,0.0,0.0,0.0,0.0,0.0,0.0,0.0,0.0,0.0,0.0,0.0,0.0,0.0,0.0,0.0,0.0,0.0,0.0,0.0,0.0,0.0,0.0,0.0,0.0,0.0,0.0,0.0,0.0,0.0,0.0,0.0,0.0,0.0,0.0,0.0,0.0,0.0,0.0,0.0,0.0,0.0,0.0,0.0,0.0,0.0,0.0,0.0,0.0,0.0,0.0,0.0,0.0,0.0,0.0,0.0,0.0,0.0,0.0,0.0,0.0,0.0,0.0,0.0,0.0,0.0,0.0,0.0,0.0,0.0,0.0,0.0,0.0,0.0,0.0,0.0,0.0,0.0,0.0,0.0,0.0,0.0,0.0,0.0,0.0,0.0,0.0,0.0,0.0,0.0,0.0,0.0,0.0,0.0,0.0,0.0,0.0,0.0,0.0,0.0,0.0,0.0,0.0,0.0,0.0,0.0,0.0,0.0,0.0,0.0,0.0,0.0,0.0,0.0,0.0,0.0,0.0,0.0,0.0,0.0,0.0,0.0,0.0,0.0,0.0,0.0,0.0,0.0,0.0,0.0,0.0,0.0,0.0,0.0,0.0,0.0,0.0,0.0,0.0,0.0,0.0,0.0,0.0,0.0,0.0,0.0,0.0,0.0,0.0,0.0,0.0,0.0,0.0,0.0,0.0,0.0,0.0,0.0,0.0,0.0,0.0,0.0,0.0,0.0,0.0,0.0,0.0,0.0,0.0,0.0,0.0,0.0,0.0,0.0,0.0,0.0,0.0,0.0,0.0,0.0,0.0,0.0,0.0,0.0,0.0,0.0,0.0,0.0,0.0,0.0,0.0,0.0,0.0,0.0,0.0,0.0,0.0,0.0,0.0,0.0,0.0,0.0,0.0,0.0,0.0,0.0,0.0,0.0,0.0,0.0,0.0,0.0,0.0,0.0,0.0,0.0,0.0,0.0,0.0,0.0,0.0,0.0,0.0,0.0,0.0,0.0,0.0,0.0,0.0,0.0,0.0,0.0,0.0,0.0,0.0,0.0,0.0,0.0,0.0,0.0,0.0,0.0,0.0,0.0,0.0,0.0,0.0,0.0,0.0,0.0,0.0,0.0,0.0,0.0,0.0,0.0,0.0,0.0,0.0,0.0,0.0,0.0,0.0,0.0,0.0,0.0,0.0,0.0,0.0,0.0,0.0,0.0,0.0,0.0,0.0,0.0,0.0,0.0,0.0,0.0,0.0,0.0,0.0,0.0,0.0,0.0,0.0,0.0,0.0,0.0,0.0,0.0,0.0,0.0,0.0,0.0,0.0,0.0,0.0,0.0,0.0,0.0,0.0,0.0,0.0,0.0,0.0,0.0,0.0,0.0,0.0,0.0,0.0,0.0,0.0,0.0,0.0,0.0,0.0,0.0,0.0,0.0,0.0,0.0,0.0,0.0,0.0,0.0,0.0,0.0,0.0,0.0,0.0,0.0,0.0,0.0,0.0,0.0,0.0,0.0,0.0,0.0,0.0,0.0,0.0,0.0,0.0,0.0,0.0,0.0,0.0,0.0,0.0,0.0,0.0,0.0,0.0,0.0,0.0,0.0,0.0,0.0,0.0,0.0,0.0,0.0,0.0,0.0,0.0,0.0,0.0,0.0,0.0,0.0,0.0,0.0,0.0,0.0,0.0,0.0,0.0,0.0,0.0,0.0,0.0,0.0,0.0,0.0,0.0,0.0,0.0,0.0,0.0,0.0,0.0,0.0,0.0,0.0,0.0,0.0,0.0,0.0,0.0,0.0,0.0,0.0,0.0,0.0,0.0,0.0,0.0,0.0,0.0,0.0,0.0,0.0,0.0,0.0,0.0,0.0,0.0,0.0,0.0,0.0,0.0,0.0,0.0,0.0,0.0,0.0,0.0,0.0,0.0,0.0,0.0,0.0,0.0,0.0,0.0,0.0,0.0,0.0,0.0,0.0,0.0,0.0,0.0,0.0,0.0,0.0,0.0,0.0,0.0,0.0,0.0,0.0,0.0,0.0,0.0,0.0,0.0,0.0,0.0,0.0,0.0,0.0,0.0,0.0,0.0,0.0,0.0,0.0,0.0,0.0,0.0,0.0,0.0,0.0,0.0,0.0,0.0,0.0,0.0,0.0,0.0,0.0,0.0,0.0,0.0,0.0,0.0,0.0,0.0,0.0,0.0,0.0,0.0,0.0,0.0,0.0,0.0,0.0,0.0,0.0,0.0,0.0,0.0,0.0,0.0,0.0,0.0,0.0,0.0,0.0,0.0,0.0,0.0,0.0,0.0,0.0,0.0,0.0,0.0,0.0,0.0,0.0,0.0,0.0,0.0,0.0,0.0,0.0,0.0,0.0,0.0,0.0,0.0,0.0,0.0,0.0,0.0,0.0,0.0,0.0,0.0,0.0,0.0,0.0,0.0,0.0,0.0,0.0,0.0,0.0,0.0,0.0,0.0,0.0,0.0,0.0,0.0,0.0,0.0,0.0,0.0,0.0,0.0,0.0,0.0,0.0,0.0,0.0,0.0,0.0,0.0,0.0,0.0,0.0,0.0,0.0,0.0,0.0,0.0,0.0,0.0,0.0,0.0,0.0,0.0,0.0,0.0,0.0,0.0,0.0,0.0,0.0,0.0,0.0,0.0,0.0,0.0,0.0,0.0,0.0,0.0,0.0,0.0,0.0,0.0,0.0,0.0,0.0,0.0,0.0,0.0,0.0,0.0,0.0,0.0,0.0,0.0,0.0,0.0,0.0,0.0,0.0,0.0,0.0,0.0,0.0,0.0,0.0,0.0,0.0,0.0,0.0,0.0,0.0,0.0,0.0,0.0,0.0,0.0,0.0,0.0,0.0,0.0,0.0,0.0,0.0,0.0,0.0,0.0,0.0,0.0,0.0,0.0,0.0,0.0,0.0,0.0,0.0,0.0,0.0,0.0,0.0,0.0,0.0,0.0,0.0,0.0,0.0,0.0,0.0,0.0,0.0,0.0,0.0,0.0,0.0,0.0,0.0,0.0,0.0,0.0,0.0,0.0,0.0,0.0,0.0,0.0,0.0,0.0,0.0,0.0,0.0,0.0,0.0,0.0,0.0,0.0,0.0,0.0,0.0,0.0,0.0,0.0,0.0,0.0,0.0,0.0,0.0,0.0,0.0,0.0,0.0,0.0,0.0,0.0,0.0,0.0,0.0,0.0,0.0,0.0,0.0,0.0,0.0,0.0,0.0,0.0,0.0,0.0,0.0,0.0,0.0,0.0,0.0,0.0,0.0,0.0,0.0,0.0,0.0,0.0,0.0,0.0,0.0,0.0,0.0,0.0,0.0,0.0,0.0,0.0,0.0,0.0,0.0,0.0,0.0,0.0,0.0,0.0,0.0,0.0,0.0,0.0,0.0,0.0,0.0,0.0,0.0,0.0,0.0,0.0,0.0,0.0,0.0,0.0,0.0,0.0,0.0,0.0,0.0,0.0,0.0,0.0,0.0,0.0,0.0,0.0,0.0,0.0,0.0,0.0,0.0,0.0,0.0,0.0,0.0,0.0,0.0,0.0,0.0,0.0,0.0,0.0,0.0,0.0,0.0,0.0,0.0,0.0,0.0,0.0,0.0,0.0,0.0,0.0,0.0,0.0,0.0,0.0,0.0,0.0,0.0,0.0,0.0,0.0,0.0,0.0,0.0,0.0,0.0,0.0,0.0,0.0,0.0,0.0,0.0,0.0,0.0,0.0,0.0,0.0,0.0,0.0,0.0,0.0,0.0,0.0,0.0,0.0,0.0,0.0,0.0,0.0,0.0,0.0,0.0,0.0,0.0,0.0,0.0,0.0,0.0,0.0,0.0,0.0,0.0,0.0,0.0,0.0,0.0,0.0,0.0,0.0,0.0,0.0,0.0,0.0,0.0,0.0,0.0,0.0,0.0,0.0,0.0,0.0,0.0,0.0,0.0,0.0,0.0,0.0,0.0,0.0,0.0,0.0,0.0,0.0,0.0,0.0,0.0,0.0,0.0,0.0,0.0,0.0,0.0,0.0,0.0,0.0,0.0,0.0,0.0,0.0,0.0,0.0,0.0,0.0,0.0,0.0,0.0,0.0,0.0,0.0,0.0,0.0,0.0,0.0,0.0,0.0,0.0,0.0,0.0,0.0,0.0,0.0,0.0,0.0,0.0,0.0,0.0,0.0,0.0,0.0,0.0,0.0,0.0,0.0,0.0,0.0,0.0,0.0,0.0,0.0,0.0,0.0,0.0,0.0,0.0,0.0,0.0,0.0,0.0,0.0,0.0,0.0,0.0,0.0,0.0,0.0,0.0,0.0,0.0,0.0,0.0,0.0,0.0,0.0,0.0,0.0,0.0,0.0,0.0,0.0,0.0,0.0,0.0,0.0,0.0,0.0,0.0,0.0,0.0,0.0,0.0,0.0,0.0,0.0,0.0,0.0,0.0,0.0,0.0,0.0,0.0,0.0,0.0,0.0,0.0,0.0,0.0,0.0,0.0,0.0,0.0,0.0,0.0,0.0,0.0,0.0,0.0,0.0,0.0,0.0,0.0,0.0,0.0,0.0,0.0,0.0,0.0,0.0,0.0,0.0,0.0,0.0,0.0,0.0,0.0,0.0,0.0,0.0,0.0,0.0,0.0,0.0,0.0,0.0,0.0,0.0,0.0,0.0,0.0,0.0,0.0,0.0,0.0,0.0,0.0,0.0,0.0,0.0,0.0,0.0,0.0,0.0,0.0,0.0,0.0,0.0,0.0,0.0,0.0,0.0,0.0,0.0,0.0,0.0,0.0,0.0,0.0,0.0,0.0,0.0,0.0,0.0,0.0,0.0,0.0,0.0,0.0,0.0,0.0,0.0,0.0,0.0,0.0,0.0,0.0,0.0,0.0,0.0,0.0,0.0,0.0,0.0,0.0,0.0,0.0,0.0,0.0,0.0,0.0,0.0,0.0,0.0,0.0,0.0,0.0,0.0,0.0,0.0,0.0,0.0,0.0,0.0,0.0,0.0,0.0,0.0,0.0,0.0,0.0,0.0,0.0,0.0,0.0,0.0,0.0,0.0,0.0,0.0,0.0,0.0,0.0,0.0,0.0,0.0,0.0,0.0,0.0,0.0,0.0,0.0,0.0,0.0,0.0,0.0,0.0,0.0,0.0,0.0,0.0,0.0,0.0,0.0,0.0,0.0,0.0,0.0,0.0,0.0,-1.1037,-1.1558,0.0,0.0,0.0,0.0,0.0,0.0,0.0,0.0,0.0,0.0,0.0,0.0,0.0,0.0,0.0,0.0,0.0,0.0,0.0,0.0,0.0,0.0,0.0,0.0,0.0,0.0,1.0584,1.0795,1.0643,1.0535,1.0401,1.0242,1.0019,0.9931,1.0005,1.0063,1.0102,1.0155,0.9983,0.9862,0.9766,0.9408,0.8759,0.7874,0.0,0.0,0.0,0.0,0.0,0.0,0.0,0.0,0.0,0.0,0.0,0.0,0.0,0.0,0.0,0.0,0.0,0.0,0.0,0.0,0.0,0.0,0.0,0.0,0.0,0.0,0.0,0.0,0.0,0.0,0.0,0.0,0.0,0.0,0.0,0.0,0.0,0.0,0.0,0.0,0.0,0.0,0.0,0.0,0.0,0.0,0.0,0.0,0.0,0.0,0.0,0.0,0.0,0.0,0.0,0.0,0.0,0.0,0.0,0.0,0.0,0.0,0.0,0.0,0.0,0.0,0.0,0.0,0.0,0.0,-1.1669,-1.1892,0.0,0.0,0.0,0.0,0.0,0.0,0.0,0.0,0.0,0.0,0.0,0.0,0.0,0.0,0.0,0.0,0.0,0.0,0.0,0.0,0.0,0.0,0.0,1.0097,1.0226,1.0226,1.088,1.12,1.0972,1.0871,1.0684,1.0403,1.0143,1.0011,1.0042,1.0163,1.0239,1.0319,1.0039,0.9798,0.9644,0.9548,0.935,0.0,0.0,0.0,0.0,0.0,0.0,0.0,0.0,0.0,0.0,0.0,0.0,0.0,0.0,0.0,0.0,0.0,0.0,0.0,0.0,0.0,0.0,0.0,0.0,0.0,0.0,0.0,0.0,0.0,0.0,0.0,0.0,0.0,0.0,0.0,0.0,0.0,0.0,0.0,0.0,0.0,0.0,0.0,0.0,0.0,0.0,0.0,0.0,0.0,0.0,0.0,0.0,0.0,0.0,0.0,0.0,0.0,0.0,0.0,0.0,0.0,0.0,0.0,0.0,0.0,-0.9178,-0.997,-1.0158,-1.1626,-1.2305,-1.2305,-1.2305,-1.2305,-1.2305,-1.2305,0.0,0.0,0.0,0.0,0.0,0.0,0.0,0.0,0.0,0.0,0.0,0.0,0.0,0.0,0.0,0.0,0.0,0.0,0.0,0.0,0.0,1.1116,1.1141,1.1141,1.1217,1.1276,1.1251,1.0761,1.0454,1.0403,0.9918,0.9725,0.9844,0.9847,1.0073,1.0463,1.0314,1.0212,1.0174,0.9702,0.9484,0.9414,0.8624,0.0,0.0,0.0,0.0,0.0,0.0,0.0,0.0,0.0,0.0,0.0,0.0,0.0,0.0,0.0,0.0,0.0,0.0,0.0,0.0,0.0,0.0,0.0,0.0,0.0,0.0,0.0,0.0,0.0,0.0,0.0,0.0,0.0,0.0,0.0,0.0,0.0,0.0,0.0,0.0,0.0,0.0,0.0,-0.1235,-0.1311,0.0,0.0,0.0,0.0,0.0,0.0,0.0,0.0,0.0,0.0,0.0,0.0,0.0,-0.7484,-0.7484,-0.7484,-0.7863,-0.8551,-0.9485,-1.0276,-1.0956,-1.1892,-1.2305,-1.2305,-1.2305,0.0,-1.2305,-1.2305,0.0,0.0,0.0,0.0,0.0,0.0,0.0,0.0,0.0,0.0,0.0,0.0,0.0,0.0,0.0,0.0,0.0,0.0,0.0,0.0,0.0,1.0972,1.1074,1.1074,1.1217,1.1251,1.1099,1.0837,1.0608,1.0462,1.0223,1.0138,1.0178,1.009,1.0193,1.0493,1.0619,1.0674,1.0674,1.0453,1.0206,0.9926,0.9658,0.8941,0.7967,0.7251,0.0,0.0,0.0,0.0,0.0,0.0,0.0,0.0,0.0,0.0,0.0,0.0,0.0,0.0,0.0,0.0,0.0,0.0,0.0,0.0,0.0,0.0,0.0,0.0,0.0,0.0,0.0,0.0,0.0,0.0,0.0,0.0,0.0,0.0,0.0,0.0,0.0,0.0,0.0,-0.1183,-0.1198,-0.1253,-0.1255,-0.1899,0.0,0.0,0.0,0.0,0.0,0.0,0.0,0.0,0.0,-0.7521,-0.7642,-0.7722,-0.778,-0.8294,-0.8727,-0.9118,-1.045,-1.1274,-1.1636,-1.246,-1.2812,-1.2812,-1.2812,-1.2812,-1.2786,-1.2445,-1.2305,-1.2305,0.0,0.0,0.0,0.0,-1.2629,-1.3171,0.0,0.0,0.0,0.0,0.0,0.0,0.0,0.0,0.0,0.0,0.0,0.0,1.0496,1.0667,1.0794,1.0794,1.0972,1.1023,1.082,1.0794,1.0701,1.0522,1.0496,1.0496,1.0496,1.0516,1.0685,1.1036,1.1236,1.1365,1.1468,1.134,1.0994,1.0523,1.0523,0.9883,0.8721,0.7972,0.7381,0.0,0.0,0.0,0.0,0.0,0.0,0.0,0.0,0.0,0.0,0.0,0.0,0.0,0.0,0.0,0.0,0.0,0.0,0.0,0.0,0.0,0.0,0.0,0.0,0.0,0.0,0.0,0.0,0.0,0.0,0.0,0.0,0.0,0.0,0.0,0.0,0.0,0.0,-0.1224,-0.1232,-0.1293,-0.1492,-0.2195,0.0,0.0,0.0,0.0,0.0,0.0,-0.7247,-0.7442,-0.7668,-0.7931,-0.789,-0.7906,-0.8081,-0.8969,-0.9385,-0.9426,-1.1169,-1.1982,-1.2022,-1.2843,-1.3213,-1.3213,-1.3213,-1.3213,-1.3173,-1.2632,-1.2418,-1.2412,-1.2331,-1.2305,-1.2305,-1.2305,-1.2666,-1.3208,0.0,0.0,0.0,0.0,0.0,0.0,0.0,0.0,0.0,0.0,0.0,1.0496,1.0496,1.0522,1.0522,1.0522,1.0522,1.0522,1.0522,1.0522,1.0522,1.0496,1.0496,1.0496,1.0496,1.1122,1.1784,1.2505,1.2307,1.2397,1.2714,1.2244,1.1716,1.115,1.115,1.0516,0.9414,0.8721,0.8425,0.8323,0.0,0.0,0.0,0.0,0.0,0.0,0.0,0.0,0.0,0.0,0.0,0.0,0.0,0.0,0.0,0.0,0.0,0.0,0.0,0.0,0.0,0.0,0.0,0.0,0.0,0.0,0.0,0.0,0.0,0.0,0.0,0.0,0.0,0.0,0.0,0.0,0.0,0.0,0.0,-0.1296,-0.1962,0.0,0.0,0.0,0.0,-0.6525,-0.6896,-0.7179,-0.7374,-0.7574,-0.7869,-0.826,-0.8093,-0.8089,-0.8276,-0.9041,-0.9385,-0.9426,-1.1169,-1.1982,-1.2022,-1.2843,-1.3213,-1.3213,-1.3213,-1.3213,-1.3186,-1.2898,-1.2764,-1.273,-1.2412,-1.2305,-1.2305,-1.2305,-1.2342,-1.2482,0.0,0.0,0.0,0.0,0.0,0.0,0.0,0.0,1.0249,1.0249,1.0411,1.0496,1.0496,1.0496,1.0496,1.0496,1.0496,1.065,1.0998,1.0693,1.0641,1.0998,1.0894,1.1018,1.1455,1.1961,1.2447,1.2933,1.308,1.3201,1.331,1.3143,1.2774,1.2233,1.2233,1.1607,1.0541,0.9729,0.9061,0.849,0.8231,0.7674,0.0,0.0,0.0,0.0,0.0,0.0,0.0,0.0,0.0,0.0,0.0,0.0,0.0,0.0,0.0,0.0,0.0,0.0,0.0,0.0,0.0,0.0,0.0,0.0,0.0,0.0,0.0,0.0,0.0,0.0,0.0,0.0,0.0,0.0,0.0,0.0,0.0,-0.1296,-0.2002,0.0,-0.4031,-0.4795,-0.575,-0.702,-0.7132,-0.73,-0.756,-0.7862,-0.8178,-0.8467,-0.8511,-0.8621,-0.8808,-0.9669,-1.0116,-1.0116,-1.1996,-1.2916,-1.2916,-1.3892,-1.4342,-1.4342,-1.4342,-1.4235,-1.4028,-1.3734,-1.3427,-1.3033,-1.2926,-1.2886,-1.2859,-1.2703,-1.2917,-1.3369,0.0,0.0,0.0,0.0,0.0,0.0,0.0,0.0,1.0496,1.0496,1.0667,1.0769,1.0769,1.1047,1.1242,1.1242,1.1377,1.1636,1.1999,1.1688,1.1636,1.1999,1.2031,1.2296,1.2882,1.3056,1.3368,1.3819,1.3782,1.3823,1.3942,1.3942,1.366,1.3137,1.3137,1.2595,1.1598,1.0823,0.9888,0.8973,0.8973,0.8495,0.7777,0.0,0.0,0.0,0.0,0.0,0.0,0.0,0.0,0.0,0.0,0.0,0.0,0.0,0.0,0.0,0.0,0.0,0.0,0.0,0.0,0.0,0.0,0.0,0.0,0.0,0.0,0.0,0.0,0.0,0.0,0.0,0.0,0.0,0.0,-0.1305,-0.1312,-0.1312,-0.2334,-0.3375,-0.4132,-0.5197,-0.6293,-0.7272,-0.7467,-0.7666,-0.7913,-0.8308,-0.8632,-0.8877,-0.8885,-0.9003,-0.9181,-1.005,-1.0658,-1.1022,-1.2609,-1.3568,-1.3941,-1.4681,-1.5008,-1.5008,-1.5008,-1.485,-1.4649,-1.4355,-1.4008,-1.3621,-1.3327,-1.3213,-1.3186,-1.3018,-1.324,-1.3703,0.0,0.0,0.0,0.0,0.0,0.0,0.0,1.0198,1.0496,1.0496,1.0972,1.1301,1.1301,1.2142,1.2704,1.2704,1.3126,1.3403,1.3421,1.3403,1.3403,1.3431,1.3886,1.4305,1.4645,1.4409,1.4599,1.5274,1.4547,1.4358,1.4673,1.4673,1.4369,1.3848,1.3848,1.3373,1.2501,1.1913,1.1029,0.9959,0.9913,0.9344,0.8533,0.0,0.0,0.0,0.0,0.0,0.0,0.0,0.0,0.0,0.0,0.0,0.0,0.0,0.0,0.0,0.0,0.0,0.0,0.0,0.0,0.0,0.0,0.0,0.0,0.0,0.0,0.0,0.0,0.0,0.0,0.0,0.0,0.0,-0.1298,-0.1284,-0.1303,-0.1305,-0.2998,-0.4165,-0.4046,-0.595,-0.7193,-0.7243,-0.7821,-0.825,-0.8371,-0.8826,-0.9185,-0.94,-0.9198,-0.9194,-0.9408,-1.0126,-1.0995,-1.1992,-1.295,-1.3921,-1.499,-1.499,-1.5035,-1.5035,-1.5035,-1.5028,-1.5001,-1.4669,-1.4536,-1.4436,-1.3574,-1.324,-1.324,-1.3227,-1.3213,-1.3483,0.0,0.0,0.0,0.0,0.0,0.0,0.0,1.0198,1.0496,1.0496,1.0972,1.1301,1.1301,1.2142,1.2704,1.2704,1.3126,1.3565,1.3941,1.3619,1.3663,1.4238,1.4714,1.5232,1.5831,1.5756,1.6111,1.6873,1.6661,1.6488,1.6324,1.6324,1.5782,1.4809,1.4809,1.4313,1.3439,1.3266,1.2643,1.1666,1.0396,0.9759,0.9505,0.0,0.0,0.0,0.0,0.0,0.0,0.0,0.0,0.0,0.0,0.0,0.0,0.0,0.0,0.0,0.0,0.0,0.0,0.0,0.0,0.0,0.0,0.0,0.0,0.0,0.0,0.0,0.0,0.0,0.0,0.0,-0.129,-0.129,-0.129,-0.1297,-0.1318,-0.1361,-0.3053,-0.4324,-0.4614,-0.6272,-0.7427,-0.7675,-0.7823,-0.802,-0.8324,-0.8682,-0.9046,-0.9404,-0.9437,-0.9506,-0.9551,-0.9746,-1.0387,-1.1432,-1.2437,-1.3442,-1.4506,-1.5264,-1.5591,-1.5591,-1.5591,-1.5471,-1.5271,-1.519,-1.4903,-1.4476,-1.4021,-1.3848,-1.3821,-1.3567,-1.378,-1.4287,0.0,0.0,0.0,0.0,0.0,0.0,0.0,1.0198,1.0496,1.0496,1.0972,1.1368,1.156,1.2448,1.3192,1.3643,1.4077,1.4572,1.5099,1.4992,0.0,0.0,0.0,1.6863,1.7459,1.735,1.7622,1.8248,1.7924,1.7688,1.7486,1.7157,1.664,1.5943,1.5431,1.4914,1.4373,1.3965,1.3512,1.2906,1.155,1.078,1.0377,0.988,0.9678,0.9595,0.9089,0.892,0.885,0.8431,0.0,0.0,0.0,0.0,0.0,0.0,0.0,0.0,0.0,0.0,0.0,0.0,0.0,0.0,0.0,0.0,0.0,0.0,0.0,0.0,0.0,0.0,0.0,0.0,-0.1313,-0.133,-0.1354,-0.1358,-0.1371,-0.1405,-0.2788,-0.404,-0.4705,-0.6062,-0.7164,-0.7817,-0.7911,-0.8093,-0.8305,-0.8623,-0.8928,-0.9125,-0.9223,-0.9327,-0.943,-0.943,-1.0015,-1.1219,-1.2242,-1.327,-1.4346,-1.535,-1.5784,-1.5784,-1.5784,-1.5732,-1.5571,-1.5444,-1.5197,-1.4843,0.0,0.0,0.0,0.0,-1.4281,-1.4998,0.0,0.0,0.0,0.0,0.0,0.0,0.0,1.0172,1.0496,1.0496,1.0972,1.1469,1.1884,1.2862,1.3874,1.4815,1.5395,1.5908,1.6415,1.6841,0.0,1.775,1.8278,1.8756,1.917,1.8998,1.9075,1.9499,1.883,1.849,1.8425,1.7732,1.7261,1.702,1.5955,1.5365,1.5165,1.4321,1.3943,1.381,1.2992,1.206,1.114,1.035,0.9998,0.9877,0.9642,0.954,0.9516,0.9516,0.0,0.0,0.0,0.0,0.0,0.0,0.0,0.0,0.0,0.0,0.0,0.0,0.0,0.0,0.0,0.0,0.0,0.0,0.0,0.0,0.0,0.0,0.0,0.0,-0.1296,-0.1334,-0.1387,-0.1401,-0.1405,-0.1405,-0.2468,-0.3552,-0.455,-0.5584,-0.6663,-0.7741,-0.8039,-0.8244,-0.8375,-0.8627,0.0,0.0,0.0,-0.8928,-0.9187,-0.9187,-0.9867,-1.1219,-1.2242,-1.327,-1.4346,-1.535,-1.5784,-1.5784,-1.5784,-1.5784,-1.5758,-1.5551,-1.5424,-1.5337,-1.475,-1.4342,-1.4088,-1.4088,-1.4664,-1.5519,0.0,0.0,0.0,0.0,0.0,0.0,0.0,0.9991,1.0496,1.0496,1.0972,1.1318,1.1418,1.266,1.372,1.4294,1.5195,1.6042,1.6831,0.0,1.7761,1.8237,1.9088,1.9564,1.9658,1.9918,2.0298,2.0749,2.0602,2.0364,2.0053,1.9899,1.8948,1.7398,1.7175,1.637,1.5181,1.4998,1.472,1.4374,1.3801,1.272,1.1468,1.1084,1.0495,0.9901,0.9847,0.9697,0.9516,0.9516,0.9049,0.849,0.8328,0.0,0.0,0.0,0.0,0.0,0.0,0.0,0.0,0.0,0.0,0.0,0.0,0.0,0.0,0.0,0.0,0.0,0.0,0.0,0.0,-0.1323,-0.1399,-0.1386,-0.1467,-0.1514,-0.1545,-0.1545,-0.2531,-0.3587,-0.467,-0.5738,-0.6799,-0.7895,-0.7997,-0.8156,-0.8379,-0.8432,-0.8581,-0.8775,-0.8825,-0.8928,-0.9187,-0.9187,-0.9867,-1.1219,-1.2242,0.0,-1.4346,-1.535,-1.5784,-1.5784,-1.5784,-1.5784,-1.5778,-1.5718,-1.5611,-1.5337,-1.475,-1.4342,-1.4088,-1.4088,-1.4664,-1.5519,0.0,0.0,0.0,0.0,0.0,0.0,0.0,0.9751,1.0223,1.047,1.0718,1.1099,1.1594,1.2307,1.3144,1.4158,1.5143,1.6167,0.0,1.7575,1.7998,1.8735,1.9419,1.9896,2.0089,2.0534,2.1,2.1455,2.1455,2.1343,2.1126,2.0702,1.9955,1.8953,1.7939,1.7072,1.6299,1.5906,1.5438,1.4895,1.484,1.3978,1.2627,1.208,1.147,1.0893,1.0471,1.0152,0.9862,0.958,0.928,0.8952,0.8619,0.7934,0.7186,0.0,0.0,0.0,0.0,0.0,0.0,0.0,0.0,0.0,0.0,0.0,0.0,0.0,0.0,0.2009,0.1332,0.0,-0.1092,-0.1359,-0.1438,-0.1474,-0.152,-0.1601,-0.162,-0.162,-0.2078,-0.2844,-0.387,-0.4977,-0.6032,-0.7138,-0.769,-0.8038,-0.8187,-0.8187,-0.8283,-0.8382,-0.8382,-0.8531,-0.8783,-0.8931,-0.9422,-1.0207,-1.137,-1.2242,-1.278,-1.4334,-1.5064,-1.5064,-1.5588,-1.5784,-1.5784,-1.5784,-1.5658,-1.5351,-1.491,-1.4563,-1.4282,-1.4142,-1.4664,-1.5519,0.0,0.0,0.0,0.0,0.0,0.0,0.0,0.9536,0.9976,1.0445,1.0496,1.082,1.161,1.1884,1.2613,1.4163,1.5152,0.0,0.0,1.7606,1.8092,1.8932,1.9585,2.0058,2.0385,2.0969,2.1424,2.1807,2.1807,2.1807,2.1769,2.1098,2.0653,2.045,1.8809,1.7925,1.7548,1.6911,1.6215,1.556,1.5713,1.5152,1.4083,1.3154,1.2457,1.1914,1.1283,1.0712,1.0238,0.9798,0.958,0.9414,0.8856,0.8296,0.7744,0.7097,0.6174,0.0,0.0,0.0,0.0,0.0,0.0,0.0,0.0,0.4999,0.5018,0.5018,0.3575,0.2261,0.2071,0.0416,-0.0945,-0.1165,-0.1378,-0.1508,-0.1613,-0.1577,-0.158,-0.158,-0.1602,-0.2019,-0.3073,-0.4175,-0.5227,-0.6337,-0.7388,-0.7988,-0.7988,-0.7988,-0.7988,-0.7988,-0.7988,-0.8137,-0.8382,-0.8627,-0.8878,-0.9236,-1.0498,-1.117,-1.1268,-1.3366,-1.4298,-1.4346,-1.535,-1.5784,-1.5784,-1.5784,-1.5691,-1.5451,-1.5164,-1.4863,-1.4563,-1.4215,-1.4538,-1.5269,0.0,0.0,0.0,0.0,0.0,0.0,0.0,0.0,0.9976,1.0445,1.0496,1.0547,1.0667,1.146,1.2613,1.4163,0.0,0.0,1.6498,1.7284,1.7915,1.8465,1.9675,2.0333,2.0385,2.128,2.1756,2.1807,2.1807,2.1807,2.1807,2.1683,2.1252,2.0498,2.0256,1.9354,1.8034,1.7943,1.7451,1.6657,1.6061,1.5727,1.5473,1.4348,1.3107,1.1976,1.1907,1.1187,1.0301,1.0244,0.9894,0.9484,0.942,0.8931,0.8312,0.7744,0.0,0.6412,0.5954,0.5501,0.5101,0.4644,0.4673,0.4801,0.0,0.4901,0.5018,0.5018,0.3822,0.2807,0.2788,0.1065,-0.0395,-0.0504,-0.1079,-0.1533,-0.1566,-0.1595,-0.1611,-0.1611,-0.1615,-0.2019,-0.3073,-0.4175,-0.5227,-0.6337,-0.7388,-0.7988,-0.7988,-0.7988,-0.7988,-0.7988,-0.7988,-0.8137,-0.8382,-0.8432,-0.8684,-0.9236,-1.0297,-1.0979,-1.1268,-1.3366,-1.4298,-1.4346,-1.535,-1.5784,-1.5784,-1.5784,-1.5764,-1.5752,-1.5464,-1.517,-1.4894,-1.4289,-1.4166,-1.4377,0.0,0.0,0.0,0.0,0.0,0.0,0.0,0.0,0.0,1.0445,1.0496,1.0718,1.1309,1.232,1.3302,1.4212,0.0,0.0,1.634,1.6736,1.7378,1.8372,1.9189,1.9758,2.0027,2.0669,2.1,2.1,2.1,2.1,2.1,2.1,2.0769,2.0427,1.9944,1.9377,1.8727,1.8444,1.789,1.7193,1.7102,1.645,1.5403,1.4933,1.386,1.2611,1.2281,1.1754,0.0,0.0,1.0149,0.9894,0.9376,0.8899,0.8414,0.8014,0.7326,0.0,0.5653,0.5299,0.5061,0.4625,0.4635,0.4749,0.4779,0.489,0.5034,0.5102,0.4145,0.3238,0.3019,0.1767,0.0486,-0.028,-0.0664,-0.1012,-0.1541,-0.1609,-0.1617,-0.1617,-0.1617,-0.1768,-0.222,-0.3224,-0.4325,-0.5379,-0.6484,-0.7338,-0.7988,-0.7988,-0.7988,-0.7988,-0.7988,-0.8038,-0.8187,-0.8333,-0.8535,-0.8733,-0.9365,-1.0096,-1.1028,-1.2484,-1.3896,-1.5207,-1.5635,-1.5784,-1.5784,-1.5784,-1.5784,-1.5751,-1.5504,-1.5217,-1.4955,-1.4496,-1.4229,-1.4208,0.0,0.0,0.0,0.0,0.0,0.0,0.0,0.0,0.0,0.0,1.0496,1.0871,1.1884,1.2686,1.3407,0.0,0.0,0.0,0.0,1.6195,1.6838,1.7823,1.8652,1.9264,1.9596,2.0131,2.0385,2.0385,2.0385,2.0385,2.0385,2.0385,2.0385,2.0385,1.9775,1.9489,1.936,1.8997,1.8369,1.7549,1.7541,1.6573,1.5155,1.4757,1.3999,1.306,1.2658,1.2221,0.0,0.0,1.0523,1.0174,0.9466,0.8894,0.8447,0.8084,0.7493,0.6671,0.5617,0.5349,0.5238,0.4654,0.4624,0.4724,0.4777,0.489,0.505,0.5162,0.452,0.381,0.3533,0.257,0.1382,0.0236,-0.0191,-0.0677,-0.1508,-0.1617,-0.1617,-0.1617,-0.1617,-0.1617,-0.1617,-0.2572,-0.3524,-0.4323,-0.5632,-0.6736,-0.7537,-0.7839,-0.7988,-0.7988,-0.7988,-0.7988,-0.7988,-0.8187,-0.8333,-0.8382,-0.8577,-0.9217,-1.0293,-1.1653,-1.3451,-1.5397,-1.5683,-1.5784,-1.5784,-1.5784,-1.5784,-1.5758,-1.5598,-1.5337,-1.5089,-1.475,-1.4409,-1.4173,0.0,0.0,0.0,0.0,0.0,0.0,0.0,0.0,0.0,0.0,0.0,0.0,0.0,0.0,0.0,0.0,0.0,0.0,0.0,1.5628,1.6423,1.6464,1.8165,1.9108,1.9119,1.9965,2.0385,2.0385,2.0385,2.0385,2.0385,2.0385,2.0385,2.0385,2.0385,2.0147,1.9779,1.9768,1.9079,1.7881,1.6792,1.588,1.5061,1.3688,1.314,1.3092,1.3092,0.0,0.0,0.0,1.1122,1.0238,0.9875,0.9177,0.0,0.8084,0.7754,0.7228,0.6152,0.5966,0.5806,0.4778,0.4651,0.4793,0.4795,0.489,0.505,0.5162,0.4912,0.469,0.4755,0.3486,0.2223,0.1371,0.0333,-0.0677,-0.1508,-0.1617,-0.1617,-0.1617,-0.1617,-0.1617,-0.1617,-0.2572,-0.3224,-0.3224,-0.5231,-0.6437,-0.6437,-0.7437,-0.7988,-0.7988,-0.7988,-0.7988,-0.7988,-0.7988,-0.8137,-0.8382,-0.8432,-0.8581,-0.892,-1.1263,-1.3071,-1.4394,-1.5397,-1.5784,-1.5784,-1.5784,-1.5784,-1.5784,-1.5771,-1.5638,-1.5351,-1.5102,-1.4626,-1.4088,0.0,0.0,0.0,0.0,0.0,0.0,0.0,0.0,0.0,0.0,0.0,0.0,0.0,0.0,0.0,0.0,0.0,0.0,0.0,1.4749,1.5421,1.6371,1.6993,1.7574,1.8175,1.8453,1.8608,1.8608,1.8608,1.8608,1.8608,1.8608,1.8608,1.8608,1.8608,1.8525,1.8423,1.8423,1.8159,1.7772,1.7388,1.6239,1.4777,1.4537,1.3574,1.2409,0.0,0.0,0.0,1.1934,1.1584,1.1178,1.0376,0.962,0.8856,0.7944,0.7587,0.7358,0.6798,0.6673,0.6467,0.5486,0.5365,0.5355,0.4908,0.489,0.505,0.5162,0.5161,0.5071,0.4841,0.4194,0.3359,0.2318,0.1096,0.0,-0.0703,-0.1263,-0.1617,-0.1617,-0.1617,-0.1617,-0.1617,-0.1919,-0.2422,-0.3123,-0.4526,-0.5629,-0.6384,-0.7437,-0.7988,-0.7988,-0.7988,-0.7988,-0.7988,-0.7988,-0.8038,-0.8137,-0.9019,-0.9509,-0.9657,-1.1312,-1.277,-1.4028,-1.4411,-1.4997,-1.5784,-1.5784,-1.5784,-1.5784,-1.5784,-1.5651,-1.5357,-1.5115,-1.4716,-1.4349,0.0,0.0,0.0,0.0,0.0,0.0,0.0,0.0,0.0,0.0,0.0,0.0,0.0,0.0,0.0,0.0,0.0,0.0,0.0,0.0,1.4707,1.5597,1.596,1.6477,1.7233,1.7378,1.7533,1.7699,1.7699,1.7699,1.7699,1.7699,1.7699,1.7699,1.7699,1.7699,1.7699,1.7699,1.7533,1.7275,1.6992,1.5908,1.4481,1.4423,1.3444,0.0,0.0,0.0,0.0,1.2097,1.1965,1.1646,1.0804,0.9831,0.8818,0.7782,0.7489,0.7438,0.7082,0.7043,0.6888,0.6162,0.6101,0.6029,0.5351,0.5266,0.528,0.5202,0.5249,0.5272,0.5092,0.4738,0.4176,0.3227,0.2085,0.0964,-0.005,-0.0754,-0.1263,-0.1566,-0.1617,-0.1617,-0.1617,-0.1617,-0.1868,-0.2572,-0.3624,-0.4676,-0.5782,-0.6833,-0.7587,-0.7988,-0.7988,-0.7988,-0.7988,-0.7988,-0.7988,-0.7988,-0.8871,-0.9316,-0.946,-1.0681,-1.1799,-1.2813,-1.3584,-1.4418,-1.5302,-1.5635,-1.5784,-1.5784,-1.5784,-1.5712,-1.5504,-1.511,-1.4843,-1.4636,0.0,0.0,0.0,0.0,0.0,0.0,0.0,0.0,0.0,0.0,0.0,0.0,0.0,0.0,0.0,0.0,0.0,0.0,0.0,0.0,0.0,1.4304,1.5152,1.5863,1.633,1.6686,1.712,1.7564,1.7564,1.7564,1.7564,1.7564,1.7564,1.7564,1.7564,1.7564,1.7564,1.7564,1.7133,1.6403,1.5664,1.4915,1.4148,1.3395,0.0,0.0,0.0,0.0,0.0,1.2328,1.2197,1.167,1.1118,0.9818,0.8361,0.7684,0.7498,0.7456,0.7129,0.7141,0.7176,0.6844,0.6859,0.6749,0.6054,0.5902,0.5782,0.5274,0.5181,0.5257,0.5445,0.5112,0.4616,0.4023,0.3189,0.2061,0.0537,-0.01,-0.0707,-0.1465,-0.1566,-0.1617,-0.1617,-0.1617,-0.1617,-0.1617,-0.2572,-0.3624,-0.4674,-0.5782,-0.6886,-0.7889,-0.7988,-0.7988,-0.7988,-0.7988,-0.7988,-0.7988,-0.7988,-0.8137,-0.8432,-0.941,-1.0243,-1.0877,-1.2861,-1.389,-1.4292,-1.5302,-1.5737,-1.573,-1.5784,-1.5784,-1.5758,-1.5197,-1.5022,-1.4968,0.0,0.0,0.0,0.0,0.0,0.0,0.0,0.0,0.0,0.0,0.0,0.0,0.0,0.0,0.0,0.0,0.0,0.0,0.0,0.0,0.0,0.0,0.0,0.0,0.0,0.0,0.0,0.0,0.0,1.5691,1.5691,1.5691,1.5691,1.5691,1.5691,1.5691,1.5691,1.5691,1.535,1.483,0.0,1.4312,1.313,0.0,0.0,0.0,0.0,0.0,0.0,0.0,1.1737,1.1087,1.0332,0.9352,0.8361,0.7684,0.7603,0.7744,0.7808,0.7946,0.7997,0.7626,0.7558,0.7284,0.617,0.5902,0.5757,0.5171,0.5127,0.5205,0.5268,0.5007,0.477,0.4667,0.3486,0.2445,0.2053,0.0598,-0.0455,-0.0657,-0.1212,-0.1617,-0.1617,-0.1617,-0.1617,-0.1617,-0.2572,-0.3324,-0.3574,-0.5381,-0.6537,-0.6786,-0.7587,-0.7988,-0.7988,-0.7988,-0.7988,-0.7988,-0.7988,-0.8038,-0.8088,-0.8382,-0.9217,-1.0538,-1.1068,-1.1994,-1.3173,-1.4244,-1.4682,-1.4777,-1.5493,-1.5784,-1.5738,-1.5424,-1.515,-1.4995,0.0,0.0,0.0,0.0,0.0,0.0,0.0,0.0,0.0,0.0,0.0,0.0,0.0,0.0,0.0,0.0,0.0,0.0,0.0,0.0,0.0,0.0,0.0,0.0,0.0,0.0,0.0,0.0,0.0,0.0,0.0,1.4997,1.4997,1.4997,1.4997,1.4997,1.4997,0.0,0.0,0.0,0.0,0.0,0.0,0.0,0.0,0.0,0.0,0.0,0.0,0.0,0.0,1.0766,1.0053,0.9192,0.8382,0.7801,0.7721,0.7878,0.8141,0.8311,0.8374,0.823,0.8203,0.7936,0.6938,0.6518,0.617,0.5518,0.5263,0.5127,0.5175,0.5134,0.5082,0.5143,0.4376,0.3677,0.3331,0.1982,0.0756,0.005,-0.0656,-0.1212,-0.1566,-0.1617,-0.1617,-0.1617,-0.217,-0.2722,-0.3173,-0.4327,-0.5432,-0.6387,-0.6989,-0.7537,-0.7988,-0.7988,-0.7988,-0.7988,-0.7988,-0.7988,-0.7988,-0.7988,-0.8577,-0.9558,-0.9998,-1.0828,-1.195,-1.2974,-1.3511,-1.3709,-1.4723,-1.5159,-1.5168,-1.5365,-1.5211,-1.4988,0.0,0.0,0.0,0.0,0.0,0.0,0.0,0.0,0.0,0.0,0.0,0.0,0.0,0.0,0.0,0.0,0.0,0.0,0.0,0.0,0.0,0.0,0.0,0.0,0.0,0.0,0.0,0.0,0.0,0.0,0.0,0.0,0.0,0.0,0.0,0.0,0.0,0.0,0.0,0.0,0.0,0.0,0.0,0.0,0.0,0.0,0.0,0.0,0.0,0.0,1.0773,1.0553,0.9964,0.9134,0.8278,0.7918,0.7835,0.7905,0.8297,0.842,0.8486,0.8661,0.8703,0.8551,0.7936,0.7322,0.671,0.6054,0.5401,0.5048,0.5146,0.5262,0.5385,0.5464,0.0,0.5011,0.4368,0.3384,0.221,0.0755,0.0,-0.0707,-0.1516,-0.1617,-0.1617,-0.1617,-0.1617,-0.2019,-0.2923,-0.3123,-0.4126,-0.6134,-0.6334,-0.6836,-0.7789,-0.7939,-0.7988,-0.7988,-0.7988,-0.7988,-0.7988,-0.7988,-0.8137,-0.8432,-0.9361,-1.0047,-1.0632,-1.1804,-1.2387,-1.2775,-1.3998,-1.449,-1.4603,-1.5218,-1.5244,-1.4975,0.0,0.0,0.0,0.0,0.0,0.0,0.0,0.0,0.0,0.0,1.1553,1.1494,0.0,0.0,0.0,0.0,0.0,0.0,0.0,0.0,0.0,0.0,0.0,0.0,0.0,0.0,0.0,0.0,0.0,0.0,0.0,0.0,0.0,0.0,0.0,0.0,0.0,0.0,0.0,0.0,0.0,0.0,0.0,0.0,0.0,0.0,0.0,0.0,0.0,0.0,1.0077,0.9932,0.9646,0.8683,0.7695,0.7783,0.793,0.808,0.8335,0.8524,0.8661,0.8694,0.8703,0.8551,0.7936,0.7322,0.0,0.6054,0.5401,0.5023,0.5042,0.514,0.5257,0.5379,0.518,0.4988,0.5065,0.3689,0.2327,0.0,0.0353,-0.0707,-0.1516,-0.1617,-0.1617,-0.1617,-0.1617,-0.1667,-0.1869,-0.2722,-0.3775,-0.5027,-0.5932,-0.6487,-0.6686,-0.754,-0.7988,-0.7988,-0.7988,-0.7988,-0.7988,-0.7988,-0.8137,-0.8432,-0.8577,-0.8874,-0.9316,-1.1268,-1.2193,-1.2581,-1.4526,-1.5397,-1.5581,-1.5677,-1.5418,-1.5001,0.0,0.0,0.0,0.0,0.0,0.0,0.0,1.0685,1.1124,1.1828,1.1902,1.1744,1.1352,1.1653,0.0,0.0,0.0,0.0,0.0,0.0,0.0,0.0,0.0,0.0,0.0,0.0,0.0,0.0,0.0,0.0,0.0,0.0,0.0,0.0,0.0,0.0,0.0,0.0,0.0,0.0,0.0,0.0,0.0,0.0,0.0,0.0,0.0,0.0,0.0,0.0,1.0414,0.9926,0.9192,0.8296,0.755,0.7878,0.8039,0.8186,0.8472,0.8628,0.8703,0.8703,0.8703,0.8627,0.8318,0.0,0.0,0.6449,0.5851,0.5342,0.4972,0.5067,0.5227,0.5391,0.5353,0.5383,0.5593,0.476,0.3636,0.2279,0.1252,0.0101,-0.1263,-0.1516,-0.1617,-0.1617,-0.1617,-0.1617,-0.1617,-0.2622,-0.3423,-0.3974,-0.5029,-0.5832,-0.6387,-0.6886,-0.7437,-0.7988,-0.7988,-0.7988,-0.7988,-0.7988,-0.8088,-0.8187,-0.8187,-0.8333,-0.8676,-0.9702,-1.0293,-1.0681,-1.2818,-1.3746,-1.3968,-1.4986,-1.514,-1.4802,0.0,0.0,0.0,0.0,0.0,0.0,0.0,1.0787,1.1334,1.2002,1.2101,1.1952,1.1528,1.1803,1.1927,0.0,0.0,0.0,0.0,0.0,0.0,0.0,0.0,0.0,0.0,0.0,0.0,1.3252,0.0,0.0,0.0,0.0,0.0,0.0,0.0,0.0,0.0,0.0,0.0,0.0,0.0,0.0,0.0,0.0,0.0,0.0,0.0,0.0,0.0,0.0,1.07,1.004,0.8988,0.8172,0.7673,0.8096,0.815,0.817,0.8585,0.8703,0.8703,0.8703,0.8703,0.8703,0.8703,0.821,0.7568,0.6976,0.628,0.5635,0.5069,0.5063,0.5159,0.0,0.5513,0.5706,0.5847,0.5603,0.4825,0.3129,0.2189,0.0,-0.0606,-0.1162,-0.1465,-0.1516,-0.1566,-0.1617,-0.1617,-0.2422,-0.2873,-0.2873,-0.3874,-0.4876,-0.5682,-0.6184,-0.6836,-0.7637,-0.7889,-0.7988,-0.7988,-0.7988,-0.7988,-0.7988,-0.7988,-0.8137,-0.8333,-0.8577,-0.8825,-0.9266,-1.117,-1.2101,-1.2506,-1.4025,-1.4551,-1.4507,0.0,0.0,0.0,0.0,0.0,0.0,0.0,1.044,1.088,1.1968,1.2101,1.2076,1.2026,1.1852,1.1728,0.0,0.0,0.0,0.0,0.0,0.0,0.0,0.0,0.0,0.0,0.0,0.0,1.2157,1.2157,0.0,0.0,0.0,0.0,0.0,0.0,1.2008,0.0,0.0,0.0,0.0,0.0,0.0,0.0,0.0,0.0,0.0,0.0,0.0,0.0,0.0,0.0,0.9942,0.9388,0.863,0.804,0.8448,0.0,0.0,0.8585,0.8703,0.8703,0.8703,0.8703,0.8703,0.8703,0.0,0.7496,0.7442,0.6368,0.5444,0.5517,0.5147,0.4939,0.5167,0.0,0.5485,0.5672,0.5491,0.4992,0.4148,0.0,0.0,0.0706,-0.0303,-0.096,-0.1212,-0.1465,-0.1617,-0.1617,-0.1718,-0.1768,-0.1768,-0.2772,-0.3374,-0.3475,-0.5432,-0.6437,-0.6537,-0.7537,-0.7988,-0.7988,-0.7988,-0.7988,-0.7988,-0.7988,-0.7992,-0.8088,-0.9069,-0.9657,-0.9998,-1.1175,-1.2339,-1.338,-1.3308,-1.3661,-1.4225,0.0,0.0,0.0,0.0,0.0,0.0,1.0338,1.0981,1.1485,1.1594,1.1628,1.1494,1.1116,1.099,1.1074,1.1418,0.0,0.0,0.0,0.0,0.0,0.0,0.0,0.0,0.0,0.0,0.0,1.2008,1.2008,0.0,0.0,0.0,0.0,0.0,0.0,1.1091,1.1091,0.0,0.0,0.0,0.0,0.0,0.0,0.0,0.0,0.0,0.0,0.0,1.1261,0.0,0.0,0.0,1.004,0.9306,0.0,0.0,0.8404,0.8431,0.8513,0.8609,0.8703,0.8703,0.8703,0.867,0.8548,0.0,0.7892,0.73,0.6568,0.5892,0.555,0.5115,0.4874,0.5148,0.0,0.0,0.5556,0.5644,0.5361,0.446,0.3814,0.2784,0.1208,0.0504,-0.0151,-0.0909,-0.1061,-0.1212,-0.1364,-0.1516,-0.1617,-0.1617,-0.2019,-0.2572,-0.3173,-0.4026,-0.4778,-0.5429,-0.6534,-0.7036,-0.7039,-0.769,-0.7988,-0.7988,-0.7988,-0.7988,-0.8038,-0.8482,-0.8676,-0.8913,-0.9871,-1.0596,-1.113,-1.2132,-1.2749,-1.3236,0.0,0.0,0.0,0.0,0.0,0.9987,1.0141,1.0838,1.1276,1.1057,1.1032,1.0871,1.044,1.0389,1.0601,1.1141,1.1267,0.0,0.0,0.0,0.0,0.0,0.0,0.0,0.0,0.0,0.0,1.156,1.156,1.156,0.0,0.0,1.1074,1.1049,0.0,0.0,0.0,0.0,0.0,0.0,0.0,0.0,0.0,0.0,0.0,0.0,0.0,0.0,0.0,0.0,0.0,0.0,0.0,0.0,0.0,0.0,0.8632,0.8634,0.8502,0.8558,0.8631,0.8556,0.8519,0.8519,0.8486,0.0,0.8198,0.753,0.6979,0.6421,0.5728,0.528,0.4997,0.0,0.0,0.5358,0.5437,0.5703,0.5619,0.498,0.4624,0.3836,0.2394,0.1457,0.0504,-0.0505,-0.0707,-0.0859,-0.096,-0.1313,-0.1516,-0.1617,-0.1617,-0.1969,-0.2722,-0.3022,-0.3574,-0.4325,-0.5429,-0.6084,-0.6437,-0.7188,-0.769,-0.7988,-0.7988,-0.7988,-0.7985,-0.7941,-0.7924,-0.8009,-0.8668,-0.9144,-0.9542,-1.0808,-1.1519,-1.2051,0.0,0.0,0.0,0.0,0.0,0.0,0.9536,0.9614,0.9814,1.0338,1.0415,1.0415,1.0389,1.0389,1.0533,1.0863,1.0608,0.0,0.0,0.0,0.0,0.0,0.0,0.0,0.0,0.0,0.0,1.0522,1.0522,1.0522,1.0522,1.0522,1.0522,1.0522,0.0,0.0,0.0,0.0,0.0,0.0,0.0,0.0,0.0,0.0,0.0,0.0,0.0,0.0,0.0,0.0,0.0,0.0,0.0,0.0,0.0,0.0,0.9069,0.8774,0.8629,0.8584,0.8513,0.8195,0.812,0.8195,0.8513,0.8443,0.831,0.8272,0.7707,0.6966,0.623,0.5701,0.5277,0.4854,0.5034,0.0,0.5396,0.5581,0.5731,0.589,0.5161,0.4698,0.4651,0.254,0.0857,0.005,-0.0505,-0.0707,-0.0404,-0.0909,-0.1314,-0.1617,-0.1617,-0.1617,-0.1617,-0.2672,-0.3224,-0.3224,-0.4323,-0.5377,-0.6387,-0.6437,-0.6989,-0.7988,-0.7988,-0.7988,-0.7978,-0.7875,-0.7814,-0.7814,-0.7811,-0.8479,-0.9384,-0.9292,-0.991,-1.083,0.0,0.0,0.0,0.0,0.0,0.0,0.0,0.9909,1.0218,1.0389,1.0389,1.0389,1.0389,1.0389,1.0609,1.1124,1.0922,0.0,0.0,0.0,0.0,0.0,0.0,0.0,0.0,0.0,0.0,1.0496,1.0496,1.0496,1.0496,1.0496,1.0496,1.0496,1.0496,1.0496,0.0,0.0,0.0,0.0,0.0,0.0,0.0,0.0,0.0,0.0,0.0,0.0,0.0,0.0,0.0,0.0,0.0,0.0,0.0,0.9456,0.9301,0.908,0.8811,0.884,0.892,0.8815,0.8775,0.8774,0.8727,0.8672,0.8606,0.8454,0.7962,0.7414,0.7043,0.6359,0.5699,0.5402,0.5263,0.0,0.0,0.0,0.0,0.5994,0.5266,0.4792,0.4792,0.276,0.1361,0.111,0.0252,-0.0303,-0.0404,-0.0556,-0.0859,-0.1314,-0.1516,-0.1617,-0.1617,-0.1919,-0.212,-0.212,-0.3173,-0.3875,-0.4277,-0.5732,-0.6587,-0.6933,-0.7583,-0.7882,-0.7879,-0.7831,-0.7811,-0.7811,-0.7811,-0.8,-0.8372,-0.8875,-0.9345,-1.0006,0.0,0.0,0.0,0.0,0.0,0.0,0.0,0.9762,1.009,1.009,1.0261,1.0389,1.0389,1.0389,1.0626,1.1242,1.1049,0.0,0.0,0.0,0.0,0.0,0.0,0.0,0.0,0.0,1.0326,1.0496,1.018,1.0095,1.0223,1.0069,0.9999,0.9999,0.9999,0.0,0.0,0.0,0.0,0.0,0.0,0.0,1.0475,0.0,0.0,0.0,0.0,0.0,0.0,0.0,0.0,0.0,0.0,0.0,0.0,0.0,0.9435,0.9295,0.8953,0.8958,0.9039,0.8903,0.8869,0.8865,0.8887,0.0,0.8849,0.8701,0.8436,0.8045,0.7583,0.7047,0.6506,0.6134,0.5726,0.5522,0.0,0.5532,0.5613,0.5975,0.5647,0.5232,0.4783,0.356,0.2469,0.1664,0.0958,0.0353,-0.0202,-0.0354,-0.0556,-0.0909,-0.1162,-0.1364,-0.1465,-0.1465,-0.1516,-0.1617,-0.227,-0.2822,-0.3222,-0.4595,-0.5424,-0.5864,-0.6824,-0.7279,0.0,-0.7666,-0.7811,-0.7811,-0.7811,-0.7811,-0.7856,-0.8438,-0.8707,-0.9096,0.0,0.0,0.0,0.0,0.0,0.0,0.0,0.9335,0.9666,0.9718,1.0141,1.0466,1.0517,1.0517,1.0754,1.1318,0.0,0.0,0.0,0.0,0.0,0.0,0.0,0.0,0.0,1.0035,1.0017,1.0451,0.9639,0.943,0.9803,0.9404,0.922,0.9213,0.9199,0.0,0.0,0.0,0.0,0.0,0.9821,1.0049,0.0,0.0,0.0,0.0,0.0,0.0,0.0,0.0,0.0,0.0,0.0,0.0,0.0,0.0,0.0,0.0,0.0,0.9049,0.8958,0.8641,0.8582,0.8641,0.8958,0.0,0.0,0.9049,0.9049,0.8786,0.7934,0.7792,0.7615,0.7074,0.6455,0.6032,0.6151,0.5735,0.5532,0.5863,0.6111,0.5915,0.4893,0.4825,0.3972,0.1965,0.1664,0.116,0.0151,-0.0202,-0.0354,-0.0354,-0.0606,-0.0859,-0.1162,-0.1162,-0.1314,-0.1566,-0.1566,-0.2119,-0.3071,-0.3165,-0.3725,-0.4746,-0.5817,-0.6306,-0.6452,-0.7327,-0.7714,-0.7814,-0.7824,-0.7828,-0.7845,-0.7938,-0.7988,-0.8187,0.0,0.0,0.0,0.0,0.0,0.0,0.0,0.0,0.0,0.0,1.1006,1.1234,1.166,1.171,1.1769,0.0,0.0,0.0,0.0,0.0,0.0,0.0,0.0,0.0,0.0,0.9865,0.981,0.9805,0.9615,0.9646,0.9946,0.9639,0.9507,0.9493,0.929,0.0,0.0,0.0,0.0,0.0,0.9917,1.0087,0.0,0.0,0.0,0.0,1.0336,1.0154,0.0,0.0,0.0,0.0,0.0,0.0,0.0,0.0,0.9516,0.9484,0.9414,0.0,0.935,0.9285,0.9259,0.9291,0.0,0.0,0.0,0.0,0.0,0.0,0.0,0.0,0.8423,0.803,0.7492,0.7032,0.6763,0.6189,0.5809,0.5893,0.6037,0.6069,0.5917,0.521,0.4512,0.4074,0.2519,0.1513,0.1261,0.0404,-0.0101,-0.0101,-0.0152,-0.0404,-0.0909,-0.0909,-0.101,-0.1313,-0.1313,-0.1515,-0.2019,-0.2809,-0.3352,-0.3648,-0.4577,-0.5475,-0.6255,-0.6497,-0.7079,-0.7824,-0.7891,-0.7934,-0.7941,-0.7975,-0.7988,-0.8187,0.0,0.0,0.0,0.0,0.0,0.0,0.0,0.0,0.0,0.0,0.0,0.0,0.0,0.0,0.0,0.0,0.0,0.0,0.0,0.0,0.0,0.0,0.0,0.0,0.0,0.956,0.9554,0.9785,0.9391,0.9363,0.9724,0.9357,0.9199,0.9193,0.9265,0.0,0.0,0.0,0.0,0.9897,0.9951,0.0,0.0,0.0,0.0,0.0,1.0211,1.0053,0.0,0.9766,0.9734,0.9734,0.0,0.0,0.0,0.0,0.958,0.9516,0.9516,0.9516,0.9516,0.9516,0.9516,0.9516,0.9516,0.0,0.0,0.0,0.0,0.0,0.0,0.0,0.0,0.8955,0.853,0.7891,0.7107,0.6621,0.6198,0.5942,0.601,0.6089,0.61,0.5669,0.5142,0.4706,0.3581,0.2709,0.2286,0.1245,0.065,0.0757,0.0252,-0.0202,-0.0606,-0.0606,-0.0758,-0.101,-0.1162,-0.1263,-0.1465,-0.215,-0.2489,-0.2537,-0.3541,-0.4547,-0.562,-0.6067,-0.6929,-0.7923,-0.7958,-0.7988,-0.7988,-0.7988,-0.7988,-0.8137,0.0,0.0,0.0,0.0,0.0,0.0,0.0,0.0,0.0,0.0,0.0,0.0,0.0,0.0,0.0,0.0,0.0,0.0,0.0,0.0,0.0,0.0,0.0,0.9658,0.9805,0.9369,0.9404,0.9959,0.9177,0.9031,0.9459,0.8966,0.8746,0.8769,0.9155,0.0,0.0,0.0,0.9717,0.9892,0.991,0.0,0.0,0.0,0.0,0.0,0.0,0.0,0.0,1.0015,0.9983,0.9983,0.9983,0.0,0.0,0.0,0.0,0.0,0.9516,0.9516,0.9516,0.9516,0.9516,0.9516,0.9516,0.0,0.0,0.0,0.0,0.0,0.0,0.9704,0.0,0.0,0.9464,0.8742,0.7436,0.7034,0.6656,0.5979,0.5977,0.5999,0.5912,0.5996,0.5685,0.4797,0.4623,0.4135,0.3325,0.2258,0.1636,0.1613,0.0707,0.005,-0.0354,-0.0354,-0.0455,-0.0758,-0.096,-0.1111,-0.1161,-0.1392,-0.148,-0.1578,-0.2511,-0.3538,-0.4618,-0.5693,-0.6786,-0.7789,-0.7939,-0.7988,-0.7988,-0.7988,-0.7988,-0.8137,0.0,0.0,0.0,0.0,0.0,0.0,0.0,0.0,0.0,0.0,0.0,0.0,0.0,0.0,0.0,0.0,0.0,0.0,0.0,0.0,0.0,0.0,0.0,1.0194,0.9893,0.9807,0.9753,0.9758,0.9442,0.9439,0.9737,0.9272,0.9011,0.8968,0.9026,0.9178,0.9366,0.9594,0.9758,0.9899,0.9949,0.0,0.0,0.0,0.0,0.0,0.0,0.0,0.0,1.0047,0.9983,0.9983,0.9983,0.0,0.0,0.0,0.0,0.0,0.9516,0.9516,0.9516,0.9516,0.9516,0.9516,0.0,0.0,0.0,0.0,0.0,0.0,0.0,1.0025,1.0294,0.0,1.0253,0.9507,0.8054,0.7599,0.7012,0.6025,0.5836,0.5817,0.5896,0.592,0.5926,0.5839,0.5117,0.4586,0.4452,0.3479,0.2512,0.1613,0.1462,0.0908,-0.0051,-0.0051,-0.0202,-0.0455,-0.0505,-0.0657,-0.0859,-0.0907,-0.1056,-0.1257,-0.1458,-0.2259,-0.3509,-0.462,-0.5679,-0.6736,-0.7637,-0.7988,-0.7988,-0.7988,-0.7988,-0.8038,0.0,0.0,0.0,0.0,0.0,0.0,0.0,0.0,0.0,0.0,0.0,0.0,0.0,0.0,0.0,0.0,0.0,0.0,0.0,0.0,0.0,0.0,1.0548,1.0352,0.992,0.9831,0.9903,1.0123,1.0053,0.9988,1.0015,0.9641,0.9475,0.942,0.9506,0.9659,0.9855,0.996,1.0112,1.0281,0.0,0.0,0.0,0.0,0.0,0.0,0.0,0.0,0.0,0.0,1.0333,1.0333,1.0333,0.0,0.0,0.0,0.0,0.0,0.9676,0.9676,0.9644,0.9516,0.9516,0.9516,0.0,0.0,0.0,0.0,0.0,0.0,0.0,0.0,1.0587,1.0851,1.0822,1.0454,0.9648,0.8783,0.8019,0.731,0.6469,0.593,0.5984,0.5957,0.5926,0.5983,0.5668,0.547,0.5577,0.4589,0.3786,0.3324,0.2771,0.1966,0.0858,0.0858,0.0505,-0.0202,-0.0354,-0.0455,-0.0606,-0.0758,-0.0859,-0.096,-0.096,-0.1765,-0.3021,-0.3522,-0.4776,-0.6437,-0.6936,-0.7487,-0.7988,-0.7988,-0.7988,-0.7988,0.0,0.0,0.0,0.0,0.0,0.0,0.0,0.0,0.0,0.0,0.0,0.0,0.0,0.0,0.0,0.0,0.0,0.0,0.0,0.0,1.0593,1.0593,1.0593,1.0423,1.008,0.9957,1.0141,1.0632,1.0566,1.0433,1.0267,0.9993,0.9868,0.9926,1.0021,1.0174,1.0371,1.0371,1.0466,1.0593,0.0,0.0,0.0,0.0,0.0,0.0,0.0,0.0,0.0,0.0,0.0,0.0,0.0,0.0,0.0,1.0301,1.0149,0.9983,0.9862,0.9836,0.9804,0.9638,0.0,0.0,0.0,0.0,0.0,0.0,0.0,0.0,0.0,1.046,1.0876,1.1081,1.1306,1.1307,1.0871,1.0062,0.9206,0.8474,0.727,0.6402,0.6171,0.6034,0.5961,0.5945,0.6059,0.617,0.6311,0.5554,0.5008,0.4782,0.3979,0.3073,0.1966,0.1966,0.1412,0.0353,-0.0101,-0.0151,0.005,-0.0404,-0.0657,-0.0707,-0.0707,-0.1312,-0.2367,-0.2619,-0.3823,-0.5632,-0.6134,-0.6986,-0.7988,-0.7988,-0.7988,-0.7988,0.0,0.0,0.0,0.0,0.0,0.0,0.0,0.0,0.0,0.0,0.0,0.0,0.0,0.0,0.0,0.0,0.0,0.0,0.0,0.0,1.0593,1.0593,1.0593,1.0586,1.0559,1.0528,1.0681,1.0956,1.0797,1.0599,1.0466,1.0148,1.0079,1.0269,1.0269,1.0403,1.0593,1.0593,1.0593,1.0593,1.0593,0.0,0.0,0.0,0.0,0.0,0.0,0.0,0.0,0.0,0.0,0.0,0.0,0.0,1.0301,1.0301,1.0149,0.9983,0.9989,0.9989,0.9983,0.9951,0.0,0.0,0.0,0.0,0.0,0.9829,0.0,0.0,0.0,1.0894,1.1087,1.1105,1.173,1.1873,1.0935,1.1022,1.0526,0.8625,0.799,0.732,0.6387,0.627,0.6233,0.6111,0.6235,0.6309,0.6317,0.6267,0.5827,0.4834,0.4734,0.418,0.3073,0.3073,0.2569,0.1462,0.0454,0.0505,0.1412,0.0404,-0.0202,-0.0404,-0.0404,-0.0606,-0.101,-0.2015,-0.2668,-0.3271,-0.5227,-0.6833,-0.7988,-0.7988,-0.7988,-0.7988,0.0,0.0,0.0,0.0,0.0,0.0,0.0,0.0,0.0,0.0,0.0,0.0,0.0,0.0,0.0,0.0,0.0,0.0,0.0,0.0,1.0593,1.0593,1.0593,1.0593,1.0593,1.0593,1.0734,1.0995,1.0797,1.0789,1.0924,1.0425,1.0238,1.0308,1.0434,1.053,1.0593,1.0593,1.0593,1.0593,1.0593,1.0593,0.0,0.0,0.0,0.0,0.0,0.0,0.0,0.0,1.0593,1.0593,1.0593,1.0561,1.0498,1.0498,1.0434,1.0333,1.0212,1.018,1.0149,1.0015,0.0,0.0,0.0,0.0,0.0,1.0128,1.0274,0.0,0.0,0.0,1.1111,1.1111,1.1787,1.2236,1.2017,1.1916,1.1556,1.0808,0.9354,0.8215,0.7682,0.711,0.6765,0.6717,0.6649,0.6624,0.6624,0.6465,0.6234,0.5784,0.5787,0.5284,0.418,0.413,0.3908,0.3513,0.2504,0.1865,0.1563,0.116,0.0555,-0.0151,-0.015,-0.0298,-0.0595,-0.0979,-0.1702,-0.2768,-0.4852,-0.6016,-0.6551,-0.7228,-0.752,-0.752,0.0,0.0,0.0,0.0,0.0,0.0,0.0,0.0,0.0,0.0,0.0,0.0,0.0,0.0,0.0,0.0,0.0,0.0,0.0,1.0624,1.0593,1.0593,1.0593,1.0593,1.0593,1.0593,1.0734,1.0995,1.0863,1.0896,1.1113,1.0626,1.0403,1.0403,1.053,1.0593,1.0593,1.0593,1.0593,1.0593,1.0593,1.0593,0.0,0.0,0.0,0.0,0.0,0.0,0.0,0.0,1.0593,1.0593,1.0593,1.0593,1.0593,1.0593,1.0593,1.0561,1.0434,1.0403,1.0371,0.0,0.0,0.0,0.0,0.0,0.0,1.0399,1.0623,0.0,1.1081,0.0,1.1111,1.1111,1.1787,1.2403,1.2668,1.2626,1.2471,1.2267,1.0815,0.9498,0.8656,0.8062,0.7534,0.7143,0.6952,0.6834,0.6784,0.6544,0.6372,0.6325,0.6287,0.5876,0.5147,0.5049,0.5,0.5002,0.4298,0.3473,0.2524,0.2178,0.1436,0.0446,0.044,0.0146,-0.0291,-0.0288,-0.1047,-0.2424,-0.3942,-0.4748,-0.5176,-0.6264,-0.6643,-0.6741,0.0,0.0,0.0,0.0,0.0,0.0,0.0,0.0,0.0,0.0,0.0,0.0,0.0,0.0,0.0,0.0,0.0,0.0,0.0,1.0681,1.0593,1.0593,1.0593,1.0593,1.0593,1.0593,1.0734,1.0995,1.0995,1.0995,1.0989,1.0727,1.0593,1.0593,1.0593,1.0593,1.0593,1.0593,1.0593,1.0593,1.0593,1.0593,1.0593,0.0,0.0,0.0,0.0,0.0,0.0,0.0,1.0593,1.0593,1.0593,0.0,1.0593,1.0593,1.0593,1.0593,1.0593,1.0593,1.0593,0.0,0.0,0.0,0.0,0.0,0.0,1.0707,1.093,1.1111,1.1111,1.1111,1.1111,1.1111,1.1787,1.2403,1.2662,1.3169,1.3238,1.2596,1.2265,1.1276,0.9216,0.9,0.8538,0.7322,0.7113,0.6943,0.6746,0.6524,0.6311,0.6128,0.5964,0.5901,0.5901,0.5742,0.5688,0.5688,0.5686,0.5259,0.4464,0.342,0.2376,0.1427,0.1427,0.0904,0.0,0.0,-0.0762,-0.1997,-0.2279,-0.3038,-0.408,-0.5124,-0.5506,-0.5648,0.0,0.0,0.0,0.0,0.0,0.0,0.0,0.0,0.0,0.0,0.0,0.0,0.0,0.0,0.0,0.0,0.0,0.0,0.0,1.0776,1.0713,1.0593,1.0593,1.0593,1.0593,1.0593,1.0834,1.1296,1.0889,1.0902,1.1283,1.0821,1.0593,1.0593,1.0593,1.0593,1.0593,1.0593,1.0593,1.0593,1.0593,1.0593,1.0593,0.0,0.0,0.0,0.0,0.0,0.0,0.0,0.0,0.0,1.0593,0.0,1.0593,1.0593,1.0593,1.0593,1.0593,1.0593,0.0,1.0593,0.0,0.0,0.0,0.0,0.0,0.0,1.1057,1.1111,1.1111,1.1111,1.1111,1.1111,1.1787,1.2337,1.2415,1.3055,1.3341,1.2958,1.2342,1.1624,1.0848,1.0283,0.9831,0.9463,0.906,0.8548,0.7951,0.7486,0.6866,0.606,0.5978,0.5913,0.5739,0.5621,0.5561,0.5561,0.5518,0.5071,0.4372,0.4046,0.3376,0.247,0.2435,0.1909,0.0931,0.0276,-0.0229,-0.0686,-0.1415,-0.187,-0.2326,-0.3461,-0.4324,-0.5008,0.0,0.0,0.0,0.0,0.0,0.0,0.0,0.0,0.0,0.0,1.31,1.2826,0.0,0.0,0.0,1.1341,1.1185,0.0,1.0933,1.0776,1.0681,1.0593,1.0593,1.0593,1.0593,1.0593,1.0821,1.1249,1.0935,1.0909,1.1243,1.0895,1.0767,1.0767,0.0,1.0767,1.0774,1.0855,1.0868,1.0767,1.0767,1.07,1.0593,0.0,0.0,0.0,0.0,0.0,0.0,0.0,0.0,0.0,1.0593,0.0,0.0,1.0593,1.0593,1.0593,1.0593,1.0593,0.0,1.0593,1.0929,1.1242,1.1189,0.0,0.0,0.0,1.1149,1.1111,1.1111,1.1111,1.1111,1.1111,1.1697,1.2192,1.23,1.2916,1.3338,1.329,1.2824,1.2264,1.1575,1.1091,1.0627,1.0134,0.9717,0.9248,0.8677,0.8288,0.7597,0.6529,0.6429,0.6151,0.5646,0.5482,0.5377,0.5294,0.5265,0.503,0.4651,0.4691,0.4206,0.3259,0.2906,0.2223,0.1334,0.0748,0.0306,-0.0044,-0.0613,-0.0831,-0.0962,-0.2095,-0.2879,-0.3488,0.0,0.0,1.1864,1.174,0.0,0.0,0.0,0.0,0.0,1.2512,1.242,1.2212,0.0,0.0,0.0,1.1591,1.131,1.1153,1.1122,1.0839,1.0656,1.0624,1.0624,1.0593,1.0593,1.0593,1.072,1.0955,1.0955,1.0969,0.0,0.0,1.0969,1.0995,0.0,1.1009,1.1049,1.1316,1.1276,1.1035,1.1035,1.0894,1.0633,1.0633,0.0,0.0,0.0,0.0,0.0,0.0,0.0,0.0,1.0593,1.0593,1.0593,1.0593,1.0593,1.0593,1.0593,1.0593,0.0,1.0593,1.0863,0.0,1.1653,1.1446,1.1186,1.1372,0.0,1.1111,1.1111,1.1111,1.1111,1.1111,1.1546,1.1928,1.221,1.2687,1.3103,1.3344,1.3369,1.2865,1.1651,1.1547,1.1056,0.9885,0.9686,0.9447,0.9135,0.8987,0.8391,0.7338,0.7188,0.6676,0.5734,0.5535,0.5359,0.5171,0.5093,0.5109,0.5213,0.5336,0.4897,0.3982,0.3019,0.2224,0.1512,0.1344,0.0841,0.0126,0.0042,0.0,-0.0084,-0.0967,-0.1345,-0.1554,0.0,0.0,1.2589,1.2558,0.0,0.0,0.0,0.0,1.2489,1.1856,1.1802,1.174,1.1622,1.1591,0.0,1.1591,1.1529,1.1435,1.1279,1.1185,1.1021,1.0776,1.0649,1.0593,1.0593,1.0593,1.062,1.0687,1.0687,0.0,0.0,0.0,0.0,1.0995,0.0,1.1122,1.1336,1.1369,1.1355,1.1295,1.1295,1.1156,1.0902,1.0902,1.0787,0.0,0.0,0.0,0.0,0.0,0.0,0.0,1.0593,1.0593,1.0593,1.0593,1.0593,1.0593,1.0593,1.0593,0.0,0.0,1.0863,1.1299,1.2018,1.1855,1.1558,1.1409,1.1372,1.1298,1.1149,1.1111,1.1111,1.1111,1.1357,1.1597,1.1651,1.1934,1.2163,1.2258,1.2223,1.2117,1.1852,1.1805,1.17,1.1432,1.1158,1.0739,1.006,0.9803,0.9212,0.816,0.8116,0.7906,0.7529,0.6876,0.6518,0.6479,0.5789,0.5416,0.5286,0.525,0.5194,0.5032,0.4024,0.3522,0.3228,0.1847,0.1177,0.0967,0.0252,0.0,-0.0042,-0.021,-0.0757,-0.1429,0.0,0.0,0.0,0.0,0.0,0.0,0.0,0.0,1.2042,1.1654,1.1591,1.1591,1.1591,1.1591,0.0,0.0,1.1498,1.1397,1.1303,1.1247,1.1122,1.0965,1.0877,1.0776,1.0713,1.0713,1.0649,1.0593,0.0,0.0,0.0,0.0,0.0,1.1209,0.0,1.1496,1.165,1.179,1.1764,1.1637,1.1637,1.1463,1.1182,1.1049,1.0902,1.078,1.064,0.0,0.0,0.0,0.0,0.0,0.0,0.0,1.0593,1.0593,1.0807,1.0965,1.0688,0.0,0.0,1.1241,0.0,1.2355,1.2528,1.2556,1.2402,1.1818,1.1595,1.1484,1.1298,1.1223,1.1223,1.1111,1.1569,1.1831,1.1528,1.1994,1.22,1.192,1.188,1.1832,1.1706,1.17,1.1679,1.1546,1.1407,1.1138,1.0707,1.0549,1.0062,0.915,0.9112,0.8841,0.8232,0.7812,0.7583,0.7472,0.6633,0.5941,0.5443,0.5193,0.514,0.516,0.467,0.4223,0.3772,0.2882,0.2233,0.1787,0.0935,0.0611,0.057,0.0163,-0.0326,-0.0732,0.0,0.0,0.0,0.0,0.0,0.0,0.0,0.0,0.0,1.1685,1.1622,1.1622,1.1622,1.1622,1.1591,0.0,0.0,0.0,1.1334,1.1216,1.1122,1.1122,1.109,1.0965,1.0807,1.0776,1.0713,0.0,0.0,0.0,0.0,0.0,0.0,1.1402,0.0,1.1933,1.1993,1.2204,1.2164,1.198,1.198,1.177,1.147,1.1176,1.1035,1.0955,1.07,1.0593,1.0593,1.0593,0.0,0.0,0.0,0.0,1.0593,1.0593,1.1021,1.1397,1.0902,0.0,1.1744,1.2077,1.285,0.0,1.315,1.3334,1.3353,1.2609,1.2181,1.1885,1.17,1.1774,1.1768,1.1552,1.2117,1.2393,1.1801,1.2266,1.2491,1.1979,1.1821,1.1657,1.1441,1.1423,1.1327,1.1129,1.1111,1.1111,1.1111,1.1111,1.0775,1.0143,1.0105,0.9717,0.8874,0.8723,0.8575,0.8385,0.7548,0.6784,0.6057,0.5556,0.521,0.5054,0.5054,0.4659,0.3988,0.3869,0.3363,0.2659,0.184,0.141,0.1215,0.0471,0.0118,0.0,0.0,0.0,0.0,0.0,0.0,0.0,0.0,0.0,0.0,0.0,1.1778,1.1654,1.1771,1.1654,1.1591,1.1591,1.1591,1.156,1.156,0.0,0.0,1.1272,1.0989,1.0839,1.0807,1.0688,1.0624,0.0,0.0,0.0,0.0,0.0,0.0,1.1402,0.0,0.0,1.2245,1.2285,1.2278,1.2245,1.2245,1.2071,1.1812,1.1483,1.1209,1.0955,1.07,1.0593,1.0593,1.0593,1.0593,0.0,0.0,0.0,1.0593,1.0593,1.1021,1.1483,0.0,0.0,1.2445,0.0,1.298,1.3217,0.0,0.0,1.3999,1.4216,1.3593,1.2945,1.2755,1.3215,1.3542,1.3237,1.328,1.3199,1.2772,1.2361,1.2083,1.2008,1.1521,1.1208,1.1172,1.1166,1.1154,1.1111,1.1111,1.1111,1.1111,1.1111,1.1037,1.0925,1.0925,1.0887,1.0732,1.0062,0.969,0.9652,0.8651,0.8152,0.7999,0.7049,0.6131,0.5243,0.5243,0.509,0.4779,0.4068,0.3713,0.3558,0.266,0.1918,0.1293,0.1176,0.0667,0.0,0.0,0.0,0.0,0.0,0.0,0.0,0.0,0.0,0.0,0.0,0.0,1.1622,1.1685,1.1654,1.1591,1.1591,1.1591,1.1591,1.1591,1.1529,1.1466,1.1466,1.1341,1.1216,1.1083,1.1028,0.0,0.0,0.0,0.0,0.0,1.1363,1.1584,0.0,0.0,0.0,0.0,1.2305,1.2305,1.2305,1.2305,1.2131,0.0,0.0,0.0,0.0,1.07,1.0593,1.0593,1.0593,1.0593,1.0593,1.0593,0.0,0.0,0.0,1.1818,1.262,1.262,1.2834,1.3111,0.0,1.3718,1.4153,1.3991,1.4321,1.4598,1.4326,1.4466,1.4458,1.3803,1.3939,1.4083,1.3803,1.4063,1.4034,1.3324,1.3288,1.3105,1.2562,1.1966,1.1595,1.1595,1.1298,1.1111,1.1111,1.1111,1.1111,1.1111,1.1111,1.1111,1.1111,1.1111,1.1111,1.1111,1.0738,1.0368,0.9884,0.9458,0.8998,0.8542,0.8122,0.7284,0.617,0.555,0.5243,0.5129,0.4657,0.4462,0.4384,0.3558,0.301,0.2582,0.1644,0.1058,0.0667,0.0,0.0,0.0,0.0,0.0,0.0,0.0,0.0,0.0,0.0,0.0,1.1716,1.1716,0.0,0.0,0.0,1.1591,1.1591,1.1591,1.1591,1.1591,1.1591,1.156,1.1466,1.1303,1.1279,0.0,0.0,0.0,0.0,1.1229,1.1698,1.1946,0.0,1.2204,1.2305,0.0,0.0,0.0,0.0,1.2225,1.2064,0.0,0.0,0.0,0.0,0.0,0.0,1.1052,1.0902,1.0926,1.1076,1.1076,1.1389,0.0,0.0,0.0,0.0,0.0,0.0,1.3761,1.3761,1.4353,1.482,0.0,0.0,1.5042,1.4678,1.5282,1.5713,1.5084,1.495,1.4879,1.4629,1.4966,1.4974,1.4178,1.4294,1.4158,1.3331,1.2739,1.2335,1.2224,1.1818,1.1558,1.1558,1.1558,1.1558,1.1558,1.1409,1.1335,1.1335,1.1186,1.1111,1.1111,1.1111,1.0812,1.0218,1.0218,0.9873,0.9301,0.9079,0.8508,0.7591,0.6321,0.5744,0.5667,0.5323,0.5132,0.5012,0.4419,0.4025,0.3636,0.2387,0.184,0.1567,0.0,0.0,0.0,0.0,0.0,0.0,0.0,0.0,0.0,0.0,0.0,1.2058,1.2058,1.1903,1.1747,1.1622,1.1591,1.1591,1.1591,1.1591,1.1591,1.1591,1.1435,0.0,1.1303,0.0,0.0,0.0,0.0,0.0,1.1859,1.1893,1.2053,1.2278,1.2291,1.2305,1.2305,0.0,0.0,0.0,1.2004,1.1919,1.1846,0.0,0.0,0.0,0.0,1.1382,1.2297,1.1663,1.188,1.2389,1.2389,1.242,1.2451,0.0,0.0,0.0,0.0,1.4446,0.0,1.4446,1.4494,1.4604,0.0,0.0,1.5323,1.6024,1.623,1.6358,1.6688,1.676,1.6656,1.6237,1.6202,1.6088,1.5727,1.5223,1.4724,1.4266,1.3753,1.3288,1.29,1.2826,1.2826,1.2826,1.2826,1.2826,1.2826,1.2261,1.1966,1.1966,1.1409,1.1111,1.1111,1.1111,1.1074,1.1037,1.1037,1.1037,1.0962,1.018,0.9803,0.9652,0.7889,0.6973,0.6749,0.5906,0.5443,0.5282,0.5243,0.4652,0.3791,0.3713,0.3285,0.2582,0.0,0.0,0.0,0.0,0.0,0.0,0.0,0.0,0.0,0.0,0.0,0.0,0.0,1.1778,1.1654,1.1591,1.1591,1.1591,1.1591,1.1591,1.1591,1.1591,1.1529,0.0,0.0,0.0,0.0,0.0,0.0,1.2012,1.209,1.2136,1.2204,1.2305,1.2305,1.2305,1.2305,1.2305,0.0,1.2278,1.202,1.2032,1.2191,0.0,0.0,1.2281,1.1949,1.2112,1.2451,1.2205,1.2297,1.2512,1.2512,1.2787,0.0,0.0,0.0,0.0,0.0,0.0,0.0,1.4515,1.4515,1.4552,1.4689,1.4919,1.5184,1.5478,1.5735,1.6037,1.645,1.6734,1.6839,1.67,1.67,1.6551,1.6167,1.5947,1.5657,1.5303,1.476,1.4322,1.4186,1.3818,1.3629,1.3629,1.3157,1.2899,1.2899,1.2255,1.1871,1.1871,1.1653,1.1413,1.1101,1.0753,1.0575,1.0575,1.0575,1.0575,1.0581,1.0459,1.0425,1.0358,0.9353,0.8237,0.7049,0.6633,0.6057,0.5479,0.5479,0.5282,0.489,0.4375,0.4023,0.3711,0.0,0.0,0.0,0.0,0.0,0.0,0.0,0.0,0.0,0.0,0.0,0.0,0.0,0.0,1.2138,1.1907,1.1882,1.1882,1.1882,1.1882,1.1882,1.1882,1.1882,0.0,0.0,0.0,0.0,0.0,0.0,0.0,0.0,1.2394,1.2415,1.2415,1.2342,1.2305,0.0,0.0,0.0,1.2167,1.2085,1.2019,1.1914,0.0,1.1981,1.2151,1.2151,1.2451,1.2856,1.2856,1.2978,1.3161,1.3161,1.348,0.0,0.0,0.0,0.0,1.4515,0.0,0.0,0.0,1.4515,1.4515,1.4515,1.4717,1.4937,1.5074,1.5313,1.5615,1.6028,1.6321,1.6587,1.6862,1.6908,1.6804,1.6551,1.6482,1.6377,1.6017,1.5621,1.5288,1.5023,1.4646,1.4336,1.4225,1.3761,1.3466,1.3466,1.2708,1.2117,1.1819,1.1785,1.1649,1.1348,1.097,1.0805,1.0805,1.0805,1.0736,1.0575,1.0754,1.0728,1.0563,1.0193,0.9314,0.8084,0.7668,0.6976,0.6135,0.6135,0.5906,0.5515,0.4958,0.4783,0.4699,0.0,0.0,0.0,0.0,0.0,0.0,0.0,0.0,0.0,0.0,0.0,0.0,0.0,0.0,0.0,1.2557,1.2485,1.2485,1.2485,1.2485,1.2485,1.2485,1.2485,0.0,0.0,0.0,0.0,0.0,0.0,0.0,0.0,0.0,1.2599,1.2599,1.2378,1.2305,1.2305,0.0,1.2124,1.195,1.2218,1.184,1.1087,1.1417,1.1545,1.1577,1.1577,1.2405,1.3541,1.3541,1.395,1.4515,1.4515,0.0,0.0,0.0,0.0,0.0,0.0,0.0,0.0,0.0,1.4506,1.4515,1.4515,1.4515,1.4616,1.5001,1.5084,1.5203,1.5597,1.567,1.5936,1.6743,1.6872,1.6872,1.6872,1.6872,1.6724,1.6341,1.6271,1.5982,1.5266,1.5197,1.5043,1.4659,1.4625,1.4584,1.4584,1.371,1.2796,1.1859,1.1825,1.1791,1.1791,1.1791,1.1791,1.1791,1.1791,1.1526,1.1088,1.1095,1.0792,1.0321,1.0292,1.0152,0.9857,0.9059,0.8109,0.7226,0.7188,0.6542,0.561,0.5475,0.5535,0.5547,0.0,0.0,0.0,0.0,0.0,0.0,0.0,0.0,0.0,0.0,0.0,0.0,0.0,0.0,1.3349,1.2579,1.2485,1.2485,1.2485,1.2485,1.2485,1.2485,1.2485,1.2485,0.0,0.0,0.0,0.0,0.0,0.0,0.0,0.0,0.0,0.0,1.2378,1.2305,1.2285,1.2078,0.0,1.1859,1.1519,1.1807,1.2428,1.2274,1.2834,1.3679,1.3679,1.392,1.4228,1.4228,1.4357,1.4515,1.4515,0.0,0.0,0.0,0.0,0.0,1.4823,0.0,0.0,0.0,0.0,0.0,1.4506,1.4515,1.4543,1.4653,1.4671,1.4799,1.5194,1.5258,1.5432,1.5945,1.6028,1.6028,1.6028,1.6028,1.5995,1.5887,1.5863,1.5785,1.5569,1.556,1.5515,1.5407,1.4905,1.4588,1.4588,1.3637,1.2924,1.2672,1.2103,1.1816,1.1816,1.1425,1.1233,1.1233,1.1233,1.1136,1.1021,1.0877,1.0742,1.0587,1.038,1.0271,1.0118,0.9323,0.8493,0.7662,0.7163,0.6803,0.647,0.5917,0.5719,0.5709,0.0,0.0,0.0,0.0,0.0,0.0,0.0,0.0,0.0,0.0,0.0,0.0,0.0,0.0,0.0,1.3894,1.3566,1.3393,1.3393,1.3095,1.2928,1.2928,1.2928,1.2928,1.2928,0.0,0.0,0.0,0.0,0.0,0.0,0.0,0.0,0.0,1.2562,1.2348,1.2249,0.0,1.1963,1.1713,1.1803,1.2069,1.2397,1.2784,1.323,1.37,1.398,1.407,1.4139,1.4417,1.4536,1.4586,1.4586,1.4654,0.0,0.0,0.0,0.0,0.0,0.0,0.0,0.0,0.0,0.0,1.4616,1.4586,1.4556,1.4506,1.4515,1.4579,1.4808,1.4854,1.4928,1.5157,1.5194,1.5313,1.5643,1.5689,1.5689,1.5689,1.5689,1.5625,1.546,1.5441,1.5377,1.5212,1.4789,1.45,1.4377,1.377,1.3346,1.3216,1.2605,1.2297,1.2297,1.1895,1.1677,1.1677,1.1677,1.1553,1.1334,1.1202,1.1028,1.0815,1.0652,1.059,1.0524,0.9888,0.912,0.8353,0.7964,0.7442,0.6833,0.633,0.5955,0.5705,0.0,0.0,1.7699,1.7699,1.7699,0.0,0.0,0.0,0.0,0.0,0.0,0.0,0.0,0.0,0.0,0.0,1.51,1.4708,1.4708,1.4122,1.3739,1.3739,1.3739,1.3739,1.3739,0.0,0.0,0.0,0.0,0.0,0.0,0.0,0.0,0.0,1.2931,1.2654,1.241,1.2436,1.2116,1.1648,1.2575,1.2421,1.1756,1.3017,1.3169,1.2787,1.3411,1.3601,1.37,1.4297,1.4586,1.4686,1.4715,1.4813,1.497,1.5,1.5029,0.0,0.0,0.0,0.0,0.0,1.5117,0.0,1.4804,1.4795,1.4804,1.4684,1.4704,1.4734,1.4734,1.4684,1.4654,1.4675,1.4595,1.4753,1.546,1.556,1.556,1.556,1.556,1.5423,1.5065,1.5038,1.4922,1.4593,1.4595,1.4437,1.416,1.404,1.3851,1.3571,1.3224,1.3042,1.3042,1.2828,1.2683,1.2652,1.2652,1.2375,1.1903,1.1833,1.1553,1.1146,1.1076,1.1076,1.1076,1.0611,0.9966,0.9224,0.9085,0.8249,0.7043,0.6769,0.6306,0.5782,1.7699,1.7699,1.7699,1.7699,0.0,0.0,0.0,0.0,0.0,0.0,0.0,0.0,0.0,0.0,0.0,0.0,0.0,1.5498,1.5498,1.5357,1.5286,1.5286,1.5286,1.5286,1.5286,1.522,0.0,0.0,0.0,0.0,0.0,0.0,0.0,0.0,1.3964,1.3871,1.3604,1.3113,1.2817,1.2689,1.2633,1.2483,1.2389,1.3199,1.3761,1.4139,1.4258,1.4297,1.4327,1.4455,1.4506,1.4556,1.4656,1.4745,1.4804,1.5088,1.5156,0.0,0.0,0.0,0.0,1.5912,1.5884,0.0,1.5088,1.5332,1.5671,1.5613,1.5968,1.6262,1.6262,1.5786,1.5507,1.5882,1.5128,1.4561,1.4717,1.4744,1.4744,1.4744,1.4744,1.4708,1.4634,1.4625,1.4729,1.504,1.5059,1.503,1.4971,1.4359,1.398,1.3881,1.358,1.339,1.339,1.3359,1.3186,1.2928,1.2928,1.2744,1.2436,1.1996,1.1895,1.2019,1.1593,1.1555,1.1772,1.1399,1.0785,0.9979,0.899,0.8433,0.8126,0.7461,0.7151,0.7047,1.8402,1.8402,1.8402,1.8402,0.0,0.0,0.0,0.0,0.0,0.0,0.0,0.0,0.0,0.0,0.0,0.0,0.0,0.0,0.0,0.0,1.571,1.571,1.571,1.571,1.571,1.571,1.5525,0.0,0.0,0.0,0.0,0.0,0.0,0.0,0.0,0.0,1.3843,1.3542,1.3226,1.2922,1.296,1.3009,1.307,1.3731,1.4198,1.4515,1.4515,1.4536,1.4636,1.4951,1.4961,1.495,1.5439,1.5536,1.5517,1.5536,1.5652,1.5845,1.6197,1.6312,1.6368,1.6595,1.6652,0.0,0.0,1.6218,1.6407,1.6312,1.6518,1.6715,1.6715,1.6394,1.6177,1.6273,1.5604,1.5089,1.5196,1.499,1.4843,1.4843,1.4843,1.4931,1.5196,1.499,1.504,1.5517,1.5555,1.5555,1.5555,1.5177,1.4942,1.4942,1.4608,1.4341,1.4112,1.3923,1.3653,1.3246,1.3246,1.3103,1.2805,1.2697,1.2666,1.2644,1.2551,1.2604,1.2726,1.232,1.1896,1.1406,0.9964,0.9037,0.8458,0.8096,0.7712,0.7386,1.9131,1.9108,1.9108,1.9108,0.0,0.0,0.0,0.0,0.0,0.0,0.0,0.0,0.0,0.0,0.0,0.0,0.0,0.0,0.0,0.0,1.6132,1.6132,1.6132,1.6132,1.6132,1.6132,1.6062,1.5913,0.0,0.0,0.0,0.0,0.0,0.0,0.0,0.0,0.0,0.0,1.3745,1.3191,1.3593,1.3631,1.3571,1.4228,1.4506,1.4565,1.4704,1.4902,1.5128,1.5526,1.5575,1.5594,1.6247,1.6425,1.6368,1.6065,1.6197,1.6472,1.6472,1.6557,1.6754,1.7257,1.7368,1.7313,0.0,0.0,0.0,1.6996,1.7052,1.7135,1.7135,1.7024,1.6862,1.6637,1.6082,1.5721,1.5877,1.5574,1.532,1.5323,1.5342,1.5468,1.5734,1.5416,1.5328,1.5735,1.5835,1.5885,1.5885,1.5881,1.5902,1.5902,1.5642,1.5323,1.4942,1.4658,1.4302,1.3863,1.3863,1.3631,1.3246,1.3511,1.348,1.3224,1.3489,1.3631,1.367,1.3199,1.2986,1.2734,1.1132,0.9869,0.8935,0.8877,0.8393,0.7809,1.9231,1.9108,1.9108,1.9108,0.0,0.0,0.0,0.0,0.0,0.0,0.0,0.0,0.0,0.0,0.0,0.0,0.0,0.0,1.7872,1.7794,0.0,1.7725,1.7725,1.7725,1.7725,1.7725,1.7407,1.6759,0.0,0.0,0.0,0.0,0.0,0.0,1.5733,0.0,0.0,0.0,1.4732,1.4499,1.4529,1.4142,1.3571,1.4228,1.4556,1.4775,1.5497,1.6054,1.6404,1.6007,1.6169,1.6489,1.6247,1.6503,1.6832,1.6397,1.6641,1.709,1.709,1.7479,1.7902,1.7984,1.8011,1.7847,1.7285,0.0,1.7984,1.7957,0.0,1.8735,1.8735,0.0,0.0,1.765,1.6686,1.5945,1.5923,1.5857,1.5829,1.583,1.5816,1.5666,1.5323,1.5192,1.5132,1.5184,1.5575,1.5821,1.5821,1.5879,1.5902,1.5902,1.5874,1.5816,1.5758,1.5719,1.5517,1.5167,1.5167,1.4785,1.4064,1.4094,1.4043,1.389,1.392,1.4109,1.4357,1.401,1.361,1.3108,1.1857,1.1017,1.049,1.0193,0.9728,0.9253,1.9297,1.9108,1.9108,1.9108,0.0,0.0,0.0,0.0,0.0,0.0,0.0,0.0,1.8438,1.8279,1.8144,1.8008,1.8008,1.8008,1.8008,1.8008,0.0,1.8008,1.8008,1.8008,1.8008,1.8008,1.7872,1.7545,1.7545,0.0,0.0,0.0,0.0,0.0,1.6242,0.0,1.5978,1.5663,1.5478,1.541,1.541,1.5128,1.4767,1.5021,1.5449,1.5891,1.6244,1.6585,1.6905,1.7028,1.7017,1.7062,1.7435,1.7584,1.7573,1.7213,1.7407,1.7727,1.7727,1.7902,1.8174,1.8536,1.8629,1.8575,1.8294,1.8429,1.8629,1.8629,0.0,0.0,0.0,0.0,0.0,0.0,1.7345,1.6653,1.6714,1.6228,1.5898,1.5903,1.5903,1.5748,1.541,1.5442,1.5517,1.5517,1.5688,1.5796,1.5796,1.6072,1.6244,1.6244,1.6546,1.657,1.6314,1.6314,1.6104,1.57,1.57,1.5255,1.4519,1.4982,1.4903,1.4419,1.4913,1.504,1.4893,1.4736,1.4419,1.392,1.323,1.2351,1.1423,1.0905,1.0503,1.0193,1.9879,1.9649,1.9649,1.9649,0.0,0.0,0.0,0.0,0.0,0.0,0.0,1.864,1.8516,1.8337,1.8168,1.8008,1.8008,1.8008,1.8008,1.8008,1.8076,1.8269,1.811,1.8076,1.8269,1.81,1.8008,1.8008,0.0,0.0,0.0,0.0,0.0,0.0,0.0,1.6341,1.6283,1.6093,1.6065,1.6218,1.6218,1.6298,1.642,1.6286,1.6649,1.7268,1.7455,1.772,1.8025,1.8317,1.8266,1.8193,1.8577,1.8624,1.8468,1.7947,1.8077,1.8321,1.8147,1.8228,1.8456,1.8881,1.8987,1.8987,1.8987,1.8987,1.8987,1.8987,1.8987,0.0,0.0,0.0,0.0,0.0,0.0,1.7159,1.7109,1.6398,1.5924,1.6042,1.5889,1.5711,1.552,1.5448,1.5418,1.5418,1.5538,1.5615,1.5615,1.6051,1.6367,1.6514,1.6874,1.6987,1.6779,1.6779,1.6637,1.6275,1.6275,1.5902,1.5235,1.5816,1.57,1.5059,1.5642,1.57,1.5381,1.5255,1.501,1.4645,1.4288,1.3541,1.2604,1.1795,1.1329,1.1055,2.1155,2.1028,0.0,0.0,2.1028,0.0,0.0,1.9528,1.9108,1.9108,1.8741,1.8516,1.8516,1.8212,1.8008,1.8008,1.8008,1.8008,1.8008,1.8008,1.8303,1.8944,1.8337,1.8303,1.8944,1.8337,1.8008,1.8008,1.7598,0.0,0.0,0.0,0.0,0.0,1.5645,1.5758,1.6312,1.6283,1.6539,1.6944,1.6944,1.7621,1.8538,1.7952,1.8125,1.8709,1.9384,1.9989,2.0389,1.9831,2.0024,2.0304,1.9244,1.9289,1.9538,1.8406,1.8509,1.8842,1.8255,1.8521,1.8999,1.8987,1.8987,1.8987,1.8987,1.8987,1.8987,1.8987,1.8987,1.8987,1.8987,0.0,0.0,0.0,0.0,0.0,0.0,1.6153,1.5984,1.6425,1.5907,1.5504,1.5504,1.4867,1.4451,1.4451,1.4864,1.5127,1.5127,1.5571,1.6029,1.6476,1.6535,1.6776,1.7278,1.7278,1.7278,1.725,1.725,1.7015,1.6542,1.657,1.6314,1.5874,1.5902,1.5902,1.5845,1.5371,1.5206,1.5118,1.4675,1.4455,1.4297,1.3169,1.242,1.195,2.2476,2.2414,0.0,2.125,2.1092,2.1028,2.0805,2.0581,2.0399,2.0302,2.049,2.051,2.0265,2.0432,2.0557,2.0464,2.0464,2.0302,1.995,1.9465,1.9365,1.9715,1.9044,1.8988,1.9704,1.9507,1.9238,1.8858,1.8711,0.0,0.0,0.0,0.0,0.0,0.0,1.7313,1.7479,1.7479,1.7518,1.7629,1.798,1.8874,1.9951,1.9749,1.9778,1.9986,2.0221,2.0425,2.0557,2.0367,2.0425,2.0533,2.0153,2.0151,2.0241,1.988,1.9889,2.0001,1.9804,1.9654,1.9543,1.9543,1.9251,1.8987,1.8987,1.8987,1.8987,1.8987,1.8987,1.8987,1.8987,0.0,0.0,0.0,0.0,0.0,0.0,1.6367,1.5857,1.602,1.5718,1.5498,1.5498,1.4959,1.4593,1.4593,1.462,1.4648,1.4648,1.5083,1.5549,1.6029,1.6334,1.6765,1.7295,1.7306,1.7306,1.7306,1.7306,1.7043,1.6599,1.6931,1.6807,1.6371,1.6694,1.6655,1.6343,1.6189,1.5758,1.5235,1.5362,1.5245,1.4834,1.3683,1.31,1.2795,2.3108,2.3108,2.2823,2.197,2.1616,2.1471,2.1471,2.125,2.1129,2.1247,2.1523,2.1652,2.1498,2.1765,2.1862,2.17,2.17,2.143,2.0816,2.0394,2.0227,2.0292,1.9724,1.9737,2.0452,2.0226,1.9922,1.9574,1.9236,1.8788,0.0,0.0,0.0,0.0,0.0,1.7902,1.8093,1.8093,1.8289,1.8642,1.9378,2.0158,2.0923,2.1103,2.1055,2.0923,2.1115,2.1163,2.1181,2.1175,2.1175,2.1151,2.0959,2.087,2.0863,2.067,2.0581,2.0581,2.0581,2.0346,2.0069,2.0069,1.9672,1.9275,1.9275,1.9158,1.8987,1.8987,1.8987,1.8987,1.8987,1.8987,0.0,0.0,0.0,0.0,0.0,1.6367,1.5792,1.5792,1.5625,1.5468,1.5379,1.5142,1.4903,1.4605,1.4674,0.0,1.4396,1.4703,1.5072,1.5538,1.6007,1.6514,1.7005,1.7219,1.7306,1.7306,1.7306,1.7127,1.6864,1.7155,1.7127,1.6864,1.7166,1.7127,1.6835,1.6666,1.6247,1.57,1.5845,1.5729,1.5342,1.443,1.3932,1.364,2.3108,2.3108,2.3108,2.3108,2.2555,2.2156,2.218,2.1663,2.1438,2.1976,2.1937,2.2011,2.2321,2.2228,2.2124,2.1917,2.1871,2.1546,2.0761,2.0894,2.0962,2.0839,2.0402,2.0474,2.1135,2.0516,2.0182,2.016,1.926,0.0,0.0,0.0,0.0,0.0,1.7285,0.0,1.8147,1.8182,1.8834,1.9977,2.0983,2.1416,2.15,2.2005,2.1873,2.1512,2.2017,2.2197,2.2197,2.2197,2.2197,2.2101,2.1596,2.144,2.1344,2.0839,2.0665,2.0665,2.0665,2.067,2.0629,2.0629,2.0237,1.9832,1.982,1.9423,1.9023,1.8999,1.8987,1.8987,1.8987,1.8987,0.0,0.0,0.0,0.0,0.0,1.6173,1.5836,1.5859,1.5669,1.5446,1.5176,1.5412,1.5277,1.4535,1.5006,0.0,0.0,1.4419,1.465,1.5094,1.556,1.6029,1.6514,1.7027,1.7306,1.7306,1.7306,1.7306,1.7306,1.7306,1.7306,1.7306,1.7306,1.7306,1.7278,1.6807,1.6637,1.657,1.6132,1.596,1.5874,1.5381,1.4922,1.4476,2.3108,2.3108,2.3108,2.3108,2.2944,2.299,2.3443,2.3361,2.342,2.3831,2.418,2.4359,2.437,2.4675,2.4799,2.4624,2.4589,2.4271,2.3525,2.3064,2.2707,2.243,2.1799,2.159,2.1906,2.1769,2.1487,2.1068,2.0828,0.0,1.9524,0.0,0.0,0.0,0.0,1.8629,1.8798,1.9178,2.0005,2.1007,2.1296,2.1644,2.2005,2.2137,2.2101,2.2005,2.2149,2.2197,2.2197,2.2197,2.2197,2.2173,2.2041,2.1993,2.1969,2.1825,2.1789,2.1789,2.1789,2.15,2.1199,2.1199,2.0803,2.0286,1.9904,1.97,1.9495,1.9071,1.8987,1.8987,1.8987,1.8987,1.8987,0.0,0.0,0.0,1.7025,1.6517,1.6281,1.6586,1.6315,1.6086,1.5986,1.5724,1.5524,1.5591,1.5546,1.5255,1.4662,1.4915,1.5072,1.5094,1.556,1.6029,1.6514,1.7027,1.7306,1.7306,1.7306,1.7306,1.7306,1.7306,1.7306,1.7306,1.7306,1.7306,1.7278,1.7155,1.692,1.6637,1.6835,1.6722,1.6314,1.5497,1.5118,1.4951,2.3108,2.3308,2.3484,2.3484,2.3684,2.3873,2.3991,2.4205,2.4525,2.4966,2.5257,2.5477,2.5568,2.5842,2.5945,2.5758,2.5723,2.5402,2.4635,2.4328,2.3948,2.3432,2.2858,2.2619,2.2628,2.2399,2.2103,2.1753,2.1572,0.0,2.0145,0.0,0.0,0.0,0.0,1.9119,1.9411,2.0165,2.0851,2.1428,2.1656,2.1921,0.0,2.2197,2.2197,2.2197,2.2197,2.2197,2.2197,2.2197,2.2197,2.2197,2.2197,2.2197,2.2197,2.2197,2.2197,2.2197,2.2197,2.1969,2.1753,2.1753,2.151,2.1169,2.0868,2.0579,2.0283,1.9973,1.9568,1.9251,1.9251,1.9119,1.9066,1.9225,0.0,1.7945,1.7752,1.7254,1.6912,1.6901,1.6714,1.6616,1.6774,1.6216,1.591,1.603,1.5998,1.58,1.5344,1.5522,1.563,1.5545,1.6259,1.6765,1.7016,1.7817,1.8224,1.8224,1.8007,1.7897,1.7897,1.7617,1.7462,1.7462,1.7362,1.7306,1.7306,1.7306,1.7127,1.692,1.7194,1.7127,1.6807,1.6075,1.569,1.5468,2.3442,2.3968,2.4342,2.4248,2.4684,2.4854,2.4312,2.4619,2.5109,2.5636,2.5711,2.5832,2.6186,2.6236,2.6166,2.5945,2.5945,2.5641,2.4898,2.5064,2.4854,2.4093,2.3817,2.356,2.3254,2.2792,2.2431,2.2216,2.1898,0.0,0.0,0.0,0.0,0.0,0.0,0.0,0.0,2.0995,2.144,2.1548,2.2005,2.2197,2.2197,2.2197,2.2197,2.2197,2.2197,2.2197,2.2197,2.2197,2.2197,2.2228,2.2278,2.2278,2.2309,2.2371,2.2389,2.2389,2.2389,2.2389,2.2389,2.2389,2.2357,2.2285,2.221,2.1726,2.1272,2.1118,2.0408,1.9769,1.9707,1.9408,1.9277,1.9604,1.9233,1.8818,1.8593,1.8119,1.7587,1.7088,1.6981,0.0,1.7427,1.6816,1.6355,1.6287,1.6497,1.6475,1.6157,1.6201,1.6179,1.6114,1.7136,1.77,1.77,1.8818,1.9397,1.9397,1.8992,1.8794,1.8768,1.8197,1.792,1.7893,1.7656,1.749,1.7407,1.7407,1.7351,1.7306,1.7306,1.7306,1.725,1.6835,1.6428,1.6075,2.5236,2.5902,2.6182,2.5597,2.5972,2.6129,2.5421,2.5398,2.5661,2.6273,2.6336,2.6386,2.6452,2.6465,2.6361,2.6166,2.6144,2.6015,2.5723,2.5742,2.5497,2.4908,2.4847,2.4398,2.3482,2.3359,2.2995,2.2359,2.2457,0.0,0.0,0.0,0.0,0.0,0.0,0.0,2.1127,2.132,2.1656,2.2065,2.2149,2.2197,2.2197,2.2197,2.2197,2.2197,2.2197,2.2197,2.2197,2.2197,2.2197,2.2278,2.2678,2.28,2.2848,2.3233,2.3339,2.3339,2.3339,2.3339,2.3339,2.3339,2.3365,2.322,2.2789,2.259,2.2236,2.1284,2.0962,2.0705,2.0195,2.0029,2.0003,2.008,1.9634,1.9219,1.8953,1.8494,1.8081,1.7766,1.7468,1.7447,1.7767,1.7212,1.6905,1.7152,1.7227,1.6997,1.6466,1.6697,1.6621,1.6114,1.7136,1.77,1.77,1.8818,1.9397,1.9397,1.9319,1.9293,1.9254,1.9162,1.9042,1.8948,1.8895,1.8509,1.7968,1.7968,1.7689,1.7306,1.7306,1.7306,1.7278,1.7211,1.7127,1.6948,2.6298,2.66,2.6689,2.6343,2.644,2.6475,2.6105,2.6289,2.6499,2.6499,2.6499,2.6499,2.6499,2.6499,2.6465,2.6374,2.6374,2.6292,2.6223,2.6223,2.6099,2.5837,2.5539,2.4938,2.4092,2.3751,2.325,2.2555,2.3047,2.2925,0.0,0.0,0.0,0.0,0.0,2.1567,0.0,2.1692,2.1957,2.2197,2.2197,2.2197,2.2197,2.2197,2.234,2.2525,2.229,2.2512,2.2854,2.2371,2.2371,2.2604,2.2818,2.3078,2.3292,2.3518,2.3607,2.3607,2.3607,2.3607,2.3607,2.3607,2.3783,2.3923,2.3809,2.3632,2.3266,2.2591,2.1904,2.116,2.0361,2.0207,2.0283,2.0498,2.0399,2.0213,1.983,1.9436,1.903,1.8577,1.8018,1.7767,1.8023,1.7666,1.7481,1.7666,1.7509,1.7352,1.724,1.7372,1.7318,1.7034,1.8128,1.8737,1.8737,1.9876,2.0446,2.0421,2.0245,2.0144,2.0105,1.976,1.9566,1.9488,1.9357,1.9056,1.867,1.859,1.8414,1.8166,1.7826,1.7717,1.7689,1.7407,1.7306,1.725,2.7484,2.761,2.7685,2.7525,2.7537,2.7503,2.7344,2.7554,2.7468,2.6773,2.6776,2.6851,2.6851,2.6851,2.6801,2.6675,2.6663,2.6612,2.6499,2.6499,2.6555,2.6714,2.6282,2.5775,2.5274,2.4659,2.4008,2.3344,2.3819,2.3689,0.0,0.0,0.0,0.0,0.0,2.2447,2.1914,2.2329,2.2512,2.2512,2.2512,2.2512,2.2512,2.2512,2.2726,2.2987,2.2635,2.2975,2.3488,2.2744,2.2744,2.3078,2.3168,2.3442,2.3754,2.3872,2.3901,2.3901,2.3901,2.3901,2.3901,2.3901,2.4234,2.4622,2.4808,2.4653,2.4381,2.4054,2.2886,2.1649,2.0702,2.0498,2.0573,2.0957,2.1188,2.1179,2.0725,2.0326,1.9828,1.9253,1.846,1.8043,1.8242,1.8043,1.7922,1.7963,1.7672,1.7611,1.7882,1.7902,1.7957,1.8092,1.913,1.9754,1.9876,2.0884,2.1399,2.1399,2.108,2.0932,2.0908,2.0384,2.0131,2.008,1.9863,1.9631,1.9357,1.9133,1.904,1.896,1.8483,1.8321,1.8282,1.7854,1.77,1.77,2.9361,3.0259,3.0842,3.0259,3.0629,3.0815,3.0147,2.9512,2.8666,2.7387,2.7645,2.7946,2.7946,2.7946,2.7745,2.7291,2.7241,2.7027,2.6524,2.6499,2.6782,2.7384,2.7365,2.7347,2.7417,2.6762,2.6079,2.5413,2.5066,2.4485,2.3726,0.0,0.0,0.0,2.3958,2.3693,2.3382,2.3446,2.3458,2.3458,2.3458,2.3458,2.3458,2.3458,2.3488,2.3518,2.3488,2.3518,2.3577,2.3488,2.3488,2.3607,2.4031,2.4205,2.4321,2.4736,2.4863,2.4863,2.4863,2.4863,2.4863,2.4863,2.5131,2.5383,2.5411,2.5591,2.5586,2.4996,2.3701,2.2479,2.1774,2.1434,2.1385,2.165,2.1722,2.161,2.1274,2.0665,2.0056,1.9438,1.8649,1.8262,1.8459,1.8123,1.7983,1.8163,1.7983,1.7862,1.7902,1.7902,1.8147,1.8711,1.9369,1.9944,2.0423,2.1074,2.1399,2.1399,2.1361,2.1337,2.1337,2.1277,2.1166,2.1082,2.1044,2.061,1.9888,1.9384,1.9107,1.8987,1.8934,1.8975,1.9095,1.9042,1.9028,1.9028,3.1338,3.1411,3.1421,3.1148,3.0949,3.0732,3.0446,3.0448,3.0303,2.976,2.8764,2.8109,2.8109,2.8109,2.8009,2.7795,2.7469,2.7228,2.7002,2.7062,2.7229,2.7484,2.7887,2.7964,2.7717,2.7441,2.6813,2.5817,2.6004,2.573,2.508,2.5753,2.5729,2.5063,2.5007,2.454,2.3859,2.405,2.3933,2.3607,2.3771,2.3741,2.3607,2.3607,2.3783,2.3989,2.3695,2.4089,2.4679,2.4366,2.4163,2.4047,2.4234,2.4622,2.5047,2.5257,2.5411,2.5508,2.5341,2.5313,2.5313,2.5313,2.5411,2.5564,2.5921,2.5948,2.5765,2.5329,2.4019,2.2895,2.263,2.2066,2.1722,2.1996,2.2044,2.1993,2.1847,2.1094,2.0521,2.0436,1.9344,1.8769,1.9195,1.8669,1.8352,1.8431,1.8109,1.7902,1.7902,1.7902,1.8174,1.8793,1.9651,2.039,2.0986,2.1861,2.2156,2.1864,2.1864,2.1712,2.1399,2.1399,2.1375,2.1326,2.1229,2.1019,2.0684,2.0397,2.0233,2.0093,1.9734,1.9643,1.9631,1.9305,1.9253,1.9305,3.2513,3.227,3.2089,3.2089,3.1803,3.1562,3.1562,3.1751,3.1873,3.1873,3.0351,2.9297,2.9297,2.9297,2.922,2.9052,2.8524,2.8138,2.7971,2.7831,2.7901,2.8097,2.857,2.8746,2.8549,2.8355,2.7841,2.6994,2.7258,2.6959,2.6165,2.6393,2.6246,2.581,2.581,2.5329,2.4568,2.4796,2.4654,2.4295,2.4496,2.4439,2.4266,2.4192,2.4408,2.4723,2.4321,2.4793,2.5564,2.5175,2.495,2.478,2.478,2.5174,2.5619,2.5619,2.5743,2.5866,2.5674,2.5619,2.5619,2.5619,2.5674,2.5839,2.6217,2.6231,2.6048,2.5601,2.4437,2.3445,2.3261,2.2496,2.2044,2.2402,2.2449,2.2518,2.27,2.1953,2.1365,2.1379,2.0216,1.9523,1.9759,1.9203,1.8831,1.8921,1.8533,1.8214,1.8089,1.8274,1.8707,1.9419,2.0373,2.1168,2.1758,2.2515,2.2731,2.2402,2.2402,2.2147,2.164,2.1471,2.1399,2.1399,2.1302,2.1229,2.118,2.1106,2.101,2.0899,2.0435,2.0296,2.0295,1.9875,1.9811,1.9914,3.2559,3.3021,3.3489,3.3489,3.3964,3.4351,3.4351,3.3693,3.3178,3.3178,3.2528,3.206,3.206,3.206,3.1829,3.1303,3.0635,3.0052,2.9502,2.8831,2.8826,2.9546,2.9591,2.9901,3.0568,2.9914,2.9581,2.9566,2.8971,2.8028,2.6765,2.6137,2.5972,2.6283,2.6283,2.6136,2.5866,2.5866,2.5866,2.5866,2.5866,2.5866,2.5839,2.5564,2.5647,2.5839,2.5564,2.5647,2.5893,2.5893,2.5866,2.5866,2.5866,2.5893,2.5893,2.5893,2.5893,2.5893,2.5893,2.5893,2.5893,2.5893,2.6096,2.6283,2.6283,2.6566,2.6591,2.5923,2.5099,2.4294,2.3612,2.2781,2.2379,2.2994,2.3083,2.3304,2.3897,2.3396,2.2732,2.207,2.1209,2.0508,2.0048,1.9573,1.9413,1.9672,1.9369,1.8983,1.8519,1.9117,1.9943,2.0938,2.1619,2.2258,2.2875,2.2889,2.2889,2.2889,2.2889,2.2655,2.2184,2.164,2.1399,2.1399,2.1399,2.1326,2.1204,2.1204,2.1106,2.0997,2.0924,2.1023,2.118,2.1033,2.1057,2.118,3.3819,3.3978,3.4109,3.4109,3.4283,3.4414,3.4414,3.4182,3.4011,3.4011,3.3825,3.3687,3.3687,3.2733,3.2042,3.1852,3.133,3.0732,3.01,2.9931,2.9792,2.9605,3.0038,3.0387,3.0598,3.0409,3.006,2.9595,2.9392,2.8898,2.8099,2.7881,2.784,2.7932,2.7456,2.7105,2.683,2.6607,2.6286,2.5921,2.6096,2.6069,2.5893,2.5798,2.5825,2.5893,2.5798,2.5948,2.6163,2.6163,2.6312,2.65,2.65,2.6353,2.6163,2.6163,2.6312,2.6474,2.6231,2.6163,2.6163,2.6163,2.6244,2.6351,2.6592,2.6712,2.6747,2.6544,2.5568,2.4781,2.4798,2.3699,2.3016,2.3625,2.3566,2.3566,2.394,2.3416,2.298,2.2959,2.2344,2.1926,2.1965,2.1553,2.1258,2.1273,2.0876,2.0353,1.9686,1.983,2.0457,2.1655,2.2205,2.2768,2.3377,2.3681,2.3681,2.3377,2.3377,2.3135,2.2663,2.217,2.2123,2.2411,2.2077,2.21,2.2328,2.2006,2.1793,2.164,2.1267,2.1144,2.118,2.1155,2.1229,2.1326,3.4601,3.4549,3.4515,3.4515,3.4448,3.4414,3.4414,3.4414,3.4414,3.4414,3.4414,3.4414,3.4414,3.3534,3.2946,3.2946,3.2472,3.1858,3.1177,3.0954,3.0617,2.9991,3.0387,3.0598,3.0598,3.0598,3.0379,2.9987,2.9711,2.9392,2.9029,2.8825,2.8709,2.8694,2.826,2.7961,2.7821,2.761,2.7301,2.6985,2.7121,2.7108,2.6901,2.655,2.6492,2.6546,2.6181,2.6231,2.6498,2.6498,2.6633,2.6806,2.6806,2.6659,2.6498,2.6498,2.6633,2.6753,2.6525,2.6498,2.6529,2.6759,2.6658,2.6539,2.6753,2.6806,2.6806,2.6806,2.6079,2.5458,2.5408,2.4535,2.3909,2.4155,2.4051,2.4036,2.4323,2.4014,2.3723,2.3596,2.3261,2.2995,2.2912,2.2626,2.2421,2.2331,2.203,2.176,2.1555,2.1258,2.1508,2.2447,2.3022,2.3464,2.3867,2.4156,2.4156,2.3867,2.3681,2.3443,2.3157,2.2686,2.2632,2.2889,2.2595,2.2632,2.2867,2.2572,2.2426,2.2273,2.1722,2.1626,2.1803,2.1578,2.1698,2.1945,3.4902,3.4783,3.4664,3.4664,3.4515,3.4414,3.4414,3.4414,3.4414,3.4414,3.4414,3.4414,3.4414,3.4414,3.4414,3.4414,3.3877,3.33,3.2629,3.1961,3.1308,3.0699,3.0627,3.0598,3.0598,3.0598,3.0598,3.0598,2.9987,2.9668,2.9653,2.9087,2.884,2.884,2.8796,2.8767,2.8767,2.8723,2.8709,2.8709,2.8709,2.8709,2.8608,2.7736,2.7561,2.7654,2.6775,2.6669,2.6936,2.6936,2.6936,2.6936,2.6963,2.6934,2.689,2.6846,2.6806,2.6806,2.6858,2.6832,2.6951,2.7547,2.7297,2.6931,2.6957,2.6943,2.6943,2.6884,2.6651,2.6242,2.5601,2.5228,2.493,2.4586,2.4539,2.4641,2.4946,2.5005,2.4748,2.4065,2.3967,2.3733,2.3104,2.304,2.304,2.3022,2.2965,2.3208,2.3833,2.3188,2.3006,2.3363,2.3979,2.4302,2.4302,2.4302,2.4302,2.4281,2.3867,2.3638,2.3638,2.3157,2.2979,2.3001,2.2957,2.2979,2.3001,2.2957,2.2957,2.2889,2.2273,2.2426,2.2822,2.2263,2.2426,2.2889,3.4765,3.4582,3.4481,3.4481,3.4414,3.4414,3.4414,3.4414,3.4414,3.4414,3.4414,3.4414,3.4414,3.4414,3.4414,3.4414,3.4283,3.392,3.3314,3.2643,3.1959,3.1322,3.0843,3.0598,3.0598,3.0598,3.0598,3.0598,3.0452,3.035,3.035,3.022,3.0162,3.0133,2.9624,2.9406,2.9377,2.8884,2.8709,2.8709,2.8709,2.8709,2.8694,2.845,2.8392,2.8434,2.8219,2.8188,2.8258,2.8258,2.8258,2.8314,2.867,2.8397,2.7853,2.738,2.7041,2.6922,2.7479,2.7229,2.6902,2.7362,2.7731,2.8099,2.8426,2.8478,2.8327,2.776,2.7218,2.6736,2.6321,2.578,2.5278,2.4936,2.4866,2.4906,2.4985,2.5005,2.4938,2.4764,2.4732,2.4669,2.4511,2.4495,2.4456,2.4375,2.4335,2.4359,2.4416,2.4255,2.4173,2.4209,2.4364,2.44,2.4302,2.4302,2.4302,2.4302,2.4198,2.4135,2.4114,2.3638,2.3616,2.3952,2.3595,2.3653,2.3931,2.3573,2.3421,2.3377,2.2889,2.2777,2.2889,2.2731,2.2777,2.2889,3.4931,3.485,3.475,3.4635,3.4582,3.4549,3.4549,3.4448,3.4414,3.4414,3.4414,3.4414,3.4414,3.4414,3.4414,3.4414,3.4414,3.4138,3.3547,3.3151,3.2527,3.1524,3.1192,3.0872,3.0612,3.0598,3.0598,3.0598,3.0598,3.0598,3.0598,3.0598,3.0598,3.0583,3.0219,3.006,3.0031,2.9726,2.9696,2.9883,2.9883,2.9997,3.0122,2.9854,2.9763,2.9705,2.9202,2.9125,2.9275,2.9085,2.9125,2.9357,2.96,2.9399,2.9049,2.8899,2.8126,2.7393,2.779,2.7605,2.7357,2.7585,2.8115,2.8688,2.8935,2.8728,2.8485,2.8424,2.8015,2.7549,2.7056,2.6551,2.6073,2.553,2.5191,2.5005,2.5005,2.5005,2.5005,2.5005,2.5005,2.5005,2.5005,2.5005,2.4982,2.4902,2.4902,2.4866,2.4786,2.4771,2.4706,2.4544,2.4544,2.4503,2.438,2.4338,2.4302,2.4302,2.4302,2.4302,2.4281,2.4036,2.4073,2.4297,2.4015,2.4057,2.4281,2.4015,2.3931,2.3867,2.3399,2.3355,2.3508,2.3312,2.3355,2.353,3.518,3.518,3.5115,3.4935,3.4817,3.4731,3.4698,3.4563,3.4414,3.4414,3.4414,3.4414,3.4414,3.4414,3.4414,3.4414,3.4414,3.4182,3.3678,3.3547,3.3009,3.1859,3.1627,3.1264,3.0757,3.0656,3.0598,3.0598,3.0598,3.0598,3.0598,3.0598,3.0598,3.0598,3.0657,3.0702,3.0717,3.0777,3.1043,3.1394,3.1394,3.161,3.1847,3.1341,3.1128,3.1025,3.0098,3.0009,3.0247,2.9888,3.0009,3.0301,3.0365,3.033,3.0333,3.0737,2.9687,2.8391,2.8391,2.829,2.8164,2.8164,2.8581,2.9037,2.9164,2.869,2.84,2.8904,2.8784,2.8381,2.772,2.7406,2.6988,2.6151,2.5523,2.5112,2.5001,2.5005,2.5005,2.5005,2.5005,2.5005,2.5005,2.5005,2.5005,2.5005,2.5005,2.5033,2.5144,2.5144,2.5091,2.4983,2.4848,2.4787,2.4792,2.4601,2.4477,2.4456,2.4364,2.4302,2.4302,2.4302,2.4302,2.4302,2.4302,2.4302,2.4302,2.4302,2.4302,2.4261,2.3867,2.3952,2.424,2.3846,2.3952,2.4302,3.518,3.5082,3.4935,3.4902,3.4868,3.4835,3.4731,3.4664,3.4597,3.4414,3.4414,3.4414,3.4414,3.4414,3.4414,3.4414,3.4414,3.437,3.4283,3.3794,3.3416,3.3213,3.2106,3.1451,3.1366,3.0843,3.0598,3.0598,3.0598,3.0598,3.0598,3.0598,3.0598,3.0612,3.1014,3.119,3.1219,3.1537,3.1737,3.1794,3.1794,3.1851,3.1892,3.1801,3.1756,3.1741,3.1578,3.1533,3.1589,3.1548,3.1533,3.1673,3.2086,3.1824,3.1455,3.1913,3.1398,3.0703,3.0703,3.0033,2.9351,2.9351,2.9404,2.958,2.9923,2.9942,2.9697,2.9203,2.9038,2.8808,2.8115,2.7977,2.7525,2.6214,2.5914,2.5645,2.5065,2.5005,2.5005,2.5005,2.5005,2.5005,2.5005,2.5005,2.5005,2.5005,2.5005,2.5254,2.5803,2.5851,2.6114,2.6687,2.6005,2.5811,2.6193,2.5598,2.5255,2.5127,2.4558,2.4302,2.4302,2.4302,2.4302,2.4302,2.4302,2.4302,2.4302,2.4302,2.4302,2.4281,2.4219,2.424,2.4281,2.4219,2.424,2.4302,3.5213,3.5213,3.518,3.5082,3.5148,3.5148,3.4997,3.4831,3.4664,3.4563,3.4481,3.4414,3.4414,3.4414,3.4414,3.4414,3.4481,3.4515,3.4414,3.4138,3.3819,3.3518,3.289,3.2237,3.154,3.0901,3.0598,3.0598,3.0598,3.0598,3.0598,3.0598,3.0717,3.0984,3.119,3.1423,3.1638,3.1823,3.2048,3.2272,3.2272,3.2437,3.2645,3.2645,3.2645,3.2617,3.2382,3.2437,3.2617,3.2355,3.2437,3.2699,3.2904,3.2765,3.2557,3.2767,3.206,3.1198,3.1198,3.0838,3.0385,3.0009,2.9915,2.9988,3.0156,2.988,2.9627,2.969,2.9367,2.9004,2.8688,2.8347,2.7889,2.7241,2.683,2.6483,2.6167,2.614,2.614,2.614,2.614,2.614,2.614,2.614,2.614,2.614,2.614,2.6261,2.6577,2.6593,2.6751,2.7099,2.6645,2.6506,2.6711,2.6355,2.6075,2.5929,2.5642,2.546,2.5426,2.5426,2.5426,2.5426,2.5426,2.5426,2.5426,2.5426,2.5426,2.5426,2.5426,2.5426,2.5426,2.5426,2.5426,2.5364,3.5294,3.5392,3.5439,3.5294,3.5392,3.5439,3.5213,3.4983,3.4798,3.475,3.4735,3.4721,3.4635,3.4839,3.4872,3.4654,3.4835,3.4835,3.4549,3.4668,3.4501,3.3933,3.3856,3.3167,3.1694,3.1214,3.0938,3.0747,3.0657,3.0672,3.0747,3.0747,3.1014,3.1452,3.1552,3.1781,3.2076,3.2188,3.2437,3.2765,3.2765,3.2985,3.3309,3.3309,3.3309,3.324,3.2888,3.2996,3.324,3.2888,3.3011,3.3309,3.3309,3.3309,3.3309,3.3309,3.2534,3.1665,3.1507,3.146,3.1286,3.0591,3.033,3.0204,3.0204,2.9643,2.9256,2.9817,2.9501,2.9098,2.9098,2.8695,2.8284,2.8126,2.7668,2.7273,2.713,2.7099,2.7099,2.7099,2.7099,2.7099,2.7099,2.7099,2.7099,2.7099,2.7099,2.7178,2.732,2.7336,2.7399,2.7573,2.7312,2.7231,2.7366,2.7105,2.6923,2.6774,2.6581,2.6475,2.6409,2.6402,2.6402,2.6402,2.6402,2.6402,2.6402,2.6402,2.6402,2.6402,2.6402,2.6402,2.6402,2.6402,2.6402,2.6325,3.5472,3.5504,3.5504,3.5472,3.5504,3.5439,3.5213,3.5195,3.5115,3.4902,3.5415,3.5657,3.5367,3.6119,3.626,3.54,3.5625,3.5544,3.4887,3.5447,3.5578,3.5094,3.4961,3.4044,3.2182,3.2183,3.1857,3.1248,3.0807,3.0807,3.1248,3.1248,3.1466,3.1879,3.2312,3.2504,3.2574,3.3011,3.3214,3.324,3.324,3.3282,3.3309,3.3309,3.3309,3.3309,3.3266,3.3266,3.3309,3.324,3.3266,3.3309,3.3309,3.3309,3.3309,3.3309,3.323,3.3008,3.2386,3.2212,3.2038,3.1318,3.0654,3.0204,3.0204,2.9643,2.913,2.9161,2.9146,2.9098,2.9098,2.9067,2.8814,2.8189,2.8047,2.781,2.7194,2.7099,2.7099,2.7099,2.7099,2.7099,2.7099,2.7099,2.7099,2.7099,2.7099,2.7367,2.7984,2.8015,2.8316,2.8925,2.8325,2.8248,2.8747,2.8135,2.7738,2.7602,2.6858,2.6503,2.6497,2.6432,2.6402,2.6402,2.6402,2.6402,2.6402,2.6402,2.6402,2.6402,2.6402,2.6402,2.6402,2.6402,2.6402,2.6364,3.5504,3.5504,3.5504,3.5504,3.5504,3.5472,3.5392,3.5294,3.518,3.5115,3.5559,3.5849,3.5721,3.6368,3.6661,3.6291,3.6508,3.6477,3.6088,3.6722,3.6768,3.5992,3.5337,3.4668,3.3939,3.3141,3.2612,3.2342,3.1718,3.1508,3.1652,3.1652,3.1908,3.2339,3.2504,3.2765,3.3038,3.3214,3.3309,3.3309,3.3309,3.3309,3.3309,3.3309,3.3309,3.3309,3.3309,3.3309,3.3309,3.3309,3.3309,3.3309,3.3309,3.3309,3.3309,3.3309,3.3309,3.3245,3.2977,3.2914,3.274,3.207,3.169,3.1279,3.041,2.9975,2.9659,2.9193,2.9098,2.9098,2.9098,2.9098,2.9019,2.8751,2.8719,2.8625,2.8372,2.834,2.834,2.834,2.834,2.834,2.834,2.8598,2.8642,2.8363,2.8598,2.8754,2.8711,2.8719,2.883,2.9098,2.8846,2.8807,2.9013,2.8784,2.8573,2.8443,2.813,2.7914,2.7806,2.7775,2.772,2.7642,2.7642,2.7642,2.7642,2.7642,2.7642,2.7642,2.7642,2.7642,2.7642,2.7642,2.7642,2.7612,3.5797,3.5797,3.5861,3.6053,3.591,3.5846,3.6053,3.5799,3.5638,3.5879,3.6165,3.6399,3.6538,3.716,3.7485,3.716,3.7354,3.7338,3.6994,3.7546,3.7562,3.6814,3.6333,3.5901,3.5505,3.4608,3.3856,3.3354,3.2695,3.2287,3.2117,3.2201,3.2504,3.2953,3.2953,3.3129,3.3424,3.3335,3.3361,3.3424,3.3424,3.3424,3.3424,3.3424,3.3372,3.3293,3.3414,3.3424,3.345,3.3529,3.3555,3.3529,3.345,3.3388,3.3335,3.3398,3.3424,3.3424,3.3424,3.3424,3.3287,3.276,3.2449,3.2038,3.1074,3.052,3.0062,2.9564,2.9256,2.9098,2.9098,2.9098,2.9098,2.9098,2.9098,2.9098,2.9098,2.9098,2.9098,2.9098,2.9098,2.9098,2.9098,2.9522,2.9677,2.9335,2.9611,2.9589,2.9121,2.9098,2.9098,2.9098,2.9098,2.9098,2.9098,2.9098,2.9052,2.8967,2.8904,2.8826,2.8677,2.8668,2.8589,2.8468,2.8468,2.8517,2.8621,2.8621,2.8716,2.8818,2.8692,2.8621,2.8597,2.8444,2.8493,2.8591,3.6399,3.6399,3.66,3.728,3.6845,3.6631,3.731,3.6845,3.6662,3.731,3.7383,3.7517,3.7886,3.875,3.8931,3.8001,3.8153,3.8051,3.7442,3.7725,3.7825,3.7618,3.8132,3.7854,3.6648,3.66,3.5788,3.4136,3.365,3.3125,3.2629,3.2895,3.3256,3.3694,3.3694,3.3694,3.3684,3.3424,3.345,3.3694,3.3694,3.3694,3.3694,3.3694,3.3555,3.3319,3.3607,3.3694,3.3745,3.4,3.4101,3.405,3.3771,3.3529,3.3361,3.3633,3.3694,3.3694,3.3694,3.3694,3.3658,3.3388,3.2813,3.2307,3.2291,3.1216,3.022,3.0204,2.9627,2.9114,2.9098,2.9098,2.9098,2.9098,2.9098,2.9098,2.9098,2.9098,2.9098,2.9098,2.9098,2.9098,2.9098,2.9522,2.981,2.981,2.981,2.9611,2.9144,2.9098,2.9098,2.9098,2.9098,2.9098,2.9098,2.9098,2.9098,2.9098,2.8967,2.8904,2.8904,2.885,2.8732,2.8597,2.8597,2.8795,2.9097,2.9097,2.9371,2.975,2.928,2.9097,2.9044,2.8573,2.87,2.9097,3.6399,3.6784,3.7161,3.737,3.7221,3.7161,3.737,3.7221,3.7161,3.737,3.7764,3.8051,3.8153,3.8843,3.9191,3.8903,3.8942,3.8942,3.8733,3.8832,3.886,3.8788,3.8544,3.8238,3.787,3.7367,3.6856,3.6355,3.5225,3.4489,3.4149,3.3876,3.3755,3.371,3.3899,3.3873,3.371,3.3838,3.3797,3.3736,3.3899,3.3975,3.3975,3.3975,3.3924,3.3873,3.3949,3.3975,3.4,3.4075,3.4101,3.405,3.3771,3.3658,3.3607,3.3684,3.3694,3.3745,3.3924,3.3975,3.3873,3.3398,3.3151,3.2892,3.2402,3.1975,3.139,3.041,3.0234,3.0046,2.9262,2.938,2.9477,2.9144,2.9098,2.9098,2.9098,2.9098,2.9098,2.9098,2.9403,2.9589,2.9589,3.0272,3.0605,3.0293,3.0288,3.0246,3.0097,2.9788,2.9589,2.9589,2.9266,2.9259,2.9589,2.9589,2.9589,2.9589,2.9886,2.9799,2.9387,2.9364,2.9296,2.9166,2.9166,2.9406,2.981,2.981,2.9876,2.9983,2.9745,2.9657,2.9635,2.9461,2.9477,2.9639,3.7145,3.7472,3.7838,3.8112,3.7924,3.7867,3.8112,3.7924,3.7867,3.8112,3.8238,3.8407,3.8689,3.905,3.9299,3.9299,3.9299,3.9299,3.9299,3.9299,3.9299,3.9299,3.8947,3.8755,3.8755,3.8324,3.7894,3.7492,3.6645,3.5934,3.5395,3.5205,3.489,3.4445,3.4623,3.4435,3.4025,3.4075,3.4075,3.4025,3.4201,3.425,3.425,3.425,3.4201,3.4126,3.4226,3.425,3.4275,3.4374,3.4349,3.4226,3.4075,3.3949,3.3873,3.4,3.4025,3.405,3.4226,3.425,3.4201,3.3882,3.3642,3.3365,3.309,3.2821,3.2481,3.1812,3.1424,3.1019,3.033,3.0212,3.0016,2.9506,2.9416,2.9393,2.938,2.938,2.9448,2.9633,2.9903,3.0075,3.0075,3.0686,3.1004,3.0764,3.0744,3.0683,3.0518,3.0246,3.0075,3.0075,2.9633,2.9611,3.0075,3.0075,3.0075,3.0075,3.0356,3.0309,2.9946,2.975,2.9705,2.9739,2.9556,2.9827,3.0365,3.0365,3.0485,3.0625,3.0365,3.026,3.0218,3.0,2.9995,3.0145,3.8306,3.8351,3.859,3.9175,3.8816,3.859,3.9202,3.8772,3.8618,3.9202,3.8772,3.8618,3.9245,3.9299,3.9299,3.9299,3.9299,3.9299,3.9299,3.9299,3.9299,3.9299,3.9299,3.9299,3.9299,3.9299,3.8861,3.7929,3.788,3.7343,3.6431,3.663,3.6357,3.5693,3.5718,3.5341,3.4669,3.4471,3.4495,3.4693,3.4718,3.4742,3.4742,3.4742,3.457,3.4395,3.4644,3.4693,3.4668,3.4844,3.4763,3.457,3.4546,3.4382,3.4284,3.4505,3.4554,3.4546,3.457,3.457,3.4578,3.4642,3.4267,3.3908,3.4134,3.3771,3.3463,3.3844,3.2914,3.2013,3.1926,3.1318,3.0649,3.0074,2.9967,2.9962,2.9881,2.9881,3.0032,3.0456,3.0539,3.0559,3.0559,3.0925,3.1162,3.1162,3.1162,3.1004,3.0642,3.058,3.0559,3.0559,3.0097,3.0097,3.0559,3.0559,3.0559,3.0559,3.0601,3.0601,3.0539,3.0118,3.0097,3.0335,2.9924,3.0166,3.0885,3.0885,3.1157,3.1481,3.1041,3.0868,3.0808,3.0385,3.0423,3.0666,3.8306,3.8717,3.9121,3.9272,3.9175,3.9121,3.9272,3.9175,3.9148,3.9272,3.9175,3.9148,3.9272,3.9299,3.9299,3.9299,3.9299,3.9299,3.9299,3.9299,3.9299,3.9299,3.9299,3.9299,3.9299,3.9299,3.9189,3.897,3.8398,3.7887,3.7468,3.7162,3.6816,3.6472,3.6677,3.6569,3.6226,3.6395,3.637,3.6242,3.6446,3.6521,3.6521,3.6521,3.6496,3.6446,3.6521,3.6183,3.5604,3.5074,3.5048,3.5171,3.4968,3.5012,3.5226,3.5272,3.5098,3.4944,3.5148,3.5195,3.5155,3.4951,3.5012,3.5071,3.4931,3.4798,3.4562,3.4147,3.3613,3.2968,3.2051,3.1543,3.1111,3.0599,3.0517,3.0514,3.0439,3.0439,3.0439,3.0497,3.0784,3.0965,3.0965,3.1372,3.1653,3.1653,3.1653,3.1615,3.1523,3.1162,3.0965,3.0965,3.058,3.0559,3.0965,3.0965,3.0965,3.0968,3.1334,3.1315,3.0965,3.0868,3.0848,3.0908,3.0808,3.1083,3.1579,3.1579,3.1634,3.1726,3.1504,3.143,3.1411,3.1254,3.1252,3.1291,3.8772,3.905,3.9299,3.9299,3.9299,3.9299,3.9299,3.9299,3.9299,3.9299,3.9299,3.9299,3.9299,3.9299,3.9299,3.9299,3.9299,3.9299,3.9299,3.9299,3.9299,3.9299,3.9299,3.9299,3.9299,3.9299,3.9299,3.9299,3.8907,3.8656,3.8517,3.8259,3.7885,3.7425,3.7555,3.7357,3.6898,3.7026,3.7026,3.6898,3.7051,3.7102,3.7102,3.7102,3.7102,3.7102,3.7102,3.6854,3.6473,3.6075,3.6193,3.6461,3.6326,3.6268,3.6259,3.6259,3.587,3.5464,3.5594,3.5638,3.5661,3.5683,3.5859,3.589,3.5548,3.5526,3.5535,3.5416,3.4705,3.3947,3.3358,3.2491,3.1712,3.1208,3.1131,3.1092,3.101,3.0991,3.105,3.124,3.1451,3.1562,3.1488,3.1693,3.1838,3.18,3.18,3.18,3.18,3.156,3.16,3.1959,3.1564,3.1749,3.2505,3.2306,3.2306,3.2542,3.2034,3.1671,3.1428,3.1201,3.122,3.1411,3.1201,3.1372,3.18,3.18,3.18,3.18,3.1727,3.169,3.169,3.1651,3.1595,3.1521,3.9299,3.9299,3.9299,3.9299,3.9299,3.9299,3.9299,3.9299,3.9299,3.9299,3.9299,3.9299,3.9299,3.9299,3.9299,3.9299,3.9299,3.9299,3.9299,3.9299,3.9299,3.9299,3.9299,3.9299,3.9299,3.9299,3.9299,3.9299,3.9299,3.9299,3.9299,3.9299,3.8984,3.8394,3.8394,3.8063,3.7483,3.7483,3.7483,3.7483,3.7483,3.7483,3.7483,3.7483,3.7483,3.7483,3.7483,3.7451,3.7369,3.7253,3.7517,3.7885,3.7885,3.77,3.7475,3.7475,3.6864,3.6182,3.6182,3.6096,3.6075,3.6423,3.6544,3.6506,3.6143,3.6182,3.6367,3.6751,3.5806,3.4881,3.4881,3.374,3.2651,3.2202,3.2127,3.2038,3.1771,3.1735,3.1832,3.2072,3.209,3.2055,3.193,3.193,3.1893,3.1819,3.1837,3.187,3.1972,3.199,3.2334,3.3076,3.2778,3.3086,3.4096,3.37,3.37,3.4079,3.28,3.2179,3.2179,3.1647,3.1617,3.1954,3.1443,3.1447,3.18,3.18,3.18,3.18,3.18,3.18,3.18,3.18,3.1727,3.1617,3.9299,3.9299,3.9299,3.9299,3.9299,3.9299,3.9299,3.9299,3.9299,3.9299,3.9299,3.9299,3.9299,3.9299,3.9299,3.9299,3.9299,3.9299,3.9299,3.9299,3.9299,3.9299,3.9299,3.9299,3.9299,3.9299,3.9299,3.9299,3.9299,3.9299,3.9299,3.9299,3.9249,3.9149,3.9149,3.91,3.9,3.9,3.9,3.9,3.9,3.9,3.9,3.9,3.9,3.9,3.9,3.882,3.8471,3.7833,3.8074,3.8644,3.8644,3.8795,3.9,3.9,3.8216,3.7361,3.7361,3.689,3.6423,3.6502,3.6728,3.6928,3.6871,3.6871,3.6891,3.6968,3.6266,3.5652,3.5652,3.4951,3.4353,3.4298,3.428,3.4016,3.3243,3.3138,3.2876,3.2195,3.209,3.209,3.2073,3.2073,3.202,3.1893,3.1893,3.2134,3.2714,3.2748,3.311,3.3904,3.3882,3.3933,3.4113,3.4037,3.4037,3.4113,3.3889,3.3803,3.3749,3.3001,3.2691,3.2714,3.202,3.1727,3.18,3.18,3.18,3.18,3.18,3.18,3.18,3.18,3.18,3.1763,3.9299,3.9299,3.9299,3.9299,3.9299,3.9299,3.9299,3.9299,3.9299,3.9299,3.9299,3.9299,3.9299,3.9299,3.9299,3.9299,3.9299,3.9299,3.9299,3.9299,3.9299,3.9299,3.9299,3.9299,3.9299,3.9299,3.9299,3.9299,3.9299,3.9299,3.9299,3.9299,3.9299,3.9299,3.9299,3.9299,3.9299,3.9299,3.9299,3.9325,3.9537,3.9511,3.9325,3.9563,3.9511,3.9299,3.9299,3.9347,3.9345,3.9051,3.943,4.0019,4.0019,4.0005,3.9972,3.9972,3.9287,3.8552,3.8552,3.7993,3.7379,3.7379,3.7204,3.7007,3.7007,3.7007,3.7007,3.7007,3.6355,3.5792,3.5792,3.5197,3.4706,3.4706,3.4706,3.4565,3.4195,3.4124,3.3984,3.3596,3.3544,3.3526,3.3454,3.3435,3.3398,3.3287,3.3305,3.3425,3.3715,3.3658,3.4002,3.4797,3.4754,3.4904,3.5318,3.5318,3.5318,3.5318,3.5318,3.4907,3.4096,3.3731,3.3559,3.3542,3.3214,3.2817,3.2421,3.2421,3.2162,3.18,3.18,3.18,3.18,3.18,3.18,3.18]}]]